<?xml version="1.0" encoding="UTF-8" standalone="no" ?>
<gpx xmlns="http://www.topografix.com/GPX/1/1" xmlns:xsi="http://www.w3.org/2001/XMLSchema-instance" xsi:schemaLocation="http://www.topografix.com/GPX/1/1 http://www.topografix.com/GPX/1/1/gpx.xsd" version="1.1" creator="VisuGPX - https://www.visugpx.com">
  <metadata>
    <name>83 - M - St Antonin</name>
    <desc><![CDATA[83 - M - St Antonin : Mentone 
2022-11-30]]></desc>
  </metadata>
  <trk>
    <name><![CDATA[St Antonin - Mentone 2022-11-30-01]]></name>
    <trkseg>
      <trkpt lat="43.5077" lon="6.28723">
        <ele>200</ele>
        <time>2022-11-30T12:55:43Z</time>
      </trkpt>
      <trkpt lat="43.5077" lon="6.28722">
        <ele>199</ele>
        <time>2022-11-30T12:55:43Z</time>
      </trkpt>
      <trkpt lat="43.50765" lon="6.28735">
        <ele>198</ele>
        <time>2022-11-30T12:55:59Z</time>
      </trkpt>
      <trkpt lat="43.50762" lon="6.2874">
        <ele>197</ele>
        <time>2022-11-30T12:56:03Z</time>
      </trkpt>
      <trkpt lat="43.50755" lon="6.28751">
        <ele>197</ele>
        <time>2022-11-30T12:56:11Z</time>
      </trkpt>
      <trkpt lat="43.50751" lon="6.28755">
        <ele>196</ele>
        <time>2022-11-30T12:56:15Z</time>
      </trkpt>
      <trkpt lat="43.50744" lon="6.28762">
        <ele>197</ele>
        <time>2022-11-30T12:56:23Z</time>
      </trkpt>
      <trkpt lat="43.50739" lon="6.28767">
        <ele>196</ele>
        <time>2022-11-30T12:56:27Z</time>
      </trkpt>
      <trkpt lat="43.50735" lon="6.28771">
        <ele>195</ele>
        <time>2022-11-30T12:56:31Z</time>
      </trkpt>
      <trkpt lat="43.5073" lon="6.28772">
        <ele>197</ele>
        <time>2022-11-30T12:56:35Z</time>
      </trkpt>
      <trkpt lat="43.50721" lon="6.28777">
        <ele>196</ele>
        <time>2022-11-30T12:56:44Z</time>
      </trkpt>
      <trkpt lat="43.50714" lon="6.28782">
        <ele>196</ele>
        <time>2022-11-30T12:56:49Z</time>
      </trkpt>
      <trkpt lat="43.5071" lon="6.28786">
        <ele>196.1</ele>
        <time>2022-11-30T12:56:52Z</time>
      </trkpt>
      <trkpt lat="43.50706" lon="6.28789">
        <ele>196.7</ele>
        <time>2022-11-30T12:56:56Z</time>
      </trkpt>
      <trkpt lat="43.50702" lon="6.28793">
        <ele>197</ele>
        <time>2022-11-30T12:57:00Z</time>
      </trkpt>
      <trkpt lat="43.50697" lon="6.28796">
        <ele>196.9</ele>
        <time>2022-11-30T12:57:04Z</time>
      </trkpt>
      <trkpt lat="43.50692" lon="6.28801">
        <ele>196.9</ele>
        <time>2022-11-30T12:57:08Z</time>
      </trkpt>
      <trkpt lat="43.50688" lon="6.28803">
        <ele>197</ele>
        <time>2022-11-30T12:57:11Z</time>
      </trkpt>
      <trkpt lat="43.50684" lon="6.28808">
        <ele>197.1</ele>
        <time>2022-11-30T12:57:16Z</time>
      </trkpt>
      <trkpt lat="43.5068" lon="6.28812">
        <ele>196.3</ele>
        <time>2022-11-30T12:57:20Z</time>
      </trkpt>
      <trkpt lat="43.50678" lon="6.2882">
        <ele>196.8</ele>
        <time>2022-11-30T12:57:25Z</time>
      </trkpt>
      <trkpt lat="43.50678" lon="6.28826">
        <ele>196.5</ele>
        <time>2022-11-30T12:57:39Z</time>
      </trkpt>
      <trkpt lat="43.50679" lon="6.28833">
        <ele>196</ele>
        <time>2022-11-30T12:57:49Z</time>
      </trkpt>
      <trkpt lat="43.50683" lon="6.28829">
        <ele>197</ele>
        <time>2022-11-30T12:58:36Z</time>
      </trkpt>
      <trkpt lat="43.50687" lon="6.28825">
        <ele>197</ele>
        <time>2022-11-30T12:58:50Z</time>
      </trkpt>
      <trkpt lat="43.50691" lon="6.28824">
        <ele>196.4</ele>
        <time>2022-11-30T12:58:59Z</time>
      </trkpt>
      <trkpt lat="43.50696" lon="6.28826">
        <ele>196.6</ele>
        <time>2022-11-30T12:59:08Z</time>
      </trkpt>
      <trkpt lat="43.50701" lon="6.28829">
        <ele>196.5</ele>
        <time>2022-11-30T12:59:14Z</time>
      </trkpt>
      <trkpt lat="43.50705" lon="6.28832">
        <ele>196.4</ele>
        <time>2022-11-30T12:59:20Z</time>
      </trkpt>
      <trkpt lat="43.50709" lon="6.28835">
        <ele>196.1</ele>
        <time>2022-11-30T12:59:25Z</time>
      </trkpt>
      <trkpt lat="43.50714" lon="6.28838">
        <ele>196.4</ele>
        <time>2022-11-30T12:59:30Z</time>
      </trkpt>
      <trkpt lat="43.50718" lon="6.2884">
        <ele>196.7</ele>
        <time>2022-11-30T12:59:36Z</time>
      </trkpt>
      <trkpt lat="43.50723" lon="6.28843">
        <ele>197.1</ele>
        <time>2022-11-30T12:59:42Z</time>
      </trkpt>
      <trkpt lat="43.50728" lon="6.28845">
        <ele>197.1</ele>
        <time>2022-11-30T12:59:50Z</time>
      </trkpt>
      <trkpt lat="43.50733" lon="6.28848">
        <ele>196.8</ele>
        <time>2022-11-30T12:59:55Z</time>
      </trkpt>
      <trkpt lat="43.50737" lon="6.28851">
        <ele>196.5</ele>
        <time>2022-11-30T13:00:02Z</time>
      </trkpt>
      <trkpt lat="43.50742" lon="6.28854">
        <ele>197.7</ele>
        <time>2022-11-30T13:00:06Z</time>
      </trkpt>
      <trkpt lat="43.50746" lon="6.28856">
        <ele>197.7</ele>
        <time>2022-11-30T13:00:10Z</time>
      </trkpt>
      <trkpt lat="43.50751" lon="6.28859">
        <ele>197.5</ele>
        <time>2022-11-30T13:00:15Z</time>
      </trkpt>
      <trkpt lat="43.50756" lon="6.28861">
        <ele>197.7</ele>
        <time>2022-11-30T13:00:19Z</time>
      </trkpt>
      <trkpt lat="43.50761" lon="6.28863">
        <ele>198</ele>
        <time>2022-11-30T13:00:23Z</time>
      </trkpt>
      <trkpt lat="43.50765" lon="6.28867">
        <ele>197.9</ele>
        <time>2022-11-30T13:00:29Z</time>
      </trkpt>
      <trkpt lat="43.5077" lon="6.28869">
        <ele>197.8</ele>
        <time>2022-11-30T13:00:36Z</time>
      </trkpt>
      <trkpt lat="43.50774" lon="6.28871">
        <ele>197.9</ele>
        <time>2022-11-30T13:00:40Z</time>
      </trkpt>
      <trkpt lat="43.50778" lon="6.28876">
        <ele>197.8</ele>
        <time>2022-11-30T13:00:46Z</time>
      </trkpt>
      <trkpt lat="43.50783" lon="6.28876">
        <ele>198</ele>
        <time>2022-11-30T13:00:50Z</time>
      </trkpt>
      <trkpt lat="43.50787" lon="6.2888">
        <ele>198</ele>
        <time>2022-11-30T13:00:56Z</time>
      </trkpt>
      <trkpt lat="43.50792" lon="6.28883">
        <ele>198.4</ele>
        <time>2022-11-30T13:01:00Z</time>
      </trkpt>
      <trkpt lat="43.50797" lon="6.28885">
        <ele>198.8</ele>
        <time>2022-11-30T13:01:04Z</time>
      </trkpt>
      <trkpt lat="43.50801" lon="6.28889">
        <ele>199</ele>
        <time>2022-11-30T13:01:09Z</time>
      </trkpt>
      <trkpt lat="43.50807" lon="6.2889">
        <ele>199.2</ele>
        <time>2022-11-30T13:01:14Z</time>
      </trkpt>
      <trkpt lat="43.50811" lon="6.28891">
        <ele>199.2</ele>
        <time>2022-11-30T13:01:18Z</time>
      </trkpt>
      <trkpt lat="43.50816" lon="6.28893">
        <ele>199.2</ele>
        <time>2022-11-30T13:01:25Z</time>
      </trkpt>
      <trkpt lat="43.5082" lon="6.28895">
        <ele>199.1</ele>
        <time>2022-11-30T13:01:29Z</time>
      </trkpt>
      <trkpt lat="43.50825" lon="6.28891">
        <ele>198.7</ele>
        <time>2022-11-30T13:01:33Z</time>
      </trkpt>
      <trkpt lat="43.5083" lon="6.28889">
        <ele>198.5</ele>
        <time>2022-11-30T13:01:44Z</time>
      </trkpt>
      <trkpt lat="43.50834" lon="6.28892">
        <ele>198.8</ele>
        <time>2022-11-30T13:01:50Z</time>
      </trkpt>
      <trkpt lat="43.50839" lon="6.28895">
        <ele>199.3</ele>
        <time>2022-11-30T13:01:54Z</time>
      </trkpt>
      <trkpt lat="43.50843" lon="6.28897">
        <ele>199.4</ele>
        <time>2022-11-30T13:02:00Z</time>
      </trkpt>
      <trkpt lat="43.50848" lon="6.28898">
        <ele>199.4</ele>
        <time>2022-11-30T13:02:05Z</time>
      </trkpt>
      <trkpt lat="43.50852" lon="6.28901">
        <ele>199.5</ele>
        <time>2022-11-30T13:02:09Z</time>
      </trkpt>
      <trkpt lat="43.50856" lon="6.28904">
        <ele>199.8</ele>
        <time>2022-11-30T13:02:13Z</time>
      </trkpt>
      <trkpt lat="43.50861" lon="6.28904">
        <ele>199.7</ele>
        <time>2022-11-30T13:02:17Z</time>
      </trkpt>
      <trkpt lat="43.50866" lon="6.28905">
        <ele>199.9</ele>
        <time>2022-11-30T13:02:21Z</time>
      </trkpt>
      <trkpt lat="43.50871" lon="6.28904">
        <ele>200.1</ele>
        <time>2022-11-30T13:02:25Z</time>
      </trkpt>
      <trkpt lat="43.50875" lon="6.28905">
        <ele>199.9</ele>
        <time>2022-11-30T13:02:29Z</time>
      </trkpt>
      <trkpt lat="43.5088" lon="6.28909">
        <ele>200.7</ele>
        <time>2022-11-30T13:02:34Z</time>
      </trkpt>
      <trkpt lat="43.50884" lon="6.28912">
        <ele>200.7</ele>
        <time>2022-11-30T13:02:39Z</time>
      </trkpt>
      <trkpt lat="43.5089" lon="6.2891">
        <ele>200.9</ele>
        <time>2022-11-30T13:02:44Z</time>
      </trkpt>
      <trkpt lat="43.50895" lon="6.28912">
        <ele>201.2</ele>
        <time>2022-11-30T13:02:49Z</time>
      </trkpt>
      <trkpt lat="43.509" lon="6.28915">
        <ele>201.2</ele>
        <time>2022-11-30T13:02:54Z</time>
      </trkpt>
      <trkpt lat="43.50904" lon="6.28916">
        <ele>201.2</ele>
        <time>2022-11-30T13:02:59Z</time>
      </trkpt>
      <trkpt lat="43.5091" lon="6.28917">
        <ele>201.4</ele>
        <time>2022-11-30T13:03:04Z</time>
      </trkpt>
      <trkpt lat="43.50916" lon="6.2892">
        <ele>200.8</ele>
        <time>2022-11-30T13:03:10Z</time>
      </trkpt>
      <trkpt lat="43.50919" lon="6.28925">
        <ele>201.1</ele>
        <time>2022-11-30T13:03:15Z</time>
      </trkpt>
      <trkpt lat="43.50923" lon="6.28929">
        <ele>201.3</ele>
        <time>2022-11-30T13:03:19Z</time>
      </trkpt>
      <trkpt lat="43.50929" lon="6.28932">
        <ele>201</ele>
        <time>2022-11-30T13:03:24Z</time>
      </trkpt>
      <trkpt lat="43.50933" lon="6.28932">
        <ele>201</ele>
        <time>2022-11-30T13:03:27Z</time>
      </trkpt>
      <trkpt lat="43.50938" lon="6.28931">
        <ele>201.3</ele>
        <time>2022-11-30T13:03:30Z</time>
      </trkpt>
      <trkpt lat="43.50944" lon="6.28931">
        <ele>200.9</ele>
        <time>2022-11-30T13:03:33Z</time>
      </trkpt>
      <trkpt lat="43.50949" lon="6.28928">
        <ele>201.4</ele>
        <time>2022-11-30T13:03:37Z</time>
      </trkpt>
      <trkpt lat="43.50955" lon="6.28926">
        <ele>201.7</ele>
        <time>2022-11-30T13:03:40Z</time>
      </trkpt>
      <trkpt lat="43.5096" lon="6.28925">
        <ele>201.5</ele>
        <time>2022-11-30T13:03:44Z</time>
      </trkpt>
      <trkpt lat="43.50964" lon="6.28923">
        <ele>202</ele>
        <time>2022-11-30T13:03:48Z</time>
      </trkpt>
      <trkpt lat="43.50969" lon="6.28921">
        <ele>202</ele>
        <time>2022-11-30T13:03:51Z</time>
      </trkpt>
      <trkpt lat="43.50974" lon="6.2892">
        <ele>202.6</ele>
        <time>2022-11-30T13:03:58Z</time>
      </trkpt>
      <trkpt lat="43.50979" lon="6.28917">
        <ele>202.4</ele>
        <time>2022-11-30T13:04:03Z</time>
      </trkpt>
      <trkpt lat="43.50983" lon="6.28914">
        <ele>202.8</ele>
        <time>2022-11-30T13:04:08Z</time>
      </trkpt>
      <trkpt lat="43.50989" lon="6.28912">
        <ele>203.1</ele>
        <time>2022-11-30T13:04:16Z</time>
      </trkpt>
      <trkpt lat="43.50993" lon="6.28911">
        <ele>203</ele>
        <time>2022-11-30T13:04:23Z</time>
      </trkpt>
      <trkpt lat="43.50998" lon="6.28909">
        <ele>203.3</ele>
        <time>2022-11-30T13:04:27Z</time>
      </trkpt>
      <trkpt lat="43.51003" lon="6.28907">
        <ele>203.4</ele>
        <time>2022-11-30T13:04:31Z</time>
      </trkpt>
      <trkpt lat="43.51007" lon="6.28905">
        <ele>203</ele>
        <time>2022-11-30T13:04:36Z</time>
      </trkpt>
      <trkpt lat="43.51012" lon="6.28902">
        <ele>203.4</ele>
        <time>2022-11-30T13:04:39Z</time>
      </trkpt>
      <trkpt lat="43.51017" lon="6.289">
        <ele>203</ele>
        <time>2022-11-30T13:04:44Z</time>
      </trkpt>
      <trkpt lat="43.51022" lon="6.289">
        <ele>203.2</ele>
        <time>2022-11-30T13:04:50Z</time>
      </trkpt>
      <trkpt lat="43.51028" lon="6.289">
        <ele>203.4</ele>
        <time>2022-11-30T13:04:54Z</time>
      </trkpt>
      <trkpt lat="43.51034" lon="6.289">
        <ele>204.3</ele>
        <time>2022-11-30T13:04:59Z</time>
      </trkpt>
      <trkpt lat="43.51037" lon="6.28905">
        <ele>203.9</ele>
        <time>2022-11-30T13:05:06Z</time>
      </trkpt>
      <trkpt lat="43.51042" lon="6.28905">
        <ele>204.4</ele>
        <time>2022-11-30T13:05:09Z</time>
      </trkpt>
      <trkpt lat="43.51047" lon="6.28907">
        <ele>204.5</ele>
        <time>2022-11-30T13:05:13Z</time>
      </trkpt>
      <trkpt lat="43.51052" lon="6.28909">
        <ele>204.7</ele>
        <time>2022-11-30T13:05:18Z</time>
      </trkpt>
      <trkpt lat="43.51056" lon="6.28911">
        <ele>205</ele>
        <time>2022-11-30T13:05:23Z</time>
      </trkpt>
      <trkpt lat="43.51061" lon="6.28911">
        <ele>205</ele>
        <time>2022-11-30T13:05:26Z</time>
      </trkpt>
      <trkpt lat="43.51066" lon="6.28911">
        <ele>204.8</ele>
        <time>2022-11-30T13:05:30Z</time>
      </trkpt>
      <trkpt lat="43.51071" lon="6.28912">
        <ele>204.9</ele>
        <time>2022-11-30T13:05:35Z</time>
      </trkpt>
      <trkpt lat="43.51077" lon="6.28912">
        <ele>205.7</ele>
        <time>2022-11-30T13:05:39Z</time>
      </trkpt>
      <trkpt lat="43.51083" lon="6.2891">
        <ele>205.9</ele>
        <time>2022-11-30T13:05:42Z</time>
      </trkpt>
      <trkpt lat="43.51089" lon="6.28908">
        <ele>206</ele>
        <time>2022-11-30T13:05:46Z</time>
      </trkpt>
      <trkpt lat="43.51094" lon="6.28905">
        <ele>205.6</ele>
        <time>2022-11-30T13:05:49Z</time>
      </trkpt>
      <trkpt lat="43.511" lon="6.28903">
        <ele>205.9</ele>
        <time>2022-11-30T13:05:52Z</time>
      </trkpt>
      <trkpt lat="43.51105" lon="6.28901">
        <ele>206.2</ele>
        <time>2022-11-30T13:05:55Z</time>
      </trkpt>
      <trkpt lat="43.51109" lon="6.28899">
        <ele>206</ele>
        <time>2022-11-30T13:05:58Z</time>
      </trkpt>
      <trkpt lat="43.51114" lon="6.28899">
        <ele>205.9</ele>
        <time>2022-11-30T13:06:02Z</time>
      </trkpt>
      <trkpt lat="43.5112" lon="6.28897">
        <ele>205.6</ele>
        <time>2022-11-30T13:06:05Z</time>
      </trkpt>
      <trkpt lat="43.51124" lon="6.28896">
        <ele>206</ele>
        <time>2022-11-30T13:06:09Z</time>
      </trkpt>
      <trkpt lat="43.51129" lon="6.28894">
        <ele>206.4</ele>
        <time>2022-11-30T13:06:13Z</time>
      </trkpt>
      <trkpt lat="43.51134" lon="6.28893">
        <ele>206.2</ele>
        <time>2022-11-30T13:06:17Z</time>
      </trkpt>
      <trkpt lat="43.51139" lon="6.28892">
        <ele>206.4</ele>
        <time>2022-11-30T13:06:21Z</time>
      </trkpt>
      <trkpt lat="43.51144" lon="6.28891">
        <ele>207</ele>
        <time>2022-11-30T13:06:25Z</time>
      </trkpt>
      <trkpt lat="43.51148" lon="6.28887">
        <ele>206.4</ele>
        <time>2022-11-30T13:06:27Z</time>
      </trkpt>
      <trkpt lat="43.51153" lon="6.28886">
        <ele>206.2</ele>
        <time>2022-11-30T13:06:31Z</time>
      </trkpt>
      <trkpt lat="43.51159" lon="6.28885">
        <ele>206.4</ele>
        <time>2022-11-30T13:06:36Z</time>
      </trkpt>
      <trkpt lat="43.51164" lon="6.28885">
        <ele>206.7</ele>
        <time>2022-11-30T13:06:40Z</time>
      </trkpt>
      <trkpt lat="43.51169" lon="6.28885">
        <ele>207.1</ele>
        <time>2022-11-30T13:06:44Z</time>
      </trkpt>
      <trkpt lat="43.51174" lon="6.28883">
        <ele>207.4</ele>
        <time>2022-11-30T13:06:47Z</time>
      </trkpt>
      <trkpt lat="43.51179" lon="6.28881">
        <ele>207.4</ele>
        <time>2022-11-30T13:06:50Z</time>
      </trkpt>
      <trkpt lat="43.51184" lon="6.2888">
        <ele>207.3</ele>
        <time>2022-11-30T13:06:53Z</time>
      </trkpt>
      <trkpt lat="43.51189" lon="6.2888">
        <ele>207.5</ele>
        <time>2022-11-30T13:06:56Z</time>
      </trkpt>
      <trkpt lat="43.51195" lon="6.28879">
        <ele>207.6</ele>
        <time>2022-11-30T13:07:00Z</time>
      </trkpt>
      <trkpt lat="43.51201" lon="6.28878">
        <ele>207.6</ele>
        <time>2022-11-30T13:07:04Z</time>
      </trkpt>
      <trkpt lat="43.51205" lon="6.28872">
        <ele>207.6</ele>
        <time>2022-11-30T13:07:07Z</time>
      </trkpt>
      <trkpt lat="43.51209" lon="6.28869">
        <ele>207.7</ele>
        <time>2022-11-30T13:07:10Z</time>
      </trkpt>
      <trkpt lat="43.51214" lon="6.28867">
        <ele>208</ele>
        <time>2022-11-30T13:07:13Z</time>
      </trkpt>
      <trkpt lat="43.51218" lon="6.28864">
        <ele>208.2</ele>
        <time>2022-11-30T13:07:17Z</time>
      </trkpt>
      <trkpt lat="43.51223" lon="6.28863">
        <ele>207.8</ele>
        <time>2022-11-30T13:07:21Z</time>
      </trkpt>
      <trkpt lat="43.51228" lon="6.28862">
        <ele>207.9</ele>
        <time>2022-11-30T13:07:25Z</time>
      </trkpt>
      <trkpt lat="43.51233" lon="6.28861">
        <ele>207.9</ele>
        <time>2022-11-30T13:07:29Z</time>
      </trkpt>
      <trkpt lat="43.51238" lon="6.28859">
        <ele>208.2</ele>
        <time>2022-11-30T13:07:34Z</time>
      </trkpt>
      <trkpt lat="43.51242" lon="6.28858">
        <ele>208.5</ele>
        <time>2022-11-30T13:07:39Z</time>
      </trkpt>
      <trkpt lat="43.51248" lon="6.28858">
        <ele>208.9</ele>
        <time>2022-11-30T13:07:44Z</time>
      </trkpt>
      <trkpt lat="43.51253" lon="6.28857">
        <ele>209.1</ele>
        <time>2022-11-30T13:07:47Z</time>
      </trkpt>
      <trkpt lat="43.51258" lon="6.28856">
        <ele>209.2</ele>
        <time>2022-11-30T13:07:50Z</time>
      </trkpt>
      <trkpt lat="43.51264" lon="6.28855">
        <ele>209</ele>
        <time>2022-11-30T13:07:53Z</time>
      </trkpt>
      <trkpt lat="43.5127" lon="6.28854">
        <ele>207.8</ele>
        <time>2022-11-30T13:07:57Z</time>
      </trkpt>
      <trkpt lat="43.51276" lon="6.28854">
        <ele>209.5</ele>
        <time>2022-11-30T13:08:01Z</time>
      </trkpt>
      <trkpt lat="43.5128" lon="6.28855">
        <ele>209.5</ele>
        <time>2022-11-30T13:08:05Z</time>
      </trkpt>
      <trkpt lat="43.51286" lon="6.28853">
        <ele>210</ele>
        <time>2022-11-30T13:08:11Z</time>
      </trkpt>
      <trkpt lat="43.51291" lon="6.28854">
        <ele>210.1</ele>
        <time>2022-11-30T13:08:15Z</time>
      </trkpt>
      <trkpt lat="43.51296" lon="6.28853">
        <ele>210.9</ele>
        <time>2022-11-30T13:08:19Z</time>
      </trkpt>
      <trkpt lat="43.51301" lon="6.28853">
        <ele>211.5</ele>
        <time>2022-11-30T13:08:22Z</time>
      </trkpt>
      <trkpt lat="43.51306" lon="6.28855">
        <ele>212.2</ele>
        <time>2022-11-30T13:08:43Z</time>
      </trkpt>
      <trkpt lat="43.5131" lon="6.28853">
        <ele>212.1</ele>
        <time>2022-11-30T13:08:52Z</time>
      </trkpt>
      <trkpt lat="43.51315" lon="6.28847">
        <ele>212.1</ele>
        <time>2022-11-30T13:08:56Z</time>
      </trkpt>
      <trkpt lat="43.51319" lon="6.28842">
        <ele>213</ele>
        <time>2022-11-30T13:08:59Z</time>
      </trkpt>
      <trkpt lat="43.51324" lon="6.28839">
        <ele>213.2</ele>
        <time>2022-11-30T13:09:05Z</time>
      </trkpt>
      <trkpt lat="43.51326" lon="6.28833">
        <ele>214.7</ele>
        <time>2022-11-30T13:09:19Z</time>
      </trkpt>
      <trkpt lat="43.51329" lon="6.28828">
        <ele>214.9</ele>
        <time>2022-11-30T13:09:30Z</time>
      </trkpt>
      <trkpt lat="43.51333" lon="6.28825">
        <ele>215</ele>
        <time>2022-11-30T13:09:35Z</time>
      </trkpt>
      <trkpt lat="43.51338" lon="6.28823">
        <ele>215.7</ele>
        <time>2022-11-30T13:09:46Z</time>
      </trkpt>
      <trkpt lat="43.51343" lon="6.28821">
        <ele>216.1</ele>
        <time>2022-11-30T13:09:50Z</time>
      </trkpt>
      <trkpt lat="43.51349" lon="6.28821">
        <ele>216.7</ele>
        <time>2022-11-30T13:09:54Z</time>
      </trkpt>
      <trkpt lat="43.51354" lon="6.28822">
        <ele>217.1</ele>
        <time>2022-11-30T13:09:59Z</time>
      </trkpt>
      <trkpt lat="43.51358" lon="6.28825">
        <ele>217.1</ele>
        <time>2022-11-30T13:10:02Z</time>
      </trkpt>
      <trkpt lat="43.51364" lon="6.28828">
        <ele>217.3</ele>
        <time>2022-11-30T13:10:06Z</time>
      </trkpt>
      <trkpt lat="43.51368" lon="6.28828">
        <ele>217.4</ele>
        <time>2022-11-30T13:10:09Z</time>
      </trkpt>
      <trkpt lat="43.51373" lon="6.2883">
        <ele>217.4</ele>
        <time>2022-11-30T13:10:13Z</time>
      </trkpt>
      <trkpt lat="43.51378" lon="6.28832">
        <ele>217.6</ele>
        <time>2022-11-30T13:10:18Z</time>
      </trkpt>
      <trkpt lat="43.51383" lon="6.28834">
        <ele>217.5</ele>
        <time>2022-11-30T13:10:23Z</time>
      </trkpt>
      <trkpt lat="43.51388" lon="6.28832">
        <ele>217.3</ele>
        <time>2022-11-30T13:10:27Z</time>
      </trkpt>
      <trkpt lat="43.51393" lon="6.28831">
        <ele>217.6</ele>
        <time>2022-11-30T13:10:30Z</time>
      </trkpt>
      <trkpt lat="43.51398" lon="6.28831">
        <ele>218.3</ele>
        <time>2022-11-30T13:10:34Z</time>
      </trkpt>
      <trkpt lat="43.51404" lon="6.28831">
        <ele>218</ele>
        <time>2022-11-30T13:10:38Z</time>
      </trkpt>
      <trkpt lat="43.5141" lon="6.28832">
        <ele>217.9</ele>
        <time>2022-11-30T13:10:42Z</time>
      </trkpt>
      <trkpt lat="43.51414" lon="6.28832">
        <ele>218</ele>
        <time>2022-11-30T13:10:45Z</time>
      </trkpt>
      <trkpt lat="43.5142" lon="6.28833">
        <ele>218.2</ele>
        <time>2022-11-30T13:10:49Z</time>
      </trkpt>
      <trkpt lat="43.51426" lon="6.28834">
        <ele>218.3</ele>
        <time>2022-11-30T13:10:53Z</time>
      </trkpt>
      <trkpt lat="43.5143" lon="6.28834">
        <ele>218.7</ele>
        <time>2022-11-30T13:10:56Z</time>
      </trkpt>
      <trkpt lat="43.51435" lon="6.28833">
        <ele>219</ele>
        <time>2022-11-30T13:11:00Z</time>
      </trkpt>
      <trkpt lat="43.51439" lon="6.28831">
        <ele>219.4</ele>
        <time>2022-11-30T13:11:03Z</time>
      </trkpt>
      <trkpt lat="43.51443" lon="6.28826">
        <ele>219.5</ele>
        <time>2022-11-30T13:11:05Z</time>
      </trkpt>
      <trkpt lat="43.51446" lon="6.28821">
        <ele>219.6</ele>
        <time>2022-11-30T13:11:08Z</time>
      </trkpt>
      <trkpt lat="43.5145" lon="6.28816">
        <ele>219.7</ele>
        <time>2022-11-30T13:11:11Z</time>
      </trkpt>
      <trkpt lat="43.51455" lon="6.28814">
        <ele>219.4</ele>
        <time>2022-11-30T13:11:15Z</time>
      </trkpt>
      <trkpt lat="43.51459" lon="6.28811">
        <ele>219.2</ele>
        <time>2022-11-30T13:11:21Z</time>
      </trkpt>
      <trkpt lat="43.51464" lon="6.28812">
        <ele>218.8</ele>
        <time>2022-11-30T13:11:30Z</time>
      </trkpt>
      <trkpt lat="43.51469" lon="6.28807">
        <ele>219</ele>
        <time>2022-11-30T13:11:33Z</time>
      </trkpt>
      <trkpt lat="43.51472" lon="6.28803">
        <ele>218.8</ele>
        <time>2022-11-30T13:11:38Z</time>
      </trkpt>
      <trkpt lat="43.51476" lon="6.28798">
        <ele>218</ele>
        <time>2022-11-30T13:12:49Z</time>
      </trkpt>
      <trkpt lat="43.51478" lon="6.28792">
        <ele>218.3</ele>
        <time>2022-11-30T13:12:53Z</time>
      </trkpt>
      <trkpt lat="43.51481" lon="6.28786">
        <ele>219</ele>
        <time>2022-11-30T13:12:57Z</time>
      </trkpt>
      <trkpt lat="43.51484" lon="6.28781">
        <ele>218.9</ele>
        <time>2022-11-30T13:13:01Z</time>
      </trkpt>
      <trkpt lat="43.51488" lon="6.28777">
        <ele>218.7</ele>
        <time>2022-11-30T13:13:05Z</time>
      </trkpt>
      <trkpt lat="43.51492" lon="6.28773">
        <ele>218.2</ele>
        <time>2022-11-30T13:13:09Z</time>
      </trkpt>
      <trkpt lat="43.51495" lon="6.28767">
        <ele>218.5</ele>
        <time>2022-11-30T13:13:14Z</time>
      </trkpt>
      <trkpt lat="43.51498" lon="6.28761">
        <ele>218.4</ele>
        <time>2022-11-30T13:13:18Z</time>
      </trkpt>
      <trkpt lat="43.515" lon="6.28755">
        <ele>218.4</ele>
        <time>2022-11-30T13:13:22Z</time>
      </trkpt>
      <trkpt lat="43.51503" lon="6.2875">
        <ele>219.4</ele>
        <time>2022-11-30T13:13:26Z</time>
      </trkpt>
      <trkpt lat="43.51505" lon="6.28744">
        <ele>219.8</ele>
        <time>2022-11-30T13:13:30Z</time>
      </trkpt>
      <trkpt lat="43.51508" lon="6.28739">
        <ele>219.8</ele>
        <time>2022-11-30T13:13:34Z</time>
      </trkpt>
      <trkpt lat="43.51511" lon="6.28733">
        <ele>219.8</ele>
        <time>2022-11-30T13:13:38Z</time>
      </trkpt>
      <trkpt lat="43.51513" lon="6.28727">
        <ele>220</ele>
        <time>2022-11-30T13:13:42Z</time>
      </trkpt>
      <trkpt lat="43.51516" lon="6.28721">
        <ele>219.9</ele>
        <time>2022-11-30T13:13:46Z</time>
      </trkpt>
      <trkpt lat="43.51519" lon="6.28716">
        <ele>219.6</ele>
        <time>2022-11-30T13:13:50Z</time>
      </trkpt>
      <trkpt lat="43.51521" lon="6.28711">
        <ele>219.3</ele>
        <time>2022-11-30T13:13:54Z</time>
      </trkpt>
      <trkpt lat="43.51524" lon="6.28705">
        <ele>219.7</ele>
        <time>2022-11-30T13:13:58Z</time>
      </trkpt>
      <trkpt lat="43.51524" lon="6.28699">
        <ele>219.3</ele>
        <time>2022-11-30T13:14:01Z</time>
      </trkpt>
      <trkpt lat="43.51528" lon="6.28694">
        <ele>218.9</ele>
        <time>2022-11-30T13:14:04Z</time>
      </trkpt>
      <trkpt lat="43.51528" lon="6.28688">
        <ele>219.6</ele>
        <time>2022-11-30T13:14:08Z</time>
      </trkpt>
      <trkpt lat="43.51533" lon="6.28686">
        <ele>219</ele>
        <time>2022-11-30T13:14:14Z</time>
      </trkpt>
      <trkpt lat="43.51538" lon="6.28687">
        <ele>219.3</ele>
        <time>2022-11-30T13:14:23Z</time>
      </trkpt>
      <trkpt lat="43.51542" lon="6.28691">
        <ele>219.2</ele>
        <time>2022-11-30T13:14:28Z</time>
      </trkpt>
      <trkpt lat="43.51546" lon="6.28693">
        <ele>219.7</ele>
        <time>2022-11-30T13:14:33Z</time>
      </trkpt>
      <trkpt lat="43.51551" lon="6.28697">
        <ele>219.6</ele>
        <time>2022-11-30T13:14:37Z</time>
      </trkpt>
      <trkpt lat="43.51556" lon="6.287">
        <ele>219.4</ele>
        <time>2022-11-30T13:14:41Z</time>
      </trkpt>
      <trkpt lat="43.5156" lon="6.28701">
        <ele>220.2</ele>
        <time>2022-11-30T13:14:46Z</time>
      </trkpt>
      <trkpt lat="43.51565" lon="6.28704">
        <ele>220</ele>
        <time>2022-11-30T13:14:51Z</time>
      </trkpt>
      <trkpt lat="43.51569" lon="6.28707">
        <ele>220.7</ele>
        <time>2022-11-30T13:14:56Z</time>
      </trkpt>
      <trkpt lat="43.51575" lon="6.2871">
        <ele>220.4</ele>
        <time>2022-11-30T13:15:00Z</time>
      </trkpt>
      <trkpt lat="43.51579" lon="6.28714">
        <ele>220.5</ele>
        <time>2022-11-30T13:15:05Z</time>
      </trkpt>
      <trkpt lat="43.51583" lon="6.28718">
        <ele>220.7</ele>
        <time>2022-11-30T13:15:10Z</time>
      </trkpt>
      <trkpt lat="43.51587" lon="6.28724">
        <ele>220.6</ele>
        <time>2022-11-30T13:15:15Z</time>
      </trkpt>
      <trkpt lat="43.51591" lon="6.28727">
        <ele>220.5</ele>
        <time>2022-11-30T13:15:19Z</time>
      </trkpt>
      <trkpt lat="43.51596" lon="6.28731">
        <ele>221.2</ele>
        <time>2022-11-30T13:15:23Z</time>
      </trkpt>
      <trkpt lat="43.51599" lon="6.28736">
        <ele>220.8</ele>
        <time>2022-11-30T13:15:27Z</time>
      </trkpt>
      <trkpt lat="43.51603" lon="6.2874">
        <ele>220.6</ele>
        <time>2022-11-30T13:15:31Z</time>
      </trkpt>
      <trkpt lat="43.51607" lon="6.28744">
        <ele>221.6</ele>
        <time>2022-11-30T13:15:35Z</time>
      </trkpt>
      <trkpt lat="43.5161" lon="6.28749">
        <ele>221.5</ele>
        <time>2022-11-30T13:15:39Z</time>
      </trkpt>
      <trkpt lat="43.51614" lon="6.28755">
        <ele>221.7</ele>
        <time>2022-11-30T13:15:44Z</time>
      </trkpt>
      <trkpt lat="43.51617" lon="6.2876">
        <ele>221.7</ele>
        <time>2022-11-30T13:15:48Z</time>
      </trkpt>
      <trkpt lat="43.5162" lon="6.28764">
        <ele>221.6</ele>
        <time>2022-11-30T13:15:52Z</time>
      </trkpt>
      <trkpt lat="43.51624" lon="6.2877">
        <ele>221.7</ele>
        <time>2022-11-30T13:15:58Z</time>
      </trkpt>
      <trkpt lat="43.51628" lon="6.28774">
        <ele>222.1</ele>
        <time>2022-11-30T13:16:03Z</time>
      </trkpt>
      <trkpt lat="43.51631" lon="6.2878">
        <ele>222.3</ele>
        <time>2022-11-30T13:16:08Z</time>
      </trkpt>
      <trkpt lat="43.51635" lon="6.28786">
        <ele>222.4</ele>
        <time>2022-11-30T13:16:13Z</time>
      </trkpt>
      <trkpt lat="43.51639" lon="6.28789">
        <ele>222.8</ele>
        <time>2022-11-30T13:16:16Z</time>
      </trkpt>
      <trkpt lat="43.51644" lon="6.28793">
        <ele>223.1</ele>
        <time>2022-11-30T13:16:20Z</time>
      </trkpt>
      <trkpt lat="43.51648" lon="6.28797">
        <ele>223</ele>
        <time>2022-11-30T13:16:23Z</time>
      </trkpt>
      <trkpt lat="43.51652" lon="6.28802">
        <ele>223.4</ele>
        <time>2022-11-30T13:16:28Z</time>
      </trkpt>
      <trkpt lat="43.51655" lon="6.28806">
        <ele>223.5</ele>
        <time>2022-11-30T13:16:32Z</time>
      </trkpt>
      <trkpt lat="43.51659" lon="6.2881">
        <ele>223.8</ele>
        <time>2022-11-30T13:16:36Z</time>
      </trkpt>
      <trkpt lat="43.51664" lon="6.28812">
        <ele>224.3</ele>
        <time>2022-11-30T13:16:40Z</time>
      </trkpt>
      <trkpt lat="43.51668" lon="6.28817">
        <ele>224.1</ele>
        <time>2022-11-30T13:16:45Z</time>
      </trkpt>
      <trkpt lat="43.51672" lon="6.2882">
        <ele>224.2</ele>
        <time>2022-11-30T13:16:49Z</time>
      </trkpt>
      <trkpt lat="43.51677" lon="6.28824">
        <ele>225</ele>
        <time>2022-11-30T13:16:53Z</time>
      </trkpt>
      <trkpt lat="43.51681" lon="6.28828">
        <ele>225</ele>
        <time>2022-11-30T13:16:57Z</time>
      </trkpt>
      <trkpt lat="43.51686" lon="6.28832">
        <ele>224.8</ele>
        <time>2022-11-30T13:17:01Z</time>
      </trkpt>
      <trkpt lat="43.51689" lon="6.28836">
        <ele>224.9</ele>
        <time>2022-11-30T13:17:05Z</time>
      </trkpt>
      <trkpt lat="43.51693" lon="6.2884">
        <ele>225.3</ele>
        <time>2022-11-30T13:17:09Z</time>
      </trkpt>
      <trkpt lat="43.51697" lon="6.28845">
        <ele>225.4</ele>
        <time>2022-11-30T13:17:13Z</time>
      </trkpt>
      <trkpt lat="43.51701" lon="6.28852">
        <ele>225.4</ele>
        <time>2022-11-30T13:17:18Z</time>
      </trkpt>
      <trkpt lat="43.51702" lon="6.28859">
        <ele>226.3</ele>
        <time>2022-11-30T13:17:23Z</time>
      </trkpt>
      <trkpt lat="43.51704" lon="6.28865">
        <ele>225.8</ele>
        <time>2022-11-30T13:17:27Z</time>
      </trkpt>
      <trkpt lat="43.51706" lon="6.28872">
        <ele>226.3</ele>
        <time>2022-11-30T13:17:31Z</time>
      </trkpt>
      <trkpt lat="43.51708" lon="6.28877">
        <ele>226.3</ele>
        <time>2022-11-30T13:17:35Z</time>
      </trkpt>
      <trkpt lat="43.51711" lon="6.28884">
        <ele>227.1</ele>
        <time>2022-11-30T13:17:40Z</time>
      </trkpt>
      <trkpt lat="43.51714" lon="6.2889">
        <ele>227.3</ele>
        <time>2022-11-30T13:17:44Z</time>
      </trkpt>
      <trkpt lat="43.51718" lon="6.28894">
        <ele>228.1</ele>
        <time>2022-11-30T13:17:49Z</time>
      </trkpt>
      <trkpt lat="43.51721" lon="6.28897">
        <ele>228.6</ele>
        <time>2022-11-30T13:17:53Z</time>
      </trkpt>
      <trkpt lat="43.51725" lon="6.28901">
        <ele>228.7</ele>
        <time>2022-11-30T13:17:58Z</time>
      </trkpt>
      <trkpt lat="43.51729" lon="6.28905">
        <ele>228.5</ele>
        <time>2022-11-30T13:18:03Z</time>
      </trkpt>
      <trkpt lat="43.51734" lon="6.28909">
        <ele>229.1</ele>
        <time>2022-11-30T13:18:08Z</time>
      </trkpt>
      <trkpt lat="43.51738" lon="6.28912">
        <ele>227</ele>
        <time>2022-11-30T13:18:12Z</time>
      </trkpt>
      <trkpt lat="43.51742" lon="6.28916">
        <ele>228.2</ele>
        <time>2022-11-30T13:18:16Z</time>
      </trkpt>
      <trkpt lat="43.51745" lon="6.28921">
        <ele>228.8</ele>
        <time>2022-11-30T13:18:20Z</time>
      </trkpt>
      <trkpt lat="43.5175" lon="6.28924">
        <ele>229.7</ele>
        <time>2022-11-30T13:18:24Z</time>
      </trkpt>
      <trkpt lat="43.51754" lon="6.28927">
        <ele>230.2</ele>
        <time>2022-11-30T13:18:28Z</time>
      </trkpt>
      <trkpt lat="43.51759" lon="6.2893">
        <ele>230.1</ele>
        <time>2022-11-30T13:18:33Z</time>
      </trkpt>
      <trkpt lat="43.51764" lon="6.28933">
        <ele>230.5</ele>
        <time>2022-11-30T13:18:38Z</time>
      </trkpt>
      <trkpt lat="43.51769" lon="6.28935">
        <ele>231</ele>
        <time>2022-11-30T13:18:43Z</time>
      </trkpt>
      <trkpt lat="43.51774" lon="6.28935">
        <ele>231.6</ele>
        <time>2022-11-30T13:18:47Z</time>
      </trkpt>
      <trkpt lat="43.51779" lon="6.28937">
        <ele>231.8</ele>
        <time>2022-11-30T13:18:53Z</time>
      </trkpt>
      <trkpt lat="43.51784" lon="6.28938">
        <ele>232.2</ele>
        <time>2022-11-30T13:18:58Z</time>
      </trkpt>
      <trkpt lat="43.51789" lon="6.28939">
        <ele>233</ele>
        <time>2022-11-30T13:19:03Z</time>
      </trkpt>
      <trkpt lat="43.51795" lon="6.28941">
        <ele>233</ele>
        <time>2022-11-30T13:19:08Z</time>
      </trkpt>
      <trkpt lat="43.518" lon="6.28942">
        <ele>233.8</ele>
        <time>2022-11-30T13:19:12Z</time>
      </trkpt>
      <trkpt lat="43.51805" lon="6.28943">
        <ele>234.2</ele>
        <time>2022-11-30T13:19:16Z</time>
      </trkpt>
      <trkpt lat="43.5181" lon="6.28944">
        <ele>234.5</ele>
        <time>2022-11-30T13:19:21Z</time>
      </trkpt>
      <trkpt lat="43.51814" lon="6.28945">
        <ele>234.3</ele>
        <time>2022-11-30T13:19:25Z</time>
      </trkpt>
      <trkpt lat="43.51819" lon="6.28949">
        <ele>234.9</ele>
        <time>2022-11-30T13:19:30Z</time>
      </trkpt>
      <trkpt lat="43.51824" lon="6.28949">
        <ele>234.9</ele>
        <time>2022-11-30T13:19:35Z</time>
      </trkpt>
      <trkpt lat="43.51828" lon="6.28951">
        <ele>235.3</ele>
        <time>2022-11-30T13:19:39Z</time>
      </trkpt>
      <trkpt lat="43.51833" lon="6.28953">
        <ele>235.6</ele>
        <time>2022-11-30T13:19:43Z</time>
      </trkpt>
      <trkpt lat="43.51838" lon="6.28953">
        <ele>235.2</ele>
        <time>2022-11-30T13:19:48Z</time>
      </trkpt>
      <trkpt lat="43.51843" lon="6.28956">
        <ele>235.8</ele>
        <time>2022-11-30T13:19:54Z</time>
      </trkpt>
      <trkpt lat="43.51847" lon="6.28959">
        <ele>235.4</ele>
        <time>2022-11-30T13:19:58Z</time>
      </trkpt>
      <trkpt lat="43.51852" lon="6.28959">
        <ele>235.6</ele>
        <time>2022-11-30T13:20:02Z</time>
      </trkpt>
      <trkpt lat="43.51858" lon="6.28959">
        <ele>236.7</ele>
        <time>2022-11-30T13:20:06Z</time>
      </trkpt>
      <trkpt lat="43.51863" lon="6.28958">
        <ele>237.3</ele>
        <time>2022-11-30T13:20:09Z</time>
      </trkpt>
      <trkpt lat="43.5187" lon="6.28957">
        <ele>237.6</ele>
        <time>2022-11-30T13:20:12Z</time>
      </trkpt>
      <trkpt lat="43.51874" lon="6.28957">
        <ele>237.7</ele>
        <time>2022-11-30T13:20:15Z</time>
      </trkpt>
      <trkpt lat="43.5188" lon="6.28956">
        <ele>238.4</ele>
        <time>2022-11-30T13:20:20Z</time>
      </trkpt>
      <trkpt lat="43.51885" lon="6.28954">
        <ele>238.9</ele>
        <time>2022-11-30T13:20:24Z</time>
      </trkpt>
      <trkpt lat="43.51889" lon="6.28951">
        <ele>239.2</ele>
        <time>2022-11-30T13:20:27Z</time>
      </trkpt>
      <trkpt lat="43.51894" lon="6.28947">
        <ele>239.8</ele>
        <time>2022-11-30T13:20:30Z</time>
      </trkpt>
      <trkpt lat="43.51899" lon="6.28944">
        <ele>240.1</ele>
        <time>2022-11-30T13:20:34Z</time>
      </trkpt>
      <trkpt lat="43.51903" lon="6.28942">
        <ele>240.6</ele>
        <time>2022-11-30T13:20:38Z</time>
      </trkpt>
      <trkpt lat="43.51908" lon="6.2894">
        <ele>241.4</ele>
        <time>2022-11-30T13:20:44Z</time>
      </trkpt>
      <trkpt lat="43.51912" lon="6.2894">
        <ele>241.9</ele>
        <time>2022-11-30T13:20:51Z</time>
      </trkpt>
      <trkpt lat="43.51918" lon="6.2894">
        <ele>242.5</ele>
        <time>2022-11-30T13:20:56Z</time>
      </trkpt>
      <trkpt lat="43.51923" lon="6.28943">
        <ele>243.5</ele>
        <time>2022-11-30T13:21:00Z</time>
      </trkpt>
      <trkpt lat="43.51927" lon="6.28946">
        <ele>243.4</ele>
        <time>2022-11-30T13:21:04Z</time>
      </trkpt>
      <trkpt lat="43.51932" lon="6.28948">
        <ele>244.7</ele>
        <time>2022-11-30T13:21:09Z</time>
      </trkpt>
      <trkpt lat="43.51938" lon="6.2895">
        <ele>244.7</ele>
        <time>2022-11-30T13:21:14Z</time>
      </trkpt>
      <trkpt lat="43.51943" lon="6.28951">
        <ele>245.6</ele>
        <time>2022-11-30T13:21:19Z</time>
      </trkpt>
      <trkpt lat="43.51949" lon="6.2895">
        <ele>245.9</ele>
        <time>2022-11-30T13:21:24Z</time>
      </trkpt>
      <trkpt lat="43.51954" lon="6.28948">
        <ele>246.7</ele>
        <time>2022-11-30T13:21:29Z</time>
      </trkpt>
      <trkpt lat="43.51959" lon="6.28947">
        <ele>247.1</ele>
        <time>2022-11-30T13:21:33Z</time>
      </trkpt>
      <trkpt lat="43.51964" lon="6.28945">
        <ele>247.8</ele>
        <time>2022-11-30T13:21:37Z</time>
      </trkpt>
      <trkpt lat="43.51969" lon="6.28944">
        <ele>248</ele>
        <time>2022-11-30T13:21:42Z</time>
      </trkpt>
      <trkpt lat="43.51975" lon="6.28943">
        <ele>248.6</ele>
        <time>2022-11-30T13:21:47Z</time>
      </trkpt>
      <trkpt lat="43.51981" lon="6.28942">
        <ele>249</ele>
        <time>2022-11-30T13:21:51Z</time>
      </trkpt>
      <trkpt lat="43.51986" lon="6.2894">
        <ele>249.7</ele>
        <time>2022-11-30T13:21:54Z</time>
      </trkpt>
      <trkpt lat="43.51992" lon="6.2894">
        <ele>249.4</ele>
        <time>2022-11-30T13:21:59Z</time>
      </trkpt>
      <trkpt lat="43.51996" lon="6.2894">
        <ele>249.3</ele>
        <time>2022-11-30T13:22:03Z</time>
      </trkpt>
      <trkpt lat="43.52001" lon="6.28939">
        <ele>250.1</ele>
        <time>2022-11-30T13:22:07Z</time>
      </trkpt>
      <trkpt lat="43.52006" lon="6.28939">
        <ele>250</ele>
        <time>2022-11-30T13:22:10Z</time>
      </trkpt>
      <trkpt lat="43.5201" lon="6.28936">
        <ele>250.2</ele>
        <time>2022-11-30T13:22:13Z</time>
      </trkpt>
      <trkpt lat="43.52015" lon="6.28935">
        <ele>250.7</ele>
        <time>2022-11-30T13:22:16Z</time>
      </trkpt>
      <trkpt lat="43.5202" lon="6.28934">
        <ele>251.6</ele>
        <time>2022-11-30T13:22:20Z</time>
      </trkpt>
      <trkpt lat="43.52024" lon="6.28932">
        <ele>251.3</ele>
        <time>2022-11-30T13:22:23Z</time>
      </trkpt>
      <trkpt lat="43.52029" lon="6.28931">
        <ele>251.4</ele>
        <time>2022-11-30T13:22:27Z</time>
      </trkpt>
      <trkpt lat="43.52034" lon="6.2893">
        <ele>251.5</ele>
        <time>2022-11-30T13:22:31Z</time>
      </trkpt>
      <trkpt lat="43.52039" lon="6.28931">
        <ele>251.9</ele>
        <time>2022-11-30T13:22:35Z</time>
      </trkpt>
      <trkpt lat="43.52043" lon="6.28934">
        <ele>252.3</ele>
        <time>2022-11-30T13:22:41Z</time>
      </trkpt>
      <trkpt lat="43.52048" lon="6.28935">
        <ele>252.6</ele>
        <time>2022-11-30T13:22:47Z</time>
      </trkpt>
      <trkpt lat="43.52053" lon="6.28938">
        <ele>253.7</ele>
        <time>2022-11-30T13:22:52Z</time>
      </trkpt>
      <trkpt lat="43.52057" lon="6.28938">
        <ele>253.7</ele>
        <time>2022-11-30T13:23:03Z</time>
      </trkpt>
      <trkpt lat="43.52059" lon="6.28932">
        <ele>254.3</ele>
        <time>2022-11-30T13:23:29Z</time>
      </trkpt>
      <trkpt lat="43.52061" lon="6.28926">
        <ele>254.4</ele>
        <time>2022-11-30T13:23:36Z</time>
      </trkpt>
      <trkpt lat="43.52065" lon="6.28926">
        <ele>254.4</ele>
        <time>2022-11-30T13:23:42Z</time>
      </trkpt>
      <trkpt lat="43.5207" lon="6.2893">
        <ele>256</ele>
        <time>2022-11-30T13:24:22Z</time>
      </trkpt>
      <trkpt lat="43.52075" lon="6.2893">
        <ele>256.7</ele>
        <time>2022-11-30T13:24:27Z</time>
      </trkpt>
      <trkpt lat="43.52079" lon="6.28929">
        <ele>257.4</ele>
        <time>2022-11-30T13:24:31Z</time>
      </trkpt>
      <trkpt lat="43.52084" lon="6.28928">
        <ele>257.7</ele>
        <time>2022-11-30T13:24:35Z</time>
      </trkpt>
      <trkpt lat="43.52089" lon="6.28927">
        <ele>258.4</ele>
        <time>2022-11-30T13:24:40Z</time>
      </trkpt>
      <trkpt lat="43.52093" lon="6.28927">
        <ele>259.2</ele>
        <time>2022-11-30T13:24:47Z</time>
      </trkpt>
      <trkpt lat="43.52098" lon="6.28929">
        <ele>259.6</ele>
        <time>2022-11-30T13:24:53Z</time>
      </trkpt>
      <trkpt lat="43.52103" lon="6.28928">
        <ele>259.9</ele>
        <time>2022-11-30T13:24:57Z</time>
      </trkpt>
      <trkpt lat="43.52108" lon="6.28926">
        <ele>260.5</ele>
        <time>2022-11-30T13:25:02Z</time>
      </trkpt>
      <trkpt lat="43.52112" lon="6.28923">
        <ele>260.9</ele>
        <time>2022-11-30T13:25:08Z</time>
      </trkpt>
      <trkpt lat="43.52117" lon="6.2892">
        <ele>261.2</ele>
        <time>2022-11-30T13:25:13Z</time>
      </trkpt>
      <trkpt lat="43.52122" lon="6.28917">
        <ele>261.5</ele>
        <time>2022-11-30T13:25:19Z</time>
      </trkpt>
      <trkpt lat="43.52127" lon="6.28914">
        <ele>261.8</ele>
        <time>2022-11-30T13:25:26Z</time>
      </trkpt>
      <trkpt lat="43.52131" lon="6.2891">
        <ele>262.3</ele>
        <time>2022-11-30T13:25:30Z</time>
      </trkpt>
      <trkpt lat="43.52135" lon="6.28906">
        <ele>262.6</ele>
        <time>2022-11-30T13:25:36Z</time>
      </trkpt>
      <trkpt lat="43.52139" lon="6.28903">
        <ele>262.9</ele>
        <time>2022-11-30T13:25:41Z</time>
      </trkpt>
      <trkpt lat="43.52143" lon="6.28899">
        <ele>263.4</ele>
        <time>2022-11-30T13:25:46Z</time>
      </trkpt>
      <trkpt lat="43.52148" lon="6.28898">
        <ele>264</ele>
        <time>2022-11-30T13:25:51Z</time>
      </trkpt>
      <trkpt lat="43.52152" lon="6.28897">
        <ele>264.7</ele>
        <time>2022-11-30T13:25:57Z</time>
      </trkpt>
      <trkpt lat="43.52157" lon="6.28897">
        <ele>265</ele>
        <time>2022-11-30T13:26:02Z</time>
      </trkpt>
      <trkpt lat="43.52162" lon="6.28894">
        <ele>265.5</ele>
        <time>2022-11-30T13:26:06Z</time>
      </trkpt>
      <trkpt lat="43.52166" lon="6.28891">
        <ele>265.7</ele>
        <time>2022-11-30T13:26:10Z</time>
      </trkpt>
      <trkpt lat="43.52171" lon="6.28888">
        <ele>265.8</ele>
        <time>2022-11-30T13:26:14Z</time>
      </trkpt>
      <trkpt lat="43.52175" lon="6.28885">
        <ele>266.6</ele>
        <time>2022-11-30T13:26:18Z</time>
      </trkpt>
      <trkpt lat="43.52179" lon="6.2888">
        <ele>266.7</ele>
        <time>2022-11-30T13:26:22Z</time>
      </trkpt>
      <trkpt lat="43.52183" lon="6.28876">
        <ele>266.8</ele>
        <time>2022-11-30T13:26:25Z</time>
      </trkpt>
      <trkpt lat="43.52187" lon="6.28873">
        <ele>266.8</ele>
        <time>2022-11-30T13:26:29Z</time>
      </trkpt>
      <trkpt lat="43.52191" lon="6.28867">
        <ele>267.7</ele>
        <time>2022-11-30T13:26:34Z</time>
      </trkpt>
      <trkpt lat="43.52194" lon="6.28862">
        <ele>268</ele>
        <time>2022-11-30T13:26:38Z</time>
      </trkpt>
      <trkpt lat="43.52197" lon="6.28856">
        <ele>268</ele>
        <time>2022-11-30T13:26:41Z</time>
      </trkpt>
      <trkpt lat="43.52199" lon="6.2885">
        <ele>269.2</ele>
        <time>2022-11-30T13:26:45Z</time>
      </trkpt>
      <trkpt lat="43.52203" lon="6.28845">
        <ele>269.7</ele>
        <time>2022-11-30T13:26:49Z</time>
      </trkpt>
      <trkpt lat="43.52207" lon="6.2884">
        <ele>269.7</ele>
        <time>2022-11-30T13:26:54Z</time>
      </trkpt>
      <trkpt lat="43.52212" lon="6.28836">
        <ele>269.9</ele>
        <time>2022-11-30T13:27:00Z</time>
      </trkpt>
      <trkpt lat="43.52216" lon="6.28833">
        <ele>270.6</ele>
        <time>2022-11-30T13:27:05Z</time>
      </trkpt>
      <trkpt lat="43.5222" lon="6.28828">
        <ele>271.1</ele>
        <time>2022-11-30T13:27:11Z</time>
      </trkpt>
      <trkpt lat="43.52223" lon="6.28822">
        <ele>271.5</ele>
        <time>2022-11-30T13:27:17Z</time>
      </trkpt>
      <trkpt lat="43.52227" lon="6.28818">
        <ele>272.2</ele>
        <time>2022-11-30T13:27:22Z</time>
      </trkpt>
      <trkpt lat="43.52231" lon="6.28813">
        <ele>272.8</ele>
        <time>2022-11-30T13:27:28Z</time>
      </trkpt>
      <trkpt lat="43.52235" lon="6.28809">
        <ele>273.5</ele>
        <time>2022-11-30T13:27:36Z</time>
      </trkpt>
      <trkpt lat="43.5224" lon="6.28804">
        <ele>274.3</ele>
        <time>2022-11-30T13:27:43Z</time>
      </trkpt>
      <trkpt lat="43.52244" lon="6.28799">
        <ele>275.1</ele>
        <time>2022-11-30T13:27:49Z</time>
      </trkpt>
      <trkpt lat="43.52247" lon="6.28794">
        <ele>275.6</ele>
        <time>2022-11-30T13:27:53Z</time>
      </trkpt>
      <trkpt lat="43.52251" lon="6.2879">
        <ele>275.9</ele>
        <time>2022-11-30T13:27:57Z</time>
      </trkpt>
      <trkpt lat="43.52255" lon="6.28785">
        <ele>276.4</ele>
        <time>2022-11-30T13:28:02Z</time>
      </trkpt>
      <trkpt lat="43.52258" lon="6.28781">
        <ele>277.2</ele>
        <time>2022-11-30T13:28:07Z</time>
      </trkpt>
      <trkpt lat="43.52263" lon="6.28777">
        <ele>277.1</ele>
        <time>2022-11-30T13:28:13Z</time>
      </trkpt>
      <trkpt lat="43.52267" lon="6.28772">
        <ele>278.9</ele>
        <time>2022-11-30T13:28:20Z</time>
      </trkpt>
      <trkpt lat="43.52271" lon="6.28766">
        <ele>279.5</ele>
        <time>2022-11-30T13:28:25Z</time>
      </trkpt>
      <trkpt lat="43.52275" lon="6.28763">
        <ele>279.9</ele>
        <time>2022-11-30T13:28:30Z</time>
      </trkpt>
      <trkpt lat="43.52279" lon="6.2876">
        <ele>280.2</ele>
        <time>2022-11-30T13:28:36Z</time>
      </trkpt>
      <trkpt lat="43.52284" lon="6.28757">
        <ele>280.6</ele>
        <time>2022-11-30T13:28:41Z</time>
      </trkpt>
      <trkpt lat="43.52288" lon="6.28754">
        <ele>281.4</ele>
        <time>2022-11-30T13:28:47Z</time>
      </trkpt>
      <trkpt lat="43.52292" lon="6.2875">
        <ele>282.2</ele>
        <time>2022-11-30T13:28:53Z</time>
      </trkpt>
      <trkpt lat="43.52296" lon="6.28747">
        <ele>282.6</ele>
        <time>2022-11-30T13:28:58Z</time>
      </trkpt>
      <trkpt lat="43.523" lon="6.28742">
        <ele>283.2</ele>
        <time>2022-11-30T13:29:03Z</time>
      </trkpt>
      <trkpt lat="43.52303" lon="6.28738">
        <ele>283.7</ele>
        <time>2022-11-30T13:29:09Z</time>
      </trkpt>
      <trkpt lat="43.52307" lon="6.28732">
        <ele>284.1</ele>
        <time>2022-11-30T13:29:14Z</time>
      </trkpt>
      <trkpt lat="43.5231" lon="6.28727">
        <ele>284.3</ele>
        <time>2022-11-30T13:29:20Z</time>
      </trkpt>
      <trkpt lat="43.52315" lon="6.28723">
        <ele>284.9</ele>
        <time>2022-11-30T13:29:25Z</time>
      </trkpt>
      <trkpt lat="43.52319" lon="6.28716">
        <ele>285.3</ele>
        <time>2022-11-30T13:29:28Z</time>
      </trkpt>
      <trkpt lat="43.52322" lon="6.28711">
        <ele>285.8</ele>
        <time>2022-11-30T13:29:33Z</time>
      </trkpt>
      <trkpt lat="43.52326" lon="6.28707">
        <ele>285.9</ele>
        <time>2022-11-30T13:29:39Z</time>
      </trkpt>
      <trkpt lat="43.52329" lon="6.28703">
        <ele>286.6</ele>
        <time>2022-11-30T13:29:44Z</time>
      </trkpt>
      <trkpt lat="43.52334" lon="6.28699">
        <ele>287.2</ele>
        <time>2022-11-30T13:29:49Z</time>
      </trkpt>
      <trkpt lat="43.52338" lon="6.28694">
        <ele>287.9</ele>
        <time>2022-11-30T13:29:55Z</time>
      </trkpt>
      <trkpt lat="43.52341" lon="6.28688">
        <ele>288.7</ele>
        <time>2022-11-30T13:30:02Z</time>
      </trkpt>
      <trkpt lat="43.52345" lon="6.28684">
        <ele>289.2</ele>
        <time>2022-11-30T13:30:07Z</time>
      </trkpt>
      <trkpt lat="43.52348" lon="6.28679">
        <ele>289.6</ele>
        <time>2022-11-30T13:30:11Z</time>
      </trkpt>
      <trkpt lat="43.52351" lon="6.28675">
        <ele>289.5</ele>
        <time>2022-11-30T13:30:15Z</time>
      </trkpt>
      <trkpt lat="43.52354" lon="6.2867">
        <ele>289.9</ele>
        <time>2022-11-30T13:30:20Z</time>
      </trkpt>
      <trkpt lat="43.52358" lon="6.28665">
        <ele>290.7</ele>
        <time>2022-11-30T13:30:25Z</time>
      </trkpt>
      <trkpt lat="43.52359" lon="6.28659">
        <ele>291.1</ele>
        <time>2022-11-30T13:30:30Z</time>
      </trkpt>
      <trkpt lat="43.52362" lon="6.28653">
        <ele>291.2</ele>
        <time>2022-11-30T13:30:35Z</time>
      </trkpt>
      <trkpt lat="43.52366" lon="6.28648">
        <ele>291.8</ele>
        <time>2022-11-30T13:30:41Z</time>
      </trkpt>
      <trkpt lat="43.52368" lon="6.28641">
        <ele>292.4</ele>
        <time>2022-11-30T13:30:45Z</time>
      </trkpt>
      <trkpt lat="43.52371" lon="6.28635">
        <ele>292.9</ele>
        <time>2022-11-30T13:30:49Z</time>
      </trkpt>
      <trkpt lat="43.52373" lon="6.28629">
        <ele>293.3</ele>
        <time>2022-11-30T13:30:54Z</time>
      </trkpt>
      <trkpt lat="43.52376" lon="6.28624">
        <ele>293.7</ele>
        <time>2022-11-30T13:30:59Z</time>
      </trkpt>
      <trkpt lat="43.52378" lon="6.28617">
        <ele>294.1</ele>
        <time>2022-11-30T13:31:04Z</time>
      </trkpt>
      <trkpt lat="43.5238" lon="6.2861">
        <ele>294.1</ele>
        <time>2022-11-30T13:31:08Z</time>
      </trkpt>
      <trkpt lat="43.52382" lon="6.28605">
        <ele>294.6</ele>
        <time>2022-11-30T13:31:12Z</time>
      </trkpt>
      <trkpt lat="43.52385" lon="6.28597">
        <ele>295</ele>
        <time>2022-11-30T13:31:17Z</time>
      </trkpt>
      <trkpt lat="43.52387" lon="6.28591">
        <ele>295.2</ele>
        <time>2022-11-30T13:31:21Z</time>
      </trkpt>
      <trkpt lat="43.52387" lon="6.28585">
        <ele>295</ele>
        <time>2022-11-30T13:31:25Z</time>
      </trkpt>
      <trkpt lat="43.52389" lon="6.28578">
        <ele>295.1</ele>
        <time>2022-11-30T13:31:30Z</time>
      </trkpt>
      <trkpt lat="43.5239" lon="6.28572">
        <ele>294.9</ele>
        <time>2022-11-30T13:31:39Z</time>
      </trkpt>
      <trkpt lat="43.52387" lon="6.28567">
        <ele>295</ele>
        <time>2022-11-30T13:31:54Z</time>
      </trkpt>
      <trkpt lat="43.52388" lon="6.28561">
        <ele>295.3</ele>
        <time>2022-11-30T13:32:32Z</time>
      </trkpt>
      <trkpt lat="43.5239" lon="6.28555">
        <ele>295.5</ele>
        <time>2022-11-30T13:33:33Z</time>
      </trkpt>
      <trkpt lat="43.52394" lon="6.2855">
        <ele>295.7</ele>
        <time>2022-11-30T13:33:38Z</time>
      </trkpt>
      <trkpt lat="43.52395" lon="6.28544">
        <ele>294.9</ele>
        <time>2022-11-30T13:33:43Z</time>
      </trkpt>
      <trkpt lat="43.52397" lon="6.28538">
        <ele>295.1</ele>
        <time>2022-11-30T13:33:47Z</time>
      </trkpt>
      <trkpt lat="43.52399" lon="6.28531">
        <ele>295.7</ele>
        <time>2022-11-30T13:33:52Z</time>
      </trkpt>
      <trkpt lat="43.52402" lon="6.28524">
        <ele>294.2</ele>
        <time>2022-11-30T13:33:57Z</time>
      </trkpt>
      <trkpt lat="43.52403" lon="6.28517">
        <ele>294.5</ele>
        <time>2022-11-30T13:34:02Z</time>
      </trkpt>
      <trkpt lat="43.52405" lon="6.2851">
        <ele>295.3</ele>
        <time>2022-11-30T13:34:07Z</time>
      </trkpt>
      <trkpt lat="43.52407" lon="6.28504">
        <ele>294.8</ele>
        <time>2022-11-30T13:34:11Z</time>
      </trkpt>
      <trkpt lat="43.52409" lon="6.28497">
        <ele>294</ele>
        <time>2022-11-30T13:34:15Z</time>
      </trkpt>
      <trkpt lat="43.52412" lon="6.28491">
        <ele>293.9</ele>
        <time>2022-11-30T13:34:18Z</time>
      </trkpt>
      <trkpt lat="43.52413" lon="6.28483">
        <ele>293.7</ele>
        <time>2022-11-30T13:34:22Z</time>
      </trkpt>
      <trkpt lat="43.52416" lon="6.28477">
        <ele>292.4</ele>
        <time>2022-11-30T13:34:26Z</time>
      </trkpt>
      <trkpt lat="43.52418" lon="6.2847">
        <ele>291.9</ele>
        <time>2022-11-30T13:34:30Z</time>
      </trkpt>
      <trkpt lat="43.52419" lon="6.28464">
        <ele>291.4</ele>
        <time>2022-11-30T13:34:35Z</time>
      </trkpt>
      <trkpt lat="43.52422" lon="6.28457">
        <ele>290.7</ele>
        <time>2022-11-30T13:34:39Z</time>
      </trkpt>
      <trkpt lat="43.52424" lon="6.28449">
        <ele>290.8</ele>
        <time>2022-11-30T13:34:43Z</time>
      </trkpt>
      <trkpt lat="43.52427" lon="6.28443">
        <ele>290.2</ele>
        <time>2022-11-30T13:34:46Z</time>
      </trkpt>
      <trkpt lat="43.5243" lon="6.28437">
        <ele>289.8</ele>
        <time>2022-11-30T13:34:50Z</time>
      </trkpt>
      <trkpt lat="43.52433" lon="6.28431">
        <ele>290.1</ele>
        <time>2022-11-30T13:34:55Z</time>
      </trkpt>
      <trkpt lat="43.52437" lon="6.28427">
        <ele>290.3</ele>
        <time>2022-11-30T13:34:58Z</time>
      </trkpt>
      <trkpt lat="43.5244" lon="6.28422">
        <ele>290.5</ele>
        <time>2022-11-30T13:35:01Z</time>
      </trkpt>
      <trkpt lat="43.52443" lon="6.28416">
        <ele>289.7</ele>
        <time>2022-11-30T13:35:05Z</time>
      </trkpt>
      <trkpt lat="43.52446" lon="6.28411">
        <ele>289.5</ele>
        <time>2022-11-30T13:35:09Z</time>
      </trkpt>
      <trkpt lat="43.5245" lon="6.28407">
        <ele>289.5</ele>
        <time>2022-11-30T13:35:12Z</time>
      </trkpt>
      <trkpt lat="43.52454" lon="6.28401">
        <ele>289.3</ele>
        <time>2022-11-30T13:35:16Z</time>
      </trkpt>
      <trkpt lat="43.52457" lon="6.28395">
        <ele>288</ele>
        <time>2022-11-30T13:35:21Z</time>
      </trkpt>
      <trkpt lat="43.5246" lon="6.2839">
        <ele>287.2</ele>
        <time>2022-11-30T13:35:28Z</time>
      </trkpt>
      <trkpt lat="43.5246" lon="6.28384">
        <ele>286.3</ele>
        <time>2022-11-30T13:35:41Z</time>
      </trkpt>
      <trkpt lat="43.52462" lon="6.28379">
        <ele>286.7</ele>
        <time>2022-11-30T13:36:11Z</time>
      </trkpt>
      <trkpt lat="43.52464" lon="6.28373">
        <ele>285.5</ele>
        <time>2022-11-30T13:36:26Z</time>
      </trkpt>
      <trkpt lat="43.52468" lon="6.28368">
        <ele>285.4</ele>
        <time>2022-11-30T13:36:35Z</time>
      </trkpt>
      <trkpt lat="43.52471" lon="6.28361">
        <ele>285.1</ele>
        <time>2022-11-30T13:36:40Z</time>
      </trkpt>
      <trkpt lat="43.52474" lon="6.28355">
        <ele>285.7</ele>
        <time>2022-11-30T13:36:45Z</time>
      </trkpt>
      <trkpt lat="43.52477" lon="6.2835">
        <ele>284.9</ele>
        <time>2022-11-30T13:36:52Z</time>
      </trkpt>
      <trkpt lat="43.52481" lon="6.28345">
        <ele>284.4</ele>
        <time>2022-11-30T13:36:58Z</time>
      </trkpt>
      <trkpt lat="43.52485" lon="6.28341">
        <ele>284.1</ele>
        <time>2022-11-30T13:37:04Z</time>
      </trkpt>
      <trkpt lat="43.52488" lon="6.28337">
        <ele>284.7</ele>
        <time>2022-11-30T13:37:08Z</time>
      </trkpt>
      <trkpt lat="43.52493" lon="6.28335">
        <ele>284.5</ele>
        <time>2022-11-30T13:37:13Z</time>
      </trkpt>
      <trkpt lat="43.52498" lon="6.28333">
        <ele>284.4</ele>
        <time>2022-11-30T13:37:18Z</time>
      </trkpt>
      <trkpt lat="43.52502" lon="6.28332">
        <ele>284.6</ele>
        <time>2022-11-30T13:37:24Z</time>
      </trkpt>
      <trkpt lat="43.52507" lon="6.2833">
        <ele>284.3</ele>
        <time>2022-11-30T13:37:30Z</time>
      </trkpt>
      <trkpt lat="43.52512" lon="6.28327">
        <ele>284.6</ele>
        <time>2022-11-30T13:37:34Z</time>
      </trkpt>
      <trkpt lat="43.52518" lon="6.28326">
        <ele>284.3</ele>
        <time>2022-11-30T13:37:38Z</time>
      </trkpt>
      <trkpt lat="43.52523" lon="6.2832">
        <ele>283.2</ele>
        <time>2022-11-30T13:37:42Z</time>
      </trkpt>
      <trkpt lat="43.52524" lon="6.28313">
        <ele>283.5</ele>
        <time>2022-11-30T13:37:45Z</time>
      </trkpt>
      <trkpt lat="43.52526" lon="6.28306">
        <ele>284</ele>
        <time>2022-11-30T13:37:48Z</time>
      </trkpt>
      <trkpt lat="43.52526" lon="6.283">
        <ele>284</ele>
        <time>2022-11-30T13:37:51Z</time>
      </trkpt>
      <trkpt lat="43.52526" lon="6.28293">
        <ele>283.4</ele>
        <time>2022-11-30T13:37:55Z</time>
      </trkpt>
      <trkpt lat="43.52525" lon="6.28286">
        <ele>283.9</ele>
        <time>2022-11-30T13:37:59Z</time>
      </trkpt>
      <trkpt lat="43.52524" lon="6.2828">
        <ele>283.6</ele>
        <time>2022-11-30T13:38:03Z</time>
      </trkpt>
      <trkpt lat="43.52522" lon="6.28273">
        <ele>283.7</ele>
        <time>2022-11-30T13:38:09Z</time>
      </trkpt>
      <trkpt lat="43.5252" lon="6.28267">
        <ele>282.9</ele>
        <time>2022-11-30T13:38:13Z</time>
      </trkpt>
      <trkpt lat="43.52518" lon="6.28262">
        <ele>283.7</ele>
        <time>2022-11-30T13:38:17Z</time>
      </trkpt>
      <trkpt lat="43.52514" lon="6.28255">
        <ele>284.3</ele>
        <time>2022-11-30T13:38:22Z</time>
      </trkpt>
      <trkpt lat="43.52512" lon="6.2825">
        <ele>284.1</ele>
        <time>2022-11-30T13:38:26Z</time>
      </trkpt>
      <trkpt lat="43.52509" lon="6.28244">
        <ele>283.8</ele>
        <time>2022-11-30T13:38:31Z</time>
      </trkpt>
      <trkpt lat="43.5251" lon="6.28237">
        <ele>284.3</ele>
        <time>2022-11-30T13:38:36Z</time>
      </trkpt>
      <trkpt lat="43.52511" lon="6.28231">
        <ele>284.3</ele>
        <time>2022-11-30T13:38:40Z</time>
      </trkpt>
      <trkpt lat="43.52512" lon="6.28224">
        <ele>283.7</ele>
        <time>2022-11-30T13:38:44Z</time>
      </trkpt>
      <trkpt lat="43.5251" lon="6.28219">
        <ele>282.7</ele>
        <time>2022-11-30T13:38:50Z</time>
      </trkpt>
      <trkpt lat="43.52507" lon="6.28213">
        <ele>281.7</ele>
        <time>2022-11-30T13:38:59Z</time>
      </trkpt>
      <trkpt lat="43.52503" lon="6.28208">
        <ele>282</ele>
        <time>2022-11-30T13:39:02Z</time>
      </trkpt>
      <trkpt lat="43.52499" lon="6.28204">
        <ele>282.1</ele>
        <time>2022-11-30T13:39:05Z</time>
      </trkpt>
      <trkpt lat="43.52495" lon="6.28201">
        <ele>282.1</ele>
        <time>2022-11-30T13:39:09Z</time>
      </trkpt>
      <trkpt lat="43.5249" lon="6.282">
        <ele>281</ele>
        <time>2022-11-30T13:39:16Z</time>
      </trkpt>
      <trkpt lat="43.52485" lon="6.28198">
        <ele>280.8</ele>
        <time>2022-11-30T13:39:24Z</time>
      </trkpt>
      <trkpt lat="43.52481" lon="6.28195">
        <ele>280.6</ele>
        <time>2022-11-30T13:39:27Z</time>
      </trkpt>
      <trkpt lat="43.52477" lon="6.28193">
        <ele>280.3</ele>
        <time>2022-11-30T13:39:34Z</time>
      </trkpt>
      <trkpt lat="43.52472" lon="6.28189">
        <ele>279.6</ele>
        <time>2022-11-30T13:39:41Z</time>
      </trkpt>
      <trkpt lat="43.52466" lon="6.2819">
        <ele>279.6</ele>
        <time>2022-11-30T13:39:48Z</time>
      </trkpt>
      <trkpt lat="43.5246" lon="6.28189">
        <ele>280</ele>
        <time>2022-11-30T13:39:52Z</time>
      </trkpt>
      <trkpt lat="43.52456" lon="6.28188">
        <ele>279.7</ele>
        <time>2022-11-30T13:39:56Z</time>
      </trkpt>
      <trkpt lat="43.52451" lon="6.28188">
        <ele>279.1</ele>
        <time>2022-11-30T13:39:59Z</time>
      </trkpt>
      <trkpt lat="43.52446" lon="6.28189">
        <ele>278.1</ele>
        <time>2022-11-30T13:40:02Z</time>
      </trkpt>
      <trkpt lat="43.52441" lon="6.2819">
        <ele>277.7</ele>
        <time>2022-11-30T13:40:06Z</time>
      </trkpt>
      <trkpt lat="43.52436" lon="6.2819">
        <ele>277.3</ele>
        <time>2022-11-30T13:40:11Z</time>
      </trkpt>
      <trkpt lat="43.52431" lon="6.28194">
        <ele>277.3</ele>
        <time>2022-11-30T13:40:18Z</time>
      </trkpt>
      <trkpt lat="43.52426" lon="6.28195">
        <ele>276.5</ele>
        <time>2022-11-30T13:40:22Z</time>
      </trkpt>
      <trkpt lat="43.5242" lon="6.28196">
        <ele>275.1</ele>
        <time>2022-11-30T13:40:30Z</time>
      </trkpt>
      <trkpt lat="43.52415" lon="6.28196">
        <ele>274.4</ele>
        <time>2022-11-30T13:40:34Z</time>
      </trkpt>
      <trkpt lat="43.52411" lon="6.28194">
        <ele>273</ele>
        <time>2022-11-30T13:40:38Z</time>
      </trkpt>
      <trkpt lat="43.52407" lon="6.28191">
        <ele>271.5</ele>
        <time>2022-11-30T13:40:43Z</time>
      </trkpt>
      <trkpt lat="43.52403" lon="6.28185">
        <ele>271.5</ele>
        <time>2022-11-30T13:40:48Z</time>
      </trkpt>
      <trkpt lat="43.52399" lon="6.28188">
        <ele>270.5</ele>
        <time>2022-11-30T13:40:54Z</time>
      </trkpt>
      <trkpt lat="43.524" lon="6.28181">
        <ele>270</ele>
        <time>2022-11-30T13:41:12Z</time>
      </trkpt>
      <trkpt lat="43.52403" lon="6.28176">
        <ele>269.7</ele>
        <time>2022-11-30T13:41:28Z</time>
      </trkpt>
      <trkpt lat="43.52405" lon="6.2817">
        <ele>269.7</ele>
        <time>2022-11-30T13:41:41Z</time>
      </trkpt>
      <trkpt lat="43.52409" lon="6.28166">
        <ele>268.5</ele>
        <time>2022-11-30T13:41:46Z</time>
      </trkpt>
      <trkpt lat="43.52412" lon="6.28161">
        <ele>268.3</ele>
        <time>2022-11-30T13:41:50Z</time>
      </trkpt>
      <trkpt lat="43.52415" lon="6.28156">
        <ele>268.7</ele>
        <time>2022-11-30T13:41:55Z</time>
      </trkpt>
      <trkpt lat="43.52416" lon="6.28149">
        <ele>268.8</ele>
        <time>2022-11-30T13:42:07Z</time>
      </trkpt>
      <trkpt lat="43.5242" lon="6.28147">
        <ele>268.4</ele>
        <time>2022-11-30T13:42:13Z</time>
      </trkpt>
      <trkpt lat="43.52424" lon="6.28145">
        <ele>268.2</ele>
        <time>2022-11-30T13:42:26Z</time>
      </trkpt>
      <trkpt lat="43.52429" lon="6.28144">
        <ele>267.8</ele>
        <time>2022-11-30T13:42:33Z</time>
      </trkpt>
      <trkpt lat="43.52434" lon="6.28141">
        <ele>267.1</ele>
        <time>2022-11-30T13:42:39Z</time>
      </trkpt>
      <trkpt lat="43.52439" lon="6.28138">
        <ele>265.7</ele>
        <time>2022-11-30T13:42:44Z</time>
      </trkpt>
      <trkpt lat="43.52443" lon="6.28136">
        <ele>266.7</ele>
        <time>2022-11-30T13:42:50Z</time>
      </trkpt>
      <trkpt lat="43.52448" lon="6.28136">
        <ele>266.4</ele>
        <time>2022-11-30T13:42:54Z</time>
      </trkpt>
      <trkpt lat="43.52454" lon="6.28131">
        <ele>266</ele>
        <time>2022-11-30T13:42:58Z</time>
      </trkpt>
      <trkpt lat="43.52459" lon="6.28127">
        <ele>265.7</ele>
        <time>2022-11-30T13:43:02Z</time>
      </trkpt>
      <trkpt lat="43.52463" lon="6.28122">
        <ele>265.5</ele>
        <time>2022-11-30T13:43:07Z</time>
      </trkpt>
      <trkpt lat="43.52467" lon="6.28118">
        <ele>265.5</ele>
        <time>2022-11-30T13:43:10Z</time>
      </trkpt>
      <trkpt lat="43.52472" lon="6.28115">
        <ele>265.2</ele>
        <time>2022-11-30T13:43:14Z</time>
      </trkpt>
      <trkpt lat="43.52475" lon="6.28109">
        <ele>265</ele>
        <time>2022-11-30T13:43:20Z</time>
      </trkpt>
      <trkpt lat="43.52475" lon="6.28103">
        <ele>264.7</ele>
        <time>2022-11-30T13:43:29Z</time>
      </trkpt>
      <trkpt lat="43.52475" lon="6.28097">
        <ele>265.2</ele>
        <time>2022-11-30T13:43:44Z</time>
      </trkpt>
      <trkpt lat="43.52473" lon="6.28091">
        <ele>264.6</ele>
        <time>2022-11-30T13:43:58Z</time>
      </trkpt>
      <trkpt lat="43.52468" lon="6.28088">
        <ele>265.2</ele>
        <time>2022-11-30T13:44:14Z</time>
      </trkpt>
      <trkpt lat="43.52465" lon="6.28083">
        <ele>264.8</ele>
        <time>2022-11-30T13:44:28Z</time>
      </trkpt>
      <trkpt lat="43.52462" lon="6.28079">
        <ele>265</ele>
        <time>2022-11-30T13:45:24Z</time>
      </trkpt>
      <trkpt lat="43.52457" lon="6.28078">
        <ele>264.2</ele>
        <time>2022-11-30T13:45:57Z</time>
      </trkpt>
      <trkpt lat="43.52454" lon="6.28073">
        <ele>263.9</ele>
        <time>2022-11-30T13:46:16Z</time>
      </trkpt>
      <trkpt lat="43.5245" lon="6.28069">
        <ele>263.1</ele>
        <time>2022-11-30T13:46:24Z</time>
      </trkpt>
      <trkpt lat="43.52445" lon="6.28065">
        <ele>261.8</ele>
        <time>2022-11-30T13:46:31Z</time>
      </trkpt>
      <trkpt lat="43.52441" lon="6.2806">
        <ele>260.7</ele>
        <time>2022-11-30T13:46:37Z</time>
      </trkpt>
      <trkpt lat="43.52437" lon="6.28055">
        <ele>260.9</ele>
        <time>2022-11-30T13:46:42Z</time>
      </trkpt>
      <trkpt lat="43.52434" lon="6.28051">
        <ele>259.8</ele>
        <time>2022-11-30T13:46:47Z</time>
      </trkpt>
      <trkpt lat="43.5243" lon="6.28046">
        <ele>259.1</ele>
        <time>2022-11-30T13:46:53Z</time>
      </trkpt>
      <trkpt lat="43.52426" lon="6.28042">
        <ele>259.2</ele>
        <time>2022-11-30T13:46:58Z</time>
      </trkpt>
      <trkpt lat="43.52422" lon="6.28037">
        <ele>258.3</ele>
        <time>2022-11-30T13:47:03Z</time>
      </trkpt>
      <trkpt lat="43.52419" lon="6.28033">
        <ele>258.1</ele>
        <time>2022-11-30T13:47:16Z</time>
      </trkpt>
      <trkpt lat="43.52414" lon="6.28028">
        <ele>258.5</ele>
        <time>2022-11-30T13:47:20Z</time>
      </trkpt>
      <trkpt lat="43.52411" lon="6.28023">
        <ele>258</ele>
        <time>2022-11-30T13:47:24Z</time>
      </trkpt>
      <trkpt lat="43.52407" lon="6.28019">
        <ele>257.1</ele>
        <time>2022-11-30T13:47:28Z</time>
      </trkpt>
      <trkpt lat="43.52404" lon="6.28014">
        <ele>257.1</ele>
        <time>2022-11-30T13:47:33Z</time>
      </trkpt>
      <trkpt lat="43.52401" lon="6.28009">
        <ele>255.3</ele>
        <time>2022-11-30T13:47:39Z</time>
      </trkpt>
      <trkpt lat="43.52397" lon="6.28005">
        <ele>255.3</ele>
        <time>2022-11-30T13:47:44Z</time>
      </trkpt>
      <trkpt lat="43.52393" lon="6.28">
        <ele>255.1</ele>
        <time>2022-11-30T13:47:49Z</time>
      </trkpt>
      <trkpt lat="43.5239" lon="6.27995">
        <ele>253.7</ele>
        <time>2022-11-30T13:47:54Z</time>
      </trkpt>
      <trkpt lat="43.52386" lon="6.27992">
        <ele>254</ele>
        <time>2022-11-30T13:47:58Z</time>
      </trkpt>
      <trkpt lat="43.52382" lon="6.27987">
        <ele>254.2</ele>
        <time>2022-11-30T13:48:03Z</time>
      </trkpt>
      <trkpt lat="43.52379" lon="6.27983">
        <ele>253.9</ele>
        <time>2022-11-30T13:48:06Z</time>
      </trkpt>
      <trkpt lat="43.52374" lon="6.27978">
        <ele>253.2</ele>
        <time>2022-11-30T13:48:11Z</time>
      </trkpt>
      <trkpt lat="43.5237" lon="6.27974">
        <ele>252.8</ele>
        <time>2022-11-30T13:48:15Z</time>
      </trkpt>
      <trkpt lat="43.52365" lon="6.27969">
        <ele>253.2</ele>
        <time>2022-11-30T13:48:20Z</time>
      </trkpt>
      <trkpt lat="43.52361" lon="6.27966">
        <ele>253.6</ele>
        <time>2022-11-30T13:48:23Z</time>
      </trkpt>
      <trkpt lat="43.52357" lon="6.2796">
        <ele>253.3</ele>
        <time>2022-11-30T13:48:28Z</time>
      </trkpt>
      <trkpt lat="43.52354" lon="6.27954">
        <ele>252</ele>
        <time>2022-11-30T13:48:32Z</time>
      </trkpt>
      <trkpt lat="43.52351" lon="6.27949">
        <ele>252.2</ele>
        <time>2022-11-30T13:48:36Z</time>
      </trkpt>
      <trkpt lat="43.52348" lon="6.27945">
        <ele>252.3</ele>
        <time>2022-11-30T13:48:40Z</time>
      </trkpt>
      <trkpt lat="43.52344" lon="6.27939">
        <ele>251.8</ele>
        <time>2022-11-30T13:48:49Z</time>
      </trkpt>
      <trkpt lat="43.52341" lon="6.27934">
        <ele>251.9</ele>
        <time>2022-11-30T13:48:53Z</time>
      </trkpt>
      <trkpt lat="43.52338" lon="6.27928">
        <ele>252</ele>
        <time>2022-11-30T13:48:57Z</time>
      </trkpt>
      <trkpt lat="43.52335" lon="6.27923">
        <ele>252.1</ele>
        <time>2022-11-30T13:49:01Z</time>
      </trkpt>
      <trkpt lat="43.5233" lon="6.27918">
        <ele>251.6</ele>
        <time>2022-11-30T13:49:05Z</time>
      </trkpt>
      <trkpt lat="43.52326" lon="6.27913">
        <ele>251.6</ele>
        <time>2022-11-30T13:49:09Z</time>
      </trkpt>
      <trkpt lat="43.52323" lon="6.27908">
        <ele>251.5</ele>
        <time>2022-11-30T13:49:20Z</time>
      </trkpt>
      <trkpt lat="43.5232" lon="6.27901">
        <ele>251.7</ele>
        <time>2022-11-30T13:49:24Z</time>
      </trkpt>
      <trkpt lat="43.52316" lon="6.27896">
        <ele>251.2</ele>
        <time>2022-11-30T13:49:27Z</time>
      </trkpt>
      <trkpt lat="43.52312" lon="6.27892">
        <ele>250.3</ele>
        <time>2022-11-30T13:49:31Z</time>
      </trkpt>
      <trkpt lat="43.52309" lon="6.27886">
        <ele>250.8</ele>
        <time>2022-11-30T13:49:35Z</time>
      </trkpt>
      <trkpt lat="43.52305" lon="6.27881">
        <ele>251.1</ele>
        <time>2022-11-30T13:49:38Z</time>
      </trkpt>
      <trkpt lat="43.52303" lon="6.27876">
        <ele>250.5</ele>
        <time>2022-11-30T13:49:42Z</time>
      </trkpt>
      <trkpt lat="43.52301" lon="6.2787">
        <ele>250.5</ele>
        <time>2022-11-30T13:49:45Z</time>
      </trkpt>
      <trkpt lat="43.52298" lon="6.27864">
        <ele>250</ele>
        <time>2022-11-30T13:49:49Z</time>
      </trkpt>
      <trkpt lat="43.52295" lon="6.27859">
        <ele>249.5</ele>
        <time>2022-11-30T13:49:53Z</time>
      </trkpt>
      <trkpt lat="43.52291" lon="6.27856">
        <ele>249.5</ele>
        <time>2022-11-30T13:49:58Z</time>
      </trkpt>
      <trkpt lat="43.52287" lon="6.2785">
        <ele>249.3</ele>
        <time>2022-11-30T13:50:19Z</time>
      </trkpt>
      <trkpt lat="43.52284" lon="6.27845">
        <ele>250.1</ele>
        <time>2022-11-30T13:50:23Z</time>
      </trkpt>
      <trkpt lat="43.52282" lon="6.27839">
        <ele>249.9</ele>
        <time>2022-11-30T13:50:27Z</time>
      </trkpt>
      <trkpt lat="43.52282" lon="6.27832">
        <ele>249.7</ele>
        <time>2022-11-30T13:50:31Z</time>
      </trkpt>
      <trkpt lat="43.5228" lon="6.27826">
        <ele>249.9</ele>
        <time>2022-11-30T13:50:35Z</time>
      </trkpt>
      <trkpt lat="43.52281" lon="6.27819">
        <ele>249.6</ele>
        <time>2022-11-30T13:50:39Z</time>
      </trkpt>
      <trkpt lat="43.52282" lon="6.27812">
        <ele>249.8</ele>
        <time>2022-11-30T13:50:44Z</time>
      </trkpt>
      <trkpt lat="43.52281" lon="6.27805">
        <ele>250.3</ele>
        <time>2022-11-30T13:50:49Z</time>
      </trkpt>
      <trkpt lat="43.52278" lon="6.27799">
        <ele>250.3</ele>
        <time>2022-11-30T13:50:53Z</time>
      </trkpt>
      <trkpt lat="43.52277" lon="6.27793">
        <ele>250.3</ele>
        <time>2022-11-30T13:50:57Z</time>
      </trkpt>
      <trkpt lat="43.52276" lon="6.27787">
        <ele>249.4</ele>
        <time>2022-11-30T13:51:01Z</time>
      </trkpt>
      <trkpt lat="43.52274" lon="6.2778">
        <ele>249.4</ele>
        <time>2022-11-30T13:51:05Z</time>
      </trkpt>
      <trkpt lat="43.52272" lon="6.27773">
        <ele>249.9</ele>
        <time>2022-11-30T13:51:09Z</time>
      </trkpt>
      <trkpt lat="43.5227" lon="6.27766">
        <ele>249.8</ele>
        <time>2022-11-30T13:51:13Z</time>
      </trkpt>
      <trkpt lat="43.52269" lon="6.27759">
        <ele>249.8</ele>
        <time>2022-11-30T13:51:17Z</time>
      </trkpt>
      <trkpt lat="43.52267" lon="6.27752">
        <ele>250.3</ele>
        <time>2022-11-30T13:51:22Z</time>
      </trkpt>
      <trkpt lat="43.52266" lon="6.27745">
        <ele>249.7</ele>
        <time>2022-11-30T13:51:26Z</time>
      </trkpt>
      <trkpt lat="43.52265" lon="6.27738">
        <ele>250.3</ele>
        <time>2022-11-30T13:51:30Z</time>
      </trkpt>
      <trkpt lat="43.52262" lon="6.27731">
        <ele>250.8</ele>
        <time>2022-11-30T13:51:34Z</time>
      </trkpt>
      <trkpt lat="43.5226" lon="6.27725">
        <ele>251.4</ele>
        <time>2022-11-30T13:51:38Z</time>
      </trkpt>
      <trkpt lat="43.52257" lon="6.27718">
        <ele>251.6</ele>
        <time>2022-11-30T13:51:42Z</time>
      </trkpt>
      <trkpt lat="43.52256" lon="6.27711">
        <ele>251.5</ele>
        <time>2022-11-30T13:51:46Z</time>
      </trkpt>
      <trkpt lat="43.52254" lon="6.27705">
        <ele>251.8</ele>
        <time>2022-11-30T13:51:50Z</time>
      </trkpt>
      <trkpt lat="43.52251" lon="6.277">
        <ele>252.3</ele>
        <time>2022-11-30T13:51:54Z</time>
      </trkpt>
      <trkpt lat="43.5225" lon="6.27694">
        <ele>253</ele>
        <time>2022-11-30T13:52:00Z</time>
      </trkpt>
      <trkpt lat="43.52249" lon="6.27688">
        <ele>253</ele>
        <time>2022-11-30T13:52:04Z</time>
      </trkpt>
      <trkpt lat="43.52248" lon="6.27681">
        <ele>252.9</ele>
        <time>2022-11-30T13:52:08Z</time>
      </trkpt>
      <trkpt lat="43.52245" lon="6.27675">
        <ele>253</ele>
        <time>2022-11-30T13:52:12Z</time>
      </trkpt>
      <trkpt lat="43.52243" lon="6.27669">
        <ele>254</ele>
        <time>2022-11-30T13:52:42Z</time>
      </trkpt>
      <trkpt lat="43.52241" lon="6.27663">
        <ele>253.4</ele>
        <time>2022-11-30T13:52:50Z</time>
      </trkpt>
      <trkpt lat="43.52237" lon="6.2766">
        <ele>253.6</ele>
        <time>2022-11-30T13:52:57Z</time>
      </trkpt>
      <trkpt lat="43.52233" lon="6.27656">
        <ele>253.9</ele>
        <time>2022-11-30T13:53:14Z</time>
      </trkpt>
      <trkpt lat="43.52232" lon="6.2765">
        <ele>253.9</ele>
        <time>2022-11-30T13:53:30Z</time>
      </trkpt>
      <trkpt lat="43.52227" lon="6.27651">
        <ele>255.1</ele>
        <time>2022-11-30T13:54:11Z</time>
      </trkpt>
      <trkpt lat="43.52223" lon="6.27652">
        <ele>254.6</ele>
        <time>2022-11-30T13:55:07Z</time>
      </trkpt>
      <trkpt lat="43.52219" lon="6.27648">
        <ele>254.5</ele>
        <time>2022-11-30T13:55:20Z</time>
      </trkpt>
      <trkpt lat="43.52219" lon="6.27642">
        <ele>255.3</ele>
        <time>2022-11-30T13:55:33Z</time>
      </trkpt>
      <trkpt lat="43.52219" lon="6.27635">
        <ele>256.3</ele>
        <time>2022-11-30T13:55:41Z</time>
      </trkpt>
      <trkpt lat="43.52218" lon="6.27628">
        <ele>257.3</ele>
        <time>2022-11-30T13:55:52Z</time>
      </trkpt>
      <trkpt lat="43.52217" lon="6.27622">
        <ele>258.1</ele>
        <time>2022-11-30T13:55:57Z</time>
      </trkpt>
      <trkpt lat="43.52216" lon="6.27615">
        <ele>258.9</ele>
        <time>2022-11-30T13:56:03Z</time>
      </trkpt>
      <trkpt lat="43.52215" lon="6.27609">
        <ele>259.3</ele>
        <time>2022-11-30T13:56:09Z</time>
      </trkpt>
      <trkpt lat="43.52213" lon="6.27603">
        <ele>260.3</ele>
        <time>2022-11-30T13:56:13Z</time>
      </trkpt>
      <trkpt lat="43.52213" lon="6.27596">
        <ele>261.4</ele>
        <time>2022-11-30T13:56:21Z</time>
      </trkpt>
      <trkpt lat="43.52213" lon="6.27589">
        <ele>263</ele>
        <time>2022-11-30T13:56:29Z</time>
      </trkpt>
      <trkpt lat="43.52211" lon="6.27582">
        <ele>263.8</ele>
        <time>2022-11-30T13:56:37Z</time>
      </trkpt>
      <trkpt lat="43.52209" lon="6.27576">
        <ele>264.6</ele>
        <time>2022-11-30T13:56:44Z</time>
      </trkpt>
      <trkpt lat="43.52207" lon="6.2757">
        <ele>265.3</ele>
        <time>2022-11-30T13:56:50Z</time>
      </trkpt>
      <trkpt lat="43.52204" lon="6.27563">
        <ele>266.2</ele>
        <time>2022-11-30T13:56:54Z</time>
      </trkpt>
      <trkpt lat="43.52203" lon="6.27555">
        <ele>267</ele>
        <time>2022-11-30T13:56:58Z</time>
      </trkpt>
      <trkpt lat="43.52201" lon="6.2755">
        <ele>267.5</ele>
        <time>2022-11-30T13:57:03Z</time>
      </trkpt>
      <trkpt lat="43.52199" lon="6.27544">
        <ele>268.3</ele>
        <time>2022-11-30T13:57:09Z</time>
      </trkpt>
      <trkpt lat="43.52196" lon="6.27538">
        <ele>268.8</ele>
        <time>2022-11-30T13:57:13Z</time>
      </trkpt>
      <trkpt lat="43.52192" lon="6.27533">
        <ele>269.5</ele>
        <time>2022-11-30T13:57:19Z</time>
      </trkpt>
      <trkpt lat="43.52189" lon="6.27528">
        <ele>270</ele>
        <time>2022-11-30T13:57:26Z</time>
      </trkpt>
      <trkpt lat="43.52186" lon="6.27523">
        <ele>271.2</ele>
        <time>2022-11-30T13:57:31Z</time>
      </trkpt>
      <trkpt lat="43.52184" lon="6.27517">
        <ele>272.2</ele>
        <time>2022-11-30T13:57:39Z</time>
      </trkpt>
      <trkpt lat="43.5218" lon="6.27513">
        <ele>273.3</ele>
        <time>2022-11-30T13:57:45Z</time>
      </trkpt>
      <trkpt lat="43.52177" lon="6.27506">
        <ele>274</ele>
        <time>2022-11-30T13:57:53Z</time>
      </trkpt>
      <trkpt lat="43.52174" lon="6.275">
        <ele>274.3</ele>
        <time>2022-11-30T13:57:59Z</time>
      </trkpt>
      <trkpt lat="43.52173" lon="6.27493">
        <ele>275.3</ele>
        <time>2022-11-30T13:58:04Z</time>
      </trkpt>
      <trkpt lat="43.52169" lon="6.27488">
        <ele>276.6</ele>
        <time>2022-11-30T13:58:08Z</time>
      </trkpt>
      <trkpt lat="43.52167" lon="6.27482">
        <ele>277.1</ele>
        <time>2022-11-30T13:58:14Z</time>
      </trkpt>
      <trkpt lat="43.52163" lon="6.2748">
        <ele>278.3</ele>
        <time>2022-11-30T13:58:21Z</time>
      </trkpt>
      <trkpt lat="43.52161" lon="6.27473">
        <ele>279.1</ele>
        <time>2022-11-30T13:58:27Z</time>
      </trkpt>
      <trkpt lat="43.52156" lon="6.27468">
        <ele>279.3</ele>
        <time>2022-11-30T13:58:32Z</time>
      </trkpt>
      <trkpt lat="43.52151" lon="6.27465">
        <ele>280.2</ele>
        <time>2022-11-30T13:58:37Z</time>
      </trkpt>
      <trkpt lat="43.52148" lon="6.27461">
        <ele>281.3</ele>
        <time>2022-11-30T13:58:42Z</time>
      </trkpt>
      <trkpt lat="43.52144" lon="6.27457">
        <ele>282</ele>
        <time>2022-11-30T13:58:48Z</time>
      </trkpt>
      <trkpt lat="43.52142" lon="6.2745">
        <ele>283.2</ele>
        <time>2022-11-30T13:58:56Z</time>
      </trkpt>
      <trkpt lat="43.52141" lon="6.27444">
        <ele>284.4</ele>
        <time>2022-11-30T13:59:03Z</time>
      </trkpt>
      <trkpt lat="43.52141" lon="6.27437">
        <ele>285.3</ele>
        <time>2022-11-30T13:59:09Z</time>
      </trkpt>
      <trkpt lat="43.52142" lon="6.2743">
        <ele>286.4</ele>
        <time>2022-11-30T13:59:15Z</time>
      </trkpt>
      <trkpt lat="43.52142" lon="6.27421">
        <ele>287.6</ele>
        <time>2022-11-30T13:59:23Z</time>
      </trkpt>
      <trkpt lat="43.52143" lon="6.27415">
        <ele>288.7</ele>
        <time>2022-11-30T13:59:28Z</time>
      </trkpt>
      <trkpt lat="43.52143" lon="6.27408">
        <ele>288.9</ele>
        <time>2022-11-30T13:59:34Z</time>
      </trkpt>
      <trkpt lat="43.52142" lon="6.27402">
        <ele>290.3</ele>
        <time>2022-11-30T13:59:41Z</time>
      </trkpt>
      <trkpt lat="43.5214" lon="6.27396">
        <ele>290.4</ele>
        <time>2022-11-30T13:59:46Z</time>
      </trkpt>
      <trkpt lat="43.52138" lon="6.27389">
        <ele>291</ele>
        <time>2022-11-30T13:59:52Z</time>
      </trkpt>
      <trkpt lat="43.52138" lon="6.27382">
        <ele>291.7</ele>
        <time>2022-11-30T13:59:57Z</time>
      </trkpt>
      <trkpt lat="43.52138" lon="6.27375">
        <ele>292.5</ele>
        <time>2022-11-30T14:00:01Z</time>
      </trkpt>
      <trkpt lat="43.52137" lon="6.27369">
        <ele>292.9</ele>
        <time>2022-11-30T14:00:07Z</time>
      </trkpt>
      <trkpt lat="43.52138" lon="6.27362">
        <ele>293.4</ele>
        <time>2022-11-30T14:00:10Z</time>
      </trkpt>
      <trkpt lat="43.52138" lon="6.27356">
        <ele>293.9</ele>
        <time>2022-11-30T14:00:15Z</time>
      </trkpt>
      <trkpt lat="43.52137" lon="6.27348">
        <ele>294.8</ele>
        <time>2022-11-30T14:00:20Z</time>
      </trkpt>
      <trkpt lat="43.52138" lon="6.27341">
        <ele>295.1</ele>
        <time>2022-11-30T14:00:25Z</time>
      </trkpt>
      <trkpt lat="43.52137" lon="6.27335">
        <ele>295.6</ele>
        <time>2022-11-30T14:00:29Z</time>
      </trkpt>
      <trkpt lat="43.52139" lon="6.27328">
        <ele>296</ele>
        <time>2022-11-30T14:00:34Z</time>
      </trkpt>
      <trkpt lat="43.5214" lon="6.27322">
        <ele>296.7</ele>
        <time>2022-11-30T14:00:38Z</time>
      </trkpt>
      <trkpt lat="43.52141" lon="6.27316">
        <ele>297.5</ele>
        <time>2022-11-30T14:00:43Z</time>
      </trkpt>
      <trkpt lat="43.52142" lon="6.27309">
        <ele>297.5</ele>
        <time>2022-11-30T14:00:47Z</time>
      </trkpt>
      <trkpt lat="43.52143" lon="6.27303">
        <ele>297.7</ele>
        <time>2022-11-30T14:00:50Z</time>
      </trkpt>
      <trkpt lat="43.52138" lon="6.27301">
        <ele>297.9</ele>
        <time>2022-11-30T14:00:55Z</time>
      </trkpt>
      <trkpt lat="43.52132" lon="6.27299">
        <ele>298.3</ele>
        <time>2022-11-30T14:01:04Z</time>
      </trkpt>
      <trkpt lat="43.52128" lon="6.273">
        <ele>298.1</ele>
        <time>2022-11-30T14:01:10Z</time>
      </trkpt>
      <trkpt lat="43.52124" lon="6.27303">
        <ele>297.7</ele>
        <time>2022-11-30T14:01:38Z</time>
      </trkpt>
      <trkpt lat="43.5212" lon="6.27306">
        <ele>298.1</ele>
        <time>2022-11-30T14:02:15Z</time>
      </trkpt>
      <trkpt lat="43.52115" lon="6.27307">
        <ele>297.9</ele>
        <time>2022-11-30T14:02:41Z</time>
      </trkpt>
      <trkpt lat="43.52112" lon="6.2731">
        <ele>297.9</ele>
        <time>2022-11-30T14:03:48Z</time>
      </trkpt>
      <trkpt lat="43.52112" lon="6.27304">
        <ele>298</ele>
        <time>2022-11-30T14:05:11Z</time>
      </trkpt>
      <trkpt lat="43.52116" lon="6.27301">
        <ele>297.8</ele>
        <time>2022-11-30T14:05:17Z</time>
      </trkpt>
      <trkpt lat="43.52121" lon="6.273">
        <ele>298</ele>
        <time>2022-11-30T14:05:26Z</time>
      </trkpt>
      <trkpt lat="43.52125" lon="6.27297">
        <ele>298.2</ele>
        <time>2022-11-30T14:05:33Z</time>
      </trkpt>
      <trkpt lat="43.52129" lon="6.27292">
        <ele>298.5</ele>
        <time>2022-11-30T14:05:38Z</time>
      </trkpt>
      <trkpt lat="43.52132" lon="6.27286">
        <ele>299</ele>
        <time>2022-11-30T14:05:45Z</time>
      </trkpt>
      <trkpt lat="43.52135" lon="6.2728">
        <ele>298.9</ele>
        <time>2022-11-30T14:05:50Z</time>
      </trkpt>
      <trkpt lat="43.52136" lon="6.27272">
        <ele>299.3</ele>
        <time>2022-11-30T14:05:56Z</time>
      </trkpt>
      <trkpt lat="43.52137" lon="6.27266">
        <ele>299.4</ele>
        <time>2022-11-30T14:06:01Z</time>
      </trkpt>
      <trkpt lat="43.52136" lon="6.2726">
        <ele>300</ele>
        <time>2022-11-30T14:06:08Z</time>
      </trkpt>
      <trkpt lat="43.52137" lon="6.27253">
        <ele>299.9</ele>
        <time>2022-11-30T14:06:16Z</time>
      </trkpt>
      <trkpt lat="43.52136" lon="6.27246">
        <ele>300.8</ele>
        <time>2022-11-30T14:06:25Z</time>
      </trkpt>
      <trkpt lat="43.52133" lon="6.27241">
        <ele>300.9</ele>
        <time>2022-11-30T14:06:29Z</time>
      </trkpt>
      <trkpt lat="43.52129" lon="6.27236">
        <ele>301</ele>
        <time>2022-11-30T14:06:33Z</time>
      </trkpt>
      <trkpt lat="43.52123" lon="6.27232">
        <ele>301.5</ele>
        <time>2022-11-30T14:06:37Z</time>
      </trkpt>
      <trkpt lat="43.5212" lon="6.27227">
        <ele>301.8</ele>
        <time>2022-11-30T14:06:41Z</time>
      </trkpt>
      <trkpt lat="43.52116" lon="6.27222">
        <ele>302.1</ele>
        <time>2022-11-30T14:06:45Z</time>
      </trkpt>
      <trkpt lat="43.52113" lon="6.27217">
        <ele>302.6</ele>
        <time>2022-11-30T14:06:50Z</time>
      </trkpt>
      <trkpt lat="43.52109" lon="6.27213">
        <ele>302.4</ele>
        <time>2022-11-30T14:06:54Z</time>
      </trkpt>
      <trkpt lat="43.52105" lon="6.2721">
        <ele>302.8</ele>
        <time>2022-11-30T14:06:57Z</time>
      </trkpt>
      <trkpt lat="43.52103" lon="6.27204">
        <ele>302.9</ele>
        <time>2022-11-30T14:07:01Z</time>
      </trkpt>
      <trkpt lat="43.521" lon="6.27198">
        <ele>303.4</ele>
        <time>2022-11-30T14:07:06Z</time>
      </trkpt>
      <trkpt lat="43.52097" lon="6.27193">
        <ele>303.8</ele>
        <time>2022-11-30T14:07:10Z</time>
      </trkpt>
      <trkpt lat="43.52095" lon="6.27188">
        <ele>303.6</ele>
        <time>2022-11-30T14:07:15Z</time>
      </trkpt>
      <trkpt lat="43.52093" lon="6.27181">
        <ele>304.1</ele>
        <time>2022-11-30T14:07:20Z</time>
      </trkpt>
      <trkpt lat="43.5209" lon="6.27176">
        <ele>304.6</ele>
        <time>2022-11-30T14:07:25Z</time>
      </trkpt>
      <trkpt lat="43.52086" lon="6.27173">
        <ele>304.8</ele>
        <time>2022-11-30T14:07:29Z</time>
      </trkpt>
      <trkpt lat="43.52084" lon="6.27166">
        <ele>305</ele>
        <time>2022-11-30T14:07:33Z</time>
      </trkpt>
      <trkpt lat="43.52081" lon="6.27161">
        <ele>305.4</ele>
        <time>2022-11-30T14:07:46Z</time>
      </trkpt>
      <trkpt lat="43.52076" lon="6.27159">
        <ele>305.8</ele>
        <time>2022-11-30T14:08:09Z</time>
      </trkpt>
      <trkpt lat="43.52072" lon="6.27158">
        <ele>306.1</ele>
        <time>2022-11-30T14:08:56Z</time>
      </trkpt>
      <trkpt lat="43.52067" lon="6.27157">
        <ele>305.8</ele>
        <time>2022-11-30T14:09:34Z</time>
      </trkpt>
      <trkpt lat="43.52063" lon="6.27154">
        <ele>305.6</ele>
        <time>2022-11-30T14:09:50Z</time>
      </trkpt>
      <trkpt lat="43.52059" lon="6.27152">
        <ele>305.9</ele>
        <time>2022-11-30T14:09:55Z</time>
      </trkpt>
      <trkpt lat="43.52054" lon="6.27155">
        <ele>305.6</ele>
        <time>2022-11-30T14:10:02Z</time>
      </trkpt>
      <trkpt lat="43.5205" lon="6.27157">
        <ele>305.8</ele>
        <time>2022-11-30T14:10:07Z</time>
      </trkpt>
      <trkpt lat="43.52045" lon="6.27159">
        <ele>305.7</ele>
        <time>2022-11-30T14:10:13Z</time>
      </trkpt>
      <trkpt lat="43.5204" lon="6.27159">
        <ele>305</ele>
        <time>2022-11-30T14:10:17Z</time>
      </trkpt>
      <trkpt lat="43.52035" lon="6.27161">
        <ele>304</ele>
        <time>2022-11-30T14:10:22Z</time>
      </trkpt>
      <trkpt lat="43.52031" lon="6.27165">
        <ele>305</ele>
        <time>2022-11-30T14:10:27Z</time>
      </trkpt>
      <trkpt lat="43.52027" lon="6.27169">
        <ele>305</ele>
        <time>2022-11-30T14:10:31Z</time>
      </trkpt>
      <trkpt lat="43.52023" lon="6.27173">
        <ele>304.7</ele>
        <time>2022-11-30T14:10:37Z</time>
      </trkpt>
      <trkpt lat="43.52019" lon="6.27177">
        <ele>303.9</ele>
        <time>2022-11-30T14:10:41Z</time>
      </trkpt>
      <trkpt lat="43.52015" lon="6.27181">
        <ele>303.9</ele>
        <time>2022-11-30T14:10:45Z</time>
      </trkpt>
      <trkpt lat="43.52012" lon="6.27186">
        <ele>304.3</ele>
        <time>2022-11-30T14:10:48Z</time>
      </trkpt>
      <trkpt lat="43.52008" lon="6.27191">
        <ele>304.6</ele>
        <time>2022-11-30T14:10:51Z</time>
      </trkpt>
      <trkpt lat="43.52005" lon="6.27197">
        <ele>304.5</ele>
        <time>2022-11-30T14:10:55Z</time>
      </trkpt>
      <trkpt lat="43.52001" lon="6.27203">
        <ele>304.3</ele>
        <time>2022-11-30T14:10:59Z</time>
      </trkpt>
      <trkpt lat="43.51998" lon="6.27209">
        <ele>304.4</ele>
        <time>2022-11-30T14:11:02Z</time>
      </trkpt>
      <trkpt lat="43.51995" lon="6.27214">
        <ele>304.4</ele>
        <time>2022-11-30T14:11:05Z</time>
      </trkpt>
      <trkpt lat="43.51992" lon="6.27219">
        <ele>304.7</ele>
        <time>2022-11-30T14:11:08Z</time>
      </trkpt>
      <trkpt lat="43.51988" lon="6.27224">
        <ele>303.7</ele>
        <time>2022-11-30T14:11:14Z</time>
      </trkpt>
      <trkpt lat="43.51984" lon="6.27228">
        <ele>303.2</ele>
        <time>2022-11-30T14:11:19Z</time>
      </trkpt>
      <trkpt lat="43.51981" lon="6.27233">
        <ele>303.9</ele>
        <time>2022-11-30T14:11:23Z</time>
      </trkpt>
      <trkpt lat="43.51977" lon="6.27237">
        <ele>303.8</ele>
        <time>2022-11-30T14:11:27Z</time>
      </trkpt>
      <trkpt lat="43.51973" lon="6.27242">
        <ele>303.6</ele>
        <time>2022-11-30T14:11:32Z</time>
      </trkpt>
      <trkpt lat="43.51968" lon="6.27247">
        <ele>303.7</ele>
        <time>2022-11-30T14:11:35Z</time>
      </trkpt>
      <trkpt lat="43.51963" lon="6.27251">
        <ele>303.6</ele>
        <time>2022-11-30T14:11:38Z</time>
      </trkpt>
      <trkpt lat="43.51959" lon="6.27256">
        <ele>303.1</ele>
        <time>2022-11-30T14:11:42Z</time>
      </trkpt>
      <trkpt lat="43.51956" lon="6.2726">
        <ele>301.6</ele>
        <time>2022-11-30T14:11:48Z</time>
      </trkpt>
      <trkpt lat="43.51951" lon="6.27265">
        <ele>302</ele>
        <time>2022-11-30T14:11:55Z</time>
      </trkpt>
      <trkpt lat="43.51947" lon="6.27269">
        <ele>301.6</ele>
        <time>2022-11-30T14:11:58Z</time>
      </trkpt>
      <trkpt lat="43.51942" lon="6.27273">
        <ele>301.8</ele>
        <time>2022-11-30T14:12:01Z</time>
      </trkpt>
      <trkpt lat="43.51937" lon="6.27275">
        <ele>301.4</ele>
        <time>2022-11-30T14:12:05Z</time>
      </trkpt>
      <trkpt lat="43.51932" lon="6.27278">
        <ele>301.6</ele>
        <time>2022-11-30T14:12:09Z</time>
      </trkpt>
      <trkpt lat="43.51927" lon="6.27281">
        <ele>301.4</ele>
        <time>2022-11-30T14:12:13Z</time>
      </trkpt>
      <trkpt lat="43.51923" lon="6.27284">
        <ele>302.2</ele>
        <time>2022-11-30T14:12:17Z</time>
      </trkpt>
      <trkpt lat="43.51919" lon="6.27287">
        <ele>301.8</ele>
        <time>2022-11-30T14:12:21Z</time>
      </trkpt>
      <trkpt lat="43.51914" lon="6.27289">
        <ele>301.7</ele>
        <time>2022-11-30T14:12:25Z</time>
      </trkpt>
      <trkpt lat="43.51909" lon="6.27291">
        <ele>302.2</ele>
        <time>2022-11-30T14:12:29Z</time>
      </trkpt>
      <trkpt lat="43.51905" lon="6.27294">
        <ele>302.7</ele>
        <time>2022-11-30T14:12:32Z</time>
      </trkpt>
      <trkpt lat="43.51901" lon="6.27297">
        <ele>301.6</ele>
        <time>2022-11-30T14:12:37Z</time>
      </trkpt>
      <trkpt lat="43.51896" lon="6.273">
        <ele>302.1</ele>
        <time>2022-11-30T14:12:42Z</time>
      </trkpt>
      <trkpt lat="43.51892" lon="6.27304">
        <ele>302.8</ele>
        <time>2022-11-30T14:12:47Z</time>
      </trkpt>
      <trkpt lat="43.51888" lon="6.27307">
        <ele>302.9</ele>
        <time>2022-11-30T14:12:50Z</time>
      </trkpt>
      <trkpt lat="43.51883" lon="6.27311">
        <ele>302.7</ele>
        <time>2022-11-30T14:12:54Z</time>
      </trkpt>
      <trkpt lat="43.51878" lon="6.27314">
        <ele>302.4</ele>
        <time>2022-11-30T14:12:59Z</time>
      </trkpt>
      <trkpt lat="43.51874" lon="6.27317">
        <ele>302.8</ele>
        <time>2022-11-30T14:13:02Z</time>
      </trkpt>
      <trkpt lat="43.51869" lon="6.2732">
        <ele>302.9</ele>
        <time>2022-11-30T14:13:06Z</time>
      </trkpt>
      <trkpt lat="43.51865" lon="6.27325">
        <ele>302.7</ele>
        <time>2022-11-30T14:13:11Z</time>
      </trkpt>
      <trkpt lat="43.51861" lon="6.27329">
        <ele>303.4</ele>
        <time>2022-11-30T14:13:16Z</time>
      </trkpt>
      <trkpt lat="43.51857" lon="6.27332">
        <ele>303.2</ele>
        <time>2022-11-30T14:13:20Z</time>
      </trkpt>
      <trkpt lat="43.51853" lon="6.27334">
        <ele>303.5</ele>
        <time>2022-11-30T14:13:24Z</time>
      </trkpt>
      <trkpt lat="43.51848" lon="6.27337">
        <ele>303.2</ele>
        <time>2022-11-30T14:13:29Z</time>
      </trkpt>
      <trkpt lat="43.51845" lon="6.27342">
        <ele>304.1</ele>
        <time>2022-11-30T14:13:34Z</time>
      </trkpt>
      <trkpt lat="43.5184" lon="6.27346">
        <ele>305</ele>
        <time>2022-11-30T14:13:37Z</time>
      </trkpt>
      <trkpt lat="43.51835" lon="6.27348">
        <ele>304.2</ele>
        <time>2022-11-30T14:13:39Z</time>
      </trkpt>
      <trkpt lat="43.5183" lon="6.27351">
        <ele>304.5</ele>
        <time>2022-11-30T14:13:43Z</time>
      </trkpt>
      <trkpt lat="43.51826" lon="6.27354">
        <ele>305.3</ele>
        <time>2022-11-30T14:13:46Z</time>
      </trkpt>
      <trkpt lat="43.5182" lon="6.27357">
        <ele>305</ele>
        <time>2022-11-30T14:13:49Z</time>
      </trkpt>
      <trkpt lat="43.51816" lon="6.27363">
        <ele>305.3</ele>
        <time>2022-11-30T14:13:53Z</time>
      </trkpt>
      <trkpt lat="43.51812" lon="6.27366">
        <ele>305.2</ele>
        <time>2022-11-30T14:13:56Z</time>
      </trkpt>
      <trkpt lat="43.51809" lon="6.27372">
        <ele>306</ele>
        <time>2022-11-30T14:13:59Z</time>
      </trkpt>
      <trkpt lat="43.51805" lon="6.27375">
        <ele>305.8</ele>
        <time>2022-11-30T14:14:02Z</time>
      </trkpt>
      <trkpt lat="43.51802" lon="6.27381">
        <ele>305.3</ele>
        <time>2022-11-30T14:14:08Z</time>
      </trkpt>
      <trkpt lat="43.51799" lon="6.27386">
        <ele>305.6</ele>
        <time>2022-11-30T14:14:11Z</time>
      </trkpt>
      <trkpt lat="43.51796" lon="6.2739">
        <ele>305.1</ele>
        <time>2022-11-30T14:14:14Z</time>
      </trkpt>
      <trkpt lat="43.51792" lon="6.27396">
        <ele>305.3</ele>
        <time>2022-11-30T14:14:20Z</time>
      </trkpt>
      <trkpt lat="43.51789" lon="6.27402">
        <ele>305.6</ele>
        <time>2022-11-30T14:14:24Z</time>
      </trkpt>
      <trkpt lat="43.51787" lon="6.27408">
        <ele>305.9</ele>
        <time>2022-11-30T14:14:28Z</time>
      </trkpt>
      <trkpt lat="43.51785" lon="6.27414">
        <ele>305.1</ele>
        <time>2022-11-30T14:14:32Z</time>
      </trkpt>
      <trkpt lat="43.51784" lon="6.27422">
        <ele>304.6</ele>
        <time>2022-11-30T14:14:36Z</time>
      </trkpt>
      <trkpt lat="43.51783" lon="6.27428">
        <ele>304.8</ele>
        <time>2022-11-30T14:14:39Z</time>
      </trkpt>
      <trkpt lat="43.51781" lon="6.27434">
        <ele>305.3</ele>
        <time>2022-11-30T14:14:42Z</time>
      </trkpt>
      <trkpt lat="43.51779" lon="6.2744">
        <ele>304.9</ele>
        <time>2022-11-30T14:14:46Z</time>
      </trkpt>
      <trkpt lat="43.51779" lon="6.27448">
        <ele>304.2</ele>
        <time>2022-11-30T14:14:50Z</time>
      </trkpt>
      <trkpt lat="43.51777" lon="6.27454">
        <ele>303.5</ele>
        <time>2022-11-30T14:14:54Z</time>
      </trkpt>
      <trkpt lat="43.51775" lon="6.2746">
        <ele>303.7</ele>
        <time>2022-11-30T14:14:58Z</time>
      </trkpt>
      <trkpt lat="43.51773" lon="6.27466">
        <ele>303.7</ele>
        <time>2022-11-30T14:15:02Z</time>
      </trkpt>
      <trkpt lat="43.51773" lon="6.27473">
        <ele>303</ele>
        <time>2022-11-30T14:15:06Z</time>
      </trkpt>
      <trkpt lat="43.51772" lon="6.2748">
        <ele>303</ele>
        <time>2022-11-30T14:15:13Z</time>
      </trkpt>
      <trkpt lat="43.51768" lon="6.27484">
        <ele>303.3</ele>
        <time>2022-11-30T14:15:19Z</time>
      </trkpt>
      <trkpt lat="43.51764" lon="6.27488">
        <ele>301.9</ele>
        <time>2022-11-30T14:15:25Z</time>
      </trkpt>
      <trkpt lat="43.5176" lon="6.27492">
        <ele>302.2</ele>
        <time>2022-11-30T14:15:29Z</time>
      </trkpt>
      <trkpt lat="43.51755" lon="6.27496">
        <ele>303</ele>
        <time>2022-11-30T14:15:34Z</time>
      </trkpt>
      <trkpt lat="43.51751" lon="6.27498">
        <ele>302.6</ele>
        <time>2022-11-30T14:15:38Z</time>
      </trkpt>
      <trkpt lat="43.51746" lon="6.27499">
        <ele>301.6</ele>
        <time>2022-11-30T14:15:42Z</time>
      </trkpt>
      <trkpt lat="43.51742" lon="6.27502">
        <ele>301.9</ele>
        <time>2022-11-30T14:15:46Z</time>
      </trkpt>
      <trkpt lat="43.51737" lon="6.27505">
        <ele>302.4</ele>
        <time>2022-11-30T14:15:51Z</time>
      </trkpt>
      <trkpt lat="43.51733" lon="6.27507">
        <ele>301</ele>
        <time>2022-11-30T14:15:56Z</time>
      </trkpt>
      <trkpt lat="43.51729" lon="6.2751">
        <ele>300.6</ele>
        <time>2022-11-30T14:16:00Z</time>
      </trkpt>
      <trkpt lat="43.51724" lon="6.27512">
        <ele>301</ele>
        <time>2022-11-30T14:16:05Z</time>
      </trkpt>
      <trkpt lat="43.5172" lon="6.27514">
        <ele>299.5</ele>
        <time>2022-11-30T14:16:09Z</time>
      </trkpt>
      <trkpt lat="43.51714" lon="6.27516">
        <ele>300</ele>
        <time>2022-11-30T14:16:15Z</time>
      </trkpt>
      <trkpt lat="43.51709" lon="6.27517">
        <ele>298.6</ele>
        <time>2022-11-30T14:16:19Z</time>
      </trkpt>
      <trkpt lat="43.51705" lon="6.27518">
        <ele>297.9</ele>
        <time>2022-11-30T14:16:23Z</time>
      </trkpt>
      <trkpt lat="43.517" lon="6.27521">
        <ele>297.8</ele>
        <time>2022-11-30T14:16:27Z</time>
      </trkpt>
      <trkpt lat="43.51695" lon="6.27524">
        <ele>298.1</ele>
        <time>2022-11-30T14:16:32Z</time>
      </trkpt>
      <trkpt lat="43.51691" lon="6.27527">
        <ele>297.7</ele>
        <time>2022-11-30T14:16:37Z</time>
      </trkpt>
      <trkpt lat="43.51686" lon="6.27529">
        <ele>296.5</ele>
        <time>2022-11-30T14:16:41Z</time>
      </trkpt>
      <trkpt lat="43.5168" lon="6.27531">
        <ele>295.4</ele>
        <time>2022-11-30T14:16:46Z</time>
      </trkpt>
      <trkpt lat="43.51675" lon="6.27532">
        <ele>296.1</ele>
        <time>2022-11-30T14:16:50Z</time>
      </trkpt>
      <trkpt lat="43.5167" lon="6.27534">
        <ele>295.7</ele>
        <time>2022-11-30T14:16:54Z</time>
      </trkpt>
      <trkpt lat="43.51666" lon="6.27535">
        <ele>294.6</ele>
        <time>2022-11-30T14:16:58Z</time>
      </trkpt>
      <trkpt lat="43.5166" lon="6.27537">
        <ele>294.6</ele>
        <time>2022-11-30T14:17:02Z</time>
      </trkpt>
      <trkpt lat="43.51656" lon="6.27541">
        <ele>294.9</ele>
        <time>2022-11-30T14:17:06Z</time>
      </trkpt>
      <trkpt lat="43.5165" lon="6.27542">
        <ele>295.2</ele>
        <time>2022-11-30T14:17:11Z</time>
      </trkpt>
      <trkpt lat="43.51646" lon="6.27545">
        <ele>294.7</ele>
        <time>2022-11-30T14:17:15Z</time>
      </trkpt>
      <trkpt lat="43.51641" lon="6.27546">
        <ele>293.9</ele>
        <time>2022-11-30T14:17:20Z</time>
      </trkpt>
      <trkpt lat="43.51636" lon="6.27546">
        <ele>293.1</ele>
        <time>2022-11-30T14:17:24Z</time>
      </trkpt>
      <trkpt lat="43.51632" lon="6.27546">
        <ele>292.7</ele>
        <time>2022-11-30T14:17:28Z</time>
      </trkpt>
      <trkpt lat="43.51627" lon="6.27547">
        <ele>292.4</ele>
        <time>2022-11-30T14:17:32Z</time>
      </trkpt>
      <trkpt lat="43.51622" lon="6.27549">
        <ele>291.4</ele>
        <time>2022-11-30T14:17:37Z</time>
      </trkpt>
      <trkpt lat="43.51617" lon="6.2755">
        <ele>291.6</ele>
        <time>2022-11-30T14:17:41Z</time>
      </trkpt>
      <trkpt lat="43.51612" lon="6.27552">
        <ele>290.7</ele>
        <time>2022-11-30T14:17:46Z</time>
      </trkpt>
      <trkpt lat="43.51607" lon="6.27553">
        <ele>290.3</ele>
        <time>2022-11-30T14:17:51Z</time>
      </trkpt>
      <trkpt lat="43.51602" lon="6.27552">
        <ele>289.5</ele>
        <time>2022-11-30T14:17:55Z</time>
      </trkpt>
      <trkpt lat="43.51597" lon="6.27552">
        <ele>289.4</ele>
        <time>2022-11-30T14:18:00Z</time>
      </trkpt>
      <trkpt lat="43.51592" lon="6.27551">
        <ele>288.7</ele>
        <time>2022-11-30T14:18:05Z</time>
      </trkpt>
      <trkpt lat="43.51587" lon="6.27548">
        <ele>289.2</ele>
        <time>2022-11-30T14:18:09Z</time>
      </trkpt>
      <trkpt lat="43.51583" lon="6.27545">
        <ele>289.1</ele>
        <time>2022-11-30T14:18:14Z</time>
      </trkpt>
      <trkpt lat="43.51579" lon="6.27541">
        <ele>288.8</ele>
        <time>2022-11-30T14:18:20Z</time>
      </trkpt>
      <trkpt lat="43.51575" lon="6.27536">
        <ele>288.1</ele>
        <time>2022-11-30T14:18:26Z</time>
      </trkpt>
      <trkpt lat="43.5157" lon="6.27533">
        <ele>288.2</ele>
        <time>2022-11-30T14:18:30Z</time>
      </trkpt>
      <trkpt lat="43.51566" lon="6.27529">
        <ele>288.4</ele>
        <time>2022-11-30T14:18:35Z</time>
      </trkpt>
      <trkpt lat="43.51562" lon="6.27527">
        <ele>288.2</ele>
        <time>2022-11-30T14:18:40Z</time>
      </trkpt>
      <trkpt lat="43.51556" lon="6.27527">
        <ele>288.1</ele>
        <time>2022-11-30T14:18:43Z</time>
      </trkpt>
      <trkpt lat="43.51551" lon="6.27527">
        <ele>288.2</ele>
        <time>2022-11-30T14:18:47Z</time>
      </trkpt>
      <trkpt lat="43.51547" lon="6.27528">
        <ele>288</ele>
        <time>2022-11-30T14:18:52Z</time>
      </trkpt>
      <trkpt lat="43.51542" lon="6.27529">
        <ele>287.2</ele>
        <time>2022-11-30T14:18:56Z</time>
      </trkpt>
      <trkpt lat="43.51537" lon="6.27531">
        <ele>287.2</ele>
        <time>2022-11-30T14:19:01Z</time>
      </trkpt>
      <trkpt lat="43.51532" lon="6.27531">
        <ele>286</ele>
        <time>2022-11-30T14:19:09Z</time>
      </trkpt>
      <trkpt lat="43.51526" lon="6.27531">
        <ele>286.1</ele>
        <time>2022-11-30T14:19:12Z</time>
      </trkpt>
      <trkpt lat="43.5152" lon="6.2753">
        <ele>286.7</ele>
        <time>2022-11-30T14:19:16Z</time>
      </trkpt>
      <trkpt lat="43.51515" lon="6.27529">
        <ele>285.9</ele>
        <time>2022-11-30T14:19:20Z</time>
      </trkpt>
      <trkpt lat="43.51509" lon="6.27529">
        <ele>286.6</ele>
        <time>2022-11-30T14:19:24Z</time>
      </trkpt>
      <trkpt lat="43.51504" lon="6.27528">
        <ele>286.5</ele>
        <time>2022-11-30T14:19:28Z</time>
      </trkpt>
      <trkpt lat="43.51499" lon="6.27527">
        <ele>285.9</ele>
        <time>2022-11-30T14:19:32Z</time>
      </trkpt>
      <trkpt lat="43.51494" lon="6.27525">
        <ele>286.1</ele>
        <time>2022-11-30T14:19:37Z</time>
      </trkpt>
      <trkpt lat="43.51489" lon="6.27523">
        <ele>286.4</ele>
        <time>2022-11-30T14:19:40Z</time>
      </trkpt>
      <trkpt lat="43.51484" lon="6.2752">
        <ele>285.5</ele>
        <time>2022-11-30T14:19:45Z</time>
      </trkpt>
      <trkpt lat="43.51479" lon="6.27517">
        <ele>285.9</ele>
        <time>2022-11-30T14:19:49Z</time>
      </trkpt>
      <trkpt lat="43.51473" lon="6.27515">
        <ele>286.2</ele>
        <time>2022-11-30T14:19:53Z</time>
      </trkpt>
      <trkpt lat="43.51468" lon="6.27512">
        <ele>285.5</ele>
        <time>2022-11-30T14:19:57Z</time>
      </trkpt>
      <trkpt lat="43.51463" lon="6.2751">
        <ele>285.4</ele>
        <time>2022-11-30T14:20:01Z</time>
      </trkpt>
      <trkpt lat="43.51459" lon="6.27507">
        <ele>286.3</ele>
        <time>2022-11-30T14:20:06Z</time>
      </trkpt>
      <trkpt lat="43.51453" lon="6.27505">
        <ele>285.3</ele>
        <time>2022-11-30T14:20:13Z</time>
      </trkpt>
      <trkpt lat="43.51448" lon="6.27501">
        <ele>284.5</ele>
        <time>2022-11-30T14:20:17Z</time>
      </trkpt>
      <trkpt lat="43.51443" lon="6.27499">
        <ele>284.7</ele>
        <time>2022-11-30T14:20:21Z</time>
      </trkpt>
      <trkpt lat="43.51438" lon="6.27498">
        <ele>284.7</ele>
        <time>2022-11-30T14:20:25Z</time>
      </trkpt>
      <trkpt lat="43.51433" lon="6.27496">
        <ele>284.5</ele>
        <time>2022-11-30T14:20:29Z</time>
      </trkpt>
      <trkpt lat="43.51428" lon="6.27495">
        <ele>284.2</ele>
        <time>2022-11-30T14:20:34Z</time>
      </trkpt>
      <trkpt lat="43.51424" lon="6.27492">
        <ele>284.5</ele>
        <time>2022-11-30T14:20:42Z</time>
      </trkpt>
      <trkpt lat="43.51419" lon="6.27489">
        <ele>284.2</ele>
        <time>2022-11-30T14:20:50Z</time>
      </trkpt>
      <trkpt lat="43.51415" lon="6.27492">
        <ele>283.9</ele>
        <time>2022-11-30T14:21:00Z</time>
      </trkpt>
      <trkpt lat="43.51411" lon="6.27496">
        <ele>284.1</ele>
        <time>2022-11-30T14:21:24Z</time>
      </trkpt>
      <trkpt lat="43.51406" lon="6.27497">
        <ele>284.2</ele>
        <time>2022-11-30T14:21:43Z</time>
      </trkpt>
      <trkpt lat="43.51403" lon="6.27491">
        <ele>284</ele>
        <time>2022-11-30T14:21:59Z</time>
      </trkpt>
      <trkpt lat="43.51403" lon="6.27483">
        <ele>283.7</ele>
        <time>2022-11-30T14:22:06Z</time>
      </trkpt>
      <trkpt lat="43.51401" lon="6.27477">
        <ele>284.4</ele>
        <time>2022-11-30T14:22:14Z</time>
      </trkpt>
      <trkpt lat="43.51397" lon="6.27473">
        <ele>284.4</ele>
        <time>2022-11-30T14:22:19Z</time>
      </trkpt>
      <trkpt lat="43.51392" lon="6.27473">
        <ele>283.8</ele>
        <time>2022-11-30T14:22:50Z</time>
      </trkpt>
      <trkpt lat="43.51395" lon="6.27467">
        <ele>284</ele>
        <time>2022-11-30T14:23:17Z</time>
      </trkpt>
      <trkpt lat="43.51393" lon="6.2746">
        <ele>284.2</ele>
        <time>2022-11-30T14:23:30Z</time>
      </trkpt>
      <trkpt lat="43.51391" lon="6.27453">
        <ele>283.9</ele>
        <time>2022-11-30T14:23:37Z</time>
      </trkpt>
      <trkpt lat="43.5139" lon="6.27447">
        <ele>284.2</ele>
        <time>2022-11-30T14:23:42Z</time>
      </trkpt>
      <trkpt lat="43.51388" lon="6.27439">
        <ele>283.7</ele>
        <time>2022-11-30T14:23:48Z</time>
      </trkpt>
      <trkpt lat="43.51387" lon="6.27433">
        <ele>284.2</ele>
        <time>2022-11-30T14:23:52Z</time>
      </trkpt>
      <trkpt lat="43.51387" lon="6.27427">
        <ele>283.4</ele>
        <time>2022-11-30T14:23:56Z</time>
      </trkpt>
      <trkpt lat="43.51386" lon="6.2742">
        <ele>283.9</ele>
        <time>2022-11-30T14:24:00Z</time>
      </trkpt>
      <trkpt lat="43.51385" lon="6.27413">
        <ele>284</ele>
        <time>2022-11-30T14:24:04Z</time>
      </trkpt>
      <trkpt lat="43.51384" lon="6.27406">
        <ele>283.8</ele>
        <time>2022-11-30T14:24:08Z</time>
      </trkpt>
      <trkpt lat="43.51384" lon="6.274">
        <ele>284</ele>
        <time>2022-11-30T14:24:12Z</time>
      </trkpt>
      <trkpt lat="43.51385" lon="6.27393">
        <ele>283.2</ele>
        <time>2022-11-30T14:24:17Z</time>
      </trkpt>
      <trkpt lat="43.51383" lon="6.27387">
        <ele>283.4</ele>
        <time>2022-11-30T14:24:21Z</time>
      </trkpt>
      <trkpt lat="43.5138" lon="6.2738">
        <ele>283.7</ele>
        <time>2022-11-30T14:24:25Z</time>
      </trkpt>
      <trkpt lat="43.51379" lon="6.27373">
        <ele>282.8</ele>
        <time>2022-11-30T14:24:31Z</time>
      </trkpt>
      <trkpt lat="43.51377" lon="6.27367">
        <ele>283.1</ele>
        <time>2022-11-30T14:24:35Z</time>
      </trkpt>
      <trkpt lat="43.51375" lon="6.2736">
        <ele>282.1</ele>
        <time>2022-11-30T14:24:39Z</time>
      </trkpt>
      <trkpt lat="43.51374" lon="6.27353">
        <ele>282.3</ele>
        <time>2022-11-30T14:24:43Z</time>
      </trkpt>
      <trkpt lat="43.51373" lon="6.27347">
        <ele>282.6</ele>
        <time>2022-11-30T14:24:47Z</time>
      </trkpt>
      <trkpt lat="43.51371" lon="6.2734">
        <ele>281.6</ele>
        <time>2022-11-30T14:24:51Z</time>
      </trkpt>
      <trkpt lat="43.51368" lon="6.27333">
        <ele>281.6</ele>
        <time>2022-11-30T14:24:55Z</time>
      </trkpt>
      <trkpt lat="43.51367" lon="6.27325">
        <ele>281.7</ele>
        <time>2022-11-30T14:25:00Z</time>
      </trkpt>
      <trkpt lat="43.51366" lon="6.27319">
        <ele>280.6</ele>
        <time>2022-11-30T14:25:05Z</time>
      </trkpt>
      <trkpt lat="43.51364" lon="6.27313">
        <ele>281.4</ele>
        <time>2022-11-30T14:25:10Z</time>
      </trkpt>
      <trkpt lat="43.51363" lon="6.27307">
        <ele>281</ele>
        <time>2022-11-30T14:25:14Z</time>
      </trkpt>
      <trkpt lat="43.51362" lon="6.27301">
        <ele>280.2</ele>
        <time>2022-11-30T14:25:18Z</time>
      </trkpt>
      <trkpt lat="43.51359" lon="6.27294">
        <ele>280.2</ele>
        <time>2022-11-30T14:25:22Z</time>
      </trkpt>
      <trkpt lat="43.51359" lon="6.27287">
        <ele>280.3</ele>
        <time>2022-11-30T14:25:26Z</time>
      </trkpt>
      <trkpt lat="43.51357" lon="6.2728">
        <ele>279.5</ele>
        <time>2022-11-30T14:25:30Z</time>
      </trkpt>
      <trkpt lat="43.51355" lon="6.27273">
        <ele>279.6</ele>
        <time>2022-11-30T14:25:35Z</time>
      </trkpt>
      <trkpt lat="43.51355" lon="6.27266">
        <ele>279.8</ele>
        <time>2022-11-30T14:25:39Z</time>
      </trkpt>
      <trkpt lat="43.51354" lon="6.27259">
        <ele>278.8</ele>
        <time>2022-11-30T14:25:43Z</time>
      </trkpt>
      <trkpt lat="43.51354" lon="6.27252">
        <ele>278.6</ele>
        <time>2022-11-30T14:25:48Z</time>
      </trkpt>
      <trkpt lat="43.51354" lon="6.27245">
        <ele>278.8</ele>
        <time>2022-11-30T14:25:53Z</time>
      </trkpt>
      <trkpt lat="43.51353" lon="6.27238">
        <ele>278.1</ele>
        <time>2022-11-30T14:25:58Z</time>
      </trkpt>
      <trkpt lat="43.51352" lon="6.27231">
        <ele>276.6</ele>
        <time>2022-11-30T14:26:03Z</time>
      </trkpt>
      <trkpt lat="43.5135" lon="6.27225">
        <ele>276.6</ele>
        <time>2022-11-30T14:26:07Z</time>
      </trkpt>
      <trkpt lat="43.51351" lon="6.27218">
        <ele>276.9</ele>
        <time>2022-11-30T14:26:11Z</time>
      </trkpt>
      <trkpt lat="43.51349" lon="6.27212">
        <ele>276.5</ele>
        <time>2022-11-30T14:26:15Z</time>
      </trkpt>
      <trkpt lat="43.51348" lon="6.27205">
        <ele>275.3</ele>
        <time>2022-11-30T14:26:19Z</time>
      </trkpt>
      <trkpt lat="43.51348" lon="6.27199">
        <ele>275.8</ele>
        <time>2022-11-30T14:26:23Z</time>
      </trkpt>
      <trkpt lat="43.51346" lon="6.27192">
        <ele>274.9</ele>
        <time>2022-11-30T14:26:28Z</time>
      </trkpt>
      <trkpt lat="43.51342" lon="6.27188">
        <ele>274.3</ele>
        <time>2022-11-30T14:26:31Z</time>
      </trkpt>
      <trkpt lat="43.51337" lon="6.27186">
        <ele>274.8</ele>
        <time>2022-11-30T14:26:36Z</time>
      </trkpt>
      <trkpt lat="43.51332" lon="6.27185">
        <ele>274.4</ele>
        <time>2022-11-30T14:26:46Z</time>
      </trkpt>
      <trkpt lat="43.51327" lon="6.27185">
        <ele>274.7</ele>
        <time>2022-11-30T14:26:55Z</time>
      </trkpt>
      <trkpt lat="43.51321" lon="6.27185">
        <ele>273.9</ele>
        <time>2022-11-30T14:27:00Z</time>
      </trkpt>
      <trkpt lat="43.51316" lon="6.27185">
        <ele>273.8</ele>
        <time>2022-11-30T14:27:05Z</time>
      </trkpt>
      <trkpt lat="43.51311" lon="6.27185">
        <ele>273.9</ele>
        <time>2022-11-30T14:27:10Z</time>
      </trkpt>
      <trkpt lat="43.51307" lon="6.27183">
        <ele>272.7</ele>
        <time>2022-11-30T14:27:15Z</time>
      </trkpt>
      <trkpt lat="43.51301" lon="6.2718">
        <ele>273.3</ele>
        <time>2022-11-30T14:27:21Z</time>
      </trkpt>
      <trkpt lat="43.51297" lon="6.27178">
        <ele>273.2</ele>
        <time>2022-11-30T14:27:24Z</time>
      </trkpt>
      <trkpt lat="43.51292" lon="6.27176">
        <ele>273.4</ele>
        <time>2022-11-30T14:27:29Z</time>
      </trkpt>
      <trkpt lat="43.51286" lon="6.27174">
        <ele>272.8</ele>
        <time>2022-11-30T14:27:33Z</time>
      </trkpt>
      <trkpt lat="43.51281" lon="6.27172">
        <ele>272.8</ele>
        <time>2022-11-30T14:27:38Z</time>
      </trkpt>
      <trkpt lat="43.51276" lon="6.2717">
        <ele>273.5</ele>
        <time>2022-11-30T14:27:42Z</time>
      </trkpt>
      <trkpt lat="43.51272" lon="6.27168">
        <ele>273.3</ele>
        <time>2022-11-30T14:27:47Z</time>
      </trkpt>
      <trkpt lat="43.51266" lon="6.27165">
        <ele>273.6</ele>
        <time>2022-11-30T14:27:52Z</time>
      </trkpt>
      <trkpt lat="43.51261" lon="6.27164">
        <ele>273.7</ele>
        <time>2022-11-30T14:27:57Z</time>
      </trkpt>
      <trkpt lat="43.51256" lon="6.27162">
        <ele>274</ele>
        <time>2022-11-30T14:28:02Z</time>
      </trkpt>
      <trkpt lat="43.51251" lon="6.27161">
        <ele>274.4</ele>
        <time>2022-11-30T14:28:07Z</time>
      </trkpt>
      <trkpt lat="43.51245" lon="6.2716">
        <ele>275.1</ele>
        <time>2022-11-30T14:28:14Z</time>
      </trkpt>
      <trkpt lat="43.51239" lon="6.27159">
        <ele>275.8</ele>
        <time>2022-11-30T14:28:19Z</time>
      </trkpt>
      <trkpt lat="43.51234" lon="6.27158">
        <ele>275.6</ele>
        <time>2022-11-30T14:28:24Z</time>
      </trkpt>
      <trkpt lat="43.51228" lon="6.27157">
        <ele>276.2</ele>
        <time>2022-11-30T14:28:28Z</time>
      </trkpt>
      <trkpt lat="43.51224" lon="6.27156">
        <ele>276.6</ele>
        <time>2022-11-30T14:28:32Z</time>
      </trkpt>
      <trkpt lat="43.51218" lon="6.27155">
        <ele>276.8</ele>
        <time>2022-11-30T14:28:37Z</time>
      </trkpt>
      <trkpt lat="43.51213" lon="6.27155">
        <ele>277</ele>
        <time>2022-11-30T14:28:42Z</time>
      </trkpt>
      <trkpt lat="43.51208" lon="6.27154">
        <ele>277.2</ele>
        <time>2022-11-30T14:28:47Z</time>
      </trkpt>
      <trkpt lat="43.51203" lon="6.27153">
        <ele>277.4</ele>
        <time>2022-11-30T14:28:51Z</time>
      </trkpt>
      <trkpt lat="43.51198" lon="6.27152">
        <ele>277.8</ele>
        <time>2022-11-30T14:28:55Z</time>
      </trkpt>
      <trkpt lat="43.51193" lon="6.2715">
        <ele>277.5</ele>
        <time>2022-11-30T14:29:00Z</time>
      </trkpt>
      <trkpt lat="43.51189" lon="6.27148">
        <ele>277.7</ele>
        <time>2022-11-30T14:29:03Z</time>
      </trkpt>
      <trkpt lat="43.51185" lon="6.27148">
        <ele>276.9</ele>
        <time>2022-11-30T14:29:08Z</time>
      </trkpt>
      <trkpt lat="43.5118" lon="6.27148">
        <ele>277.4</ele>
        <time>2022-11-30T14:29:13Z</time>
      </trkpt>
      <trkpt lat="43.51175" lon="6.27146">
        <ele>276.9</ele>
        <time>2022-11-30T14:29:18Z</time>
      </trkpt>
      <trkpt lat="43.5117" lon="6.27144">
        <ele>277.3</ele>
        <time>2022-11-30T14:29:24Z</time>
      </trkpt>
      <trkpt lat="43.51167" lon="6.27138">
        <ele>276.3</ele>
        <time>2022-11-30T14:29:32Z</time>
      </trkpt>
      <trkpt lat="43.51163" lon="6.27133">
        <ele>275.8</ele>
        <time>2022-11-30T14:29:38Z</time>
      </trkpt>
      <trkpt lat="43.51159" lon="6.27128">
        <ele>276.5</ele>
        <time>2022-11-30T14:29:42Z</time>
      </trkpt>
      <trkpt lat="43.51156" lon="6.27123">
        <ele>276.8</ele>
        <time>2022-11-30T14:29:46Z</time>
      </trkpt>
      <trkpt lat="43.51155" lon="6.27116">
        <ele>276.2</ele>
        <time>2022-11-30T14:29:50Z</time>
      </trkpt>
      <trkpt lat="43.51156" lon="6.27109">
        <ele>277.1</ele>
        <time>2022-11-30T14:29:56Z</time>
      </trkpt>
      <trkpt lat="43.51157" lon="6.27101">
        <ele>276.7</ele>
        <time>2022-11-30T14:30:00Z</time>
      </trkpt>
      <trkpt lat="43.51155" lon="6.27096">
        <ele>276.3</ele>
        <time>2022-11-30T14:30:03Z</time>
      </trkpt>
      <trkpt lat="43.51153" lon="6.27089">
        <ele>276.6</ele>
        <time>2022-11-30T14:30:07Z</time>
      </trkpt>
      <trkpt lat="43.51153" lon="6.27083">
        <ele>277</ele>
        <time>2022-11-30T14:30:11Z</time>
      </trkpt>
      <trkpt lat="43.51149" lon="6.27077">
        <ele>276.7</ele>
        <time>2022-11-30T14:30:14Z</time>
      </trkpt>
      <trkpt lat="43.51146" lon="6.27071">
        <ele>276.3</ele>
        <time>2022-11-30T14:30:19Z</time>
      </trkpt>
      <trkpt lat="43.51142" lon="6.27068">
        <ele>276.3</ele>
        <time>2022-11-30T14:30:33Z</time>
      </trkpt>
      <trkpt lat="43.51139" lon="6.27063">
        <ele>276.2</ele>
        <time>2022-11-30T14:30:59Z</time>
      </trkpt>
      <trkpt lat="43.51138" lon="6.27057">
        <ele>276.8</ele>
        <time>2022-11-30T14:31:33Z</time>
      </trkpt>
      <trkpt lat="43.51135" lon="6.27062">
        <ele>276.2</ele>
        <time>2022-11-30T14:31:52Z</time>
      </trkpt>
      <trkpt lat="43.51131" lon="6.27064">
        <ele>276.4</ele>
        <time>2022-11-30T14:32:30Z</time>
      </trkpt>
      <trkpt lat="43.51128" lon="6.27058">
        <ele>276.7</ele>
        <time>2022-11-30T14:33:21Z</time>
      </trkpt>
      <trkpt lat="43.51122" lon="6.27057">
        <ele>276.6</ele>
        <time>2022-11-30T14:33:26Z</time>
      </trkpt>
      <trkpt lat="43.51118" lon="6.27058">
        <ele>275.9</ele>
        <time>2022-11-30T14:33:31Z</time>
      </trkpt>
      <trkpt lat="43.51112" lon="6.2706">
        <ele>276.4</ele>
        <time>2022-11-30T14:33:35Z</time>
      </trkpt>
      <trkpt lat="43.51107" lon="6.27062">
        <ele>276.4</ele>
        <time>2022-11-30T14:33:39Z</time>
      </trkpt>
      <trkpt lat="43.51103" lon="6.27062">
        <ele>276.4</ele>
        <time>2022-11-30T14:33:42Z</time>
      </trkpt>
      <trkpt lat="43.51098" lon="6.27063">
        <ele>275.5</ele>
        <time>2022-11-30T14:33:46Z</time>
      </trkpt>
      <trkpt lat="43.51093" lon="6.27064">
        <ele>276.5</ele>
        <time>2022-11-30T14:33:51Z</time>
      </trkpt>
      <trkpt lat="43.51088" lon="6.27063">
        <ele>276.8</ele>
        <time>2022-11-30T14:33:55Z</time>
      </trkpt>
      <trkpt lat="43.51084" lon="6.2706">
        <ele>275.3</ele>
        <time>2022-11-30T14:34:00Z</time>
      </trkpt>
      <trkpt lat="43.51079" lon="6.27057">
        <ele>276.2</ele>
        <time>2022-11-30T14:34:06Z</time>
      </trkpt>
      <trkpt lat="43.51075" lon="6.27054">
        <ele>275.9</ele>
        <time>2022-11-30T14:34:11Z</time>
      </trkpt>
      <trkpt lat="43.5107" lon="6.27051">
        <ele>276</ele>
        <time>2022-11-30T14:34:16Z</time>
      </trkpt>
      <trkpt lat="43.51065" lon="6.27048">
        <ele>276.2</ele>
        <time>2022-11-30T14:34:20Z</time>
      </trkpt>
      <trkpt lat="43.51061" lon="6.27047">
        <ele>275</ele>
        <time>2022-11-30T14:34:24Z</time>
      </trkpt>
      <trkpt lat="43.51055" lon="6.27045">
        <ele>275.4</ele>
        <time>2022-11-30T14:34:28Z</time>
      </trkpt>
      <trkpt lat="43.5105" lon="6.27042">
        <ele>274.4</ele>
        <time>2022-11-30T14:34:33Z</time>
      </trkpt>
      <trkpt lat="43.51045" lon="6.27039">
        <ele>275.2</ele>
        <time>2022-11-30T14:34:38Z</time>
      </trkpt>
      <trkpt lat="43.5104" lon="6.27038">
        <ele>274.8</ele>
        <time>2022-11-30T14:34:42Z</time>
      </trkpt>
      <trkpt lat="43.51036" lon="6.27035">
        <ele>275.4</ele>
        <time>2022-11-30T14:34:47Z</time>
      </trkpt>
      <trkpt lat="43.51033" lon="6.27039">
        <ele>274.9</ele>
        <time>2022-11-30T14:35:15Z</time>
      </trkpt>
      <trkpt lat="43.51028" lon="6.27036">
        <ele>275.2</ele>
        <time>2022-11-30T14:36:44Z</time>
      </trkpt>
      <trkpt lat="43.51025" lon="6.27032">
        <ele>274.7</ele>
        <time>2022-11-30T14:36:50Z</time>
      </trkpt>
      <trkpt lat="43.5102" lon="6.27028">
        <ele>274.4</ele>
        <time>2022-11-30T14:36:55Z</time>
      </trkpt>
      <trkpt lat="43.51015" lon="6.27024">
        <ele>274.6</ele>
        <time>2022-11-30T14:37:00Z</time>
      </trkpt>
      <trkpt lat="43.5101" lon="6.27021">
        <ele>275</ele>
        <time>2022-11-30T14:37:06Z</time>
      </trkpt>
      <trkpt lat="43.51005" lon="6.27018">
        <ele>274.7</ele>
        <time>2022-11-30T14:37:11Z</time>
      </trkpt>
      <trkpt lat="43.51" lon="6.27018">
        <ele>275.2</ele>
        <time>2022-11-30T14:37:15Z</time>
      </trkpt>
      <trkpt lat="43.50997" lon="6.27023">
        <ele>274.5</ele>
        <time>2022-11-30T14:37:19Z</time>
      </trkpt>
      <trkpt lat="43.50995" lon="6.2703">
        <ele>275</ele>
        <time>2022-11-30T14:37:24Z</time>
      </trkpt>
      <trkpt lat="43.50993" lon="6.27036">
        <ele>274.1</ele>
        <time>2022-11-30T14:37:30Z</time>
      </trkpt>
      <trkpt lat="43.50998" lon="6.27037">
        <ele>274.3</ele>
        <time>2022-11-30T14:37:59Z</time>
      </trkpt>
      <trkpt lat="43.50994" lon="6.27039">
        <ele>274.5</ele>
        <time>2022-11-30T14:38:08Z</time>
      </trkpt>
      <trkpt lat="43.5099" lon="6.27042">
        <ele>274</ele>
        <time>2022-11-30T14:38:15Z</time>
      </trkpt>
      <trkpt lat="43.50985" lon="6.27045">
        <ele>273.7</ele>
        <time>2022-11-30T14:38:21Z</time>
      </trkpt>
      <trkpt lat="43.50984" lon="6.27052">
        <ele>273.9</ele>
        <time>2022-11-30T14:38:27Z</time>
      </trkpt>
      <trkpt lat="43.50985" lon="6.27059">
        <ele>273</ele>
        <time>2022-11-30T14:38:30Z</time>
      </trkpt>
      <trkpt lat="43.50984" lon="6.27065">
        <ele>272</ele>
        <time>2022-11-30T14:38:38Z</time>
      </trkpt>
      <trkpt lat="43.50983" lon="6.27072">
        <ele>272.4</ele>
        <time>2022-11-30T14:38:44Z</time>
      </trkpt>
      <trkpt lat="43.50979" lon="6.27077">
        <ele>271.7</ele>
        <time>2022-11-30T14:38:49Z</time>
      </trkpt>
      <trkpt lat="43.50974" lon="6.27078">
        <ele>271.2</ele>
        <time>2022-11-30T14:38:54Z</time>
      </trkpt>
      <trkpt lat="43.5097" lon="6.27083">
        <ele>271.6</ele>
        <time>2022-11-30T14:39:00Z</time>
      </trkpt>
      <trkpt lat="43.50967" lon="6.27089">
        <ele>270.3</ele>
        <time>2022-11-30T14:39:05Z</time>
      </trkpt>
      <trkpt lat="43.50965" lon="6.27095">
        <ele>270.4</ele>
        <time>2022-11-30T14:39:12Z</time>
      </trkpt>
      <trkpt lat="43.50964" lon="6.27101">
        <ele>269.6</ele>
        <time>2022-11-30T14:39:18Z</time>
      </trkpt>
      <trkpt lat="43.50961" lon="6.27107">
        <ele>269</ele>
        <time>2022-11-30T14:39:23Z</time>
      </trkpt>
      <trkpt lat="43.50959" lon="6.27113">
        <ele>268.8</ele>
        <time>2022-11-30T14:39:28Z</time>
      </trkpt>
      <trkpt lat="43.50957" lon="6.27119">
        <ele>267.8</ele>
        <time>2022-11-30T14:39:36Z</time>
      </trkpt>
      <trkpt lat="43.50955" lon="6.27125">
        <ele>268</ele>
        <time>2022-11-30T14:39:41Z</time>
      </trkpt>
      <trkpt lat="43.50955" lon="6.27132">
        <ele>267.4</ele>
        <time>2022-11-30T14:39:53Z</time>
      </trkpt>
      <trkpt lat="43.50952" lon="6.27138">
        <ele>267.6</ele>
        <time>2022-11-30T14:39:57Z</time>
      </trkpt>
      <trkpt lat="43.5095" lon="6.27144">
        <ele>266.8</ele>
        <time>2022-11-30T14:40:02Z</time>
      </trkpt>
      <trkpt lat="43.50948" lon="6.2715">
        <ele>267.1</ele>
        <time>2022-11-30T14:40:12Z</time>
      </trkpt>
      <trkpt lat="43.50946" lon="6.27155">
        <ele>266</ele>
        <time>2022-11-30T14:40:17Z</time>
      </trkpt>
      <trkpt lat="43.50944" lon="6.27161">
        <ele>266.3</ele>
        <time>2022-11-30T14:40:22Z</time>
      </trkpt>
      <trkpt lat="43.50942" lon="6.27167">
        <ele>265.2</ele>
        <time>2022-11-30T14:40:27Z</time>
      </trkpt>
      <trkpt lat="43.5094" lon="6.27173">
        <ele>265.2</ele>
        <time>2022-11-30T14:40:32Z</time>
      </trkpt>
      <trkpt lat="43.50938" lon="6.2718">
        <ele>265.1</ele>
        <time>2022-11-30T14:40:37Z</time>
      </trkpt>
      <trkpt lat="43.50936" lon="6.27186">
        <ele>264.7</ele>
        <time>2022-11-30T14:40:42Z</time>
      </trkpt>
      <trkpt lat="43.50934" lon="6.27192">
        <ele>264.7</ele>
        <time>2022-11-30T14:40:47Z</time>
      </trkpt>
      <trkpt lat="43.50931" lon="6.27198">
        <ele>263.9</ele>
        <time>2022-11-30T14:40:52Z</time>
      </trkpt>
      <trkpt lat="43.50929" lon="6.27205">
        <ele>263.3</ele>
        <time>2022-11-30T14:40:58Z</time>
      </trkpt>
      <trkpt lat="43.50928" lon="6.27212">
        <ele>262.7</ele>
        <time>2022-11-30T14:41:03Z</time>
      </trkpt>
      <trkpt lat="43.50927" lon="6.27218">
        <ele>261.5</ele>
        <time>2022-11-30T14:41:08Z</time>
      </trkpt>
      <trkpt lat="43.50926" lon="6.27225">
        <ele>261</ele>
        <time>2022-11-30T14:41:14Z</time>
      </trkpt>
      <trkpt lat="43.50923" lon="6.27231">
        <ele>260.8</ele>
        <time>2022-11-30T14:41:19Z</time>
      </trkpt>
      <trkpt lat="43.50921" lon="6.27237">
        <ele>259.8</ele>
        <time>2022-11-30T14:41:24Z</time>
      </trkpt>
      <trkpt lat="43.50919" lon="6.27243">
        <ele>259.2</ele>
        <time>2022-11-30T14:41:29Z</time>
      </trkpt>
      <trkpt lat="43.50917" lon="6.27248">
        <ele>259.3</ele>
        <time>2022-11-30T14:41:34Z</time>
      </trkpt>
      <trkpt lat="43.50915" lon="6.27254">
        <ele>258.6</ele>
        <time>2022-11-30T14:41:39Z</time>
      </trkpt>
      <trkpt lat="43.50913" lon="6.2726">
        <ele>256.9</ele>
        <time>2022-11-30T14:41:47Z</time>
      </trkpt>
      <trkpt lat="43.50911" lon="6.27266">
        <ele>255.4</ele>
        <time>2022-11-30T14:41:58Z</time>
      </trkpt>
      <trkpt lat="43.50908" lon="6.27271">
        <ele>254.1</ele>
        <time>2022-11-30T14:42:10Z</time>
      </trkpt>
      <trkpt lat="43.50905" lon="6.27275">
        <ele>253.5</ele>
        <time>2022-11-30T14:42:19Z</time>
      </trkpt>
      <trkpt lat="43.509" lon="6.27279">
        <ele>253.2</ele>
        <time>2022-11-30T14:42:26Z</time>
      </trkpt>
      <trkpt lat="43.50898" lon="6.27285">
        <ele>252.2</ele>
        <time>2022-11-30T14:42:35Z</time>
      </trkpt>
      <trkpt lat="43.50894" lon="6.27287">
        <ele>251.2</ele>
        <time>2022-11-30T14:42:44Z</time>
      </trkpt>
      <trkpt lat="43.50889" lon="6.27288">
        <ele>249.9</ele>
        <time>2022-11-30T14:42:55Z</time>
      </trkpt>
      <trkpt lat="43.50885" lon="6.27291">
        <ele>248.9</ele>
        <time>2022-11-30T14:43:06Z</time>
      </trkpt>
      <trkpt lat="43.5088" lon="6.2729">
        <ele>248.2</ele>
        <time>2022-11-30T14:43:15Z</time>
      </trkpt>
      <trkpt lat="43.50875" lon="6.2729">
        <ele>247</ele>
        <time>2022-11-30T14:43:27Z</time>
      </trkpt>
      <trkpt lat="43.5087" lon="6.2729">
        <ele>246</ele>
        <time>2022-11-30T14:43:36Z</time>
      </trkpt>
      <trkpt lat="43.50865" lon="6.27288">
        <ele>245.1</ele>
        <time>2022-11-30T14:43:44Z</time>
      </trkpt>
      <trkpt lat="43.50861" lon="6.27286">
        <ele>243.4</ele>
        <time>2022-11-30T14:43:55Z</time>
      </trkpt>
      <trkpt lat="43.50856" lon="6.27288">
        <ele>243</ele>
        <time>2022-11-30T14:44:06Z</time>
      </trkpt>
      <trkpt lat="43.50852" lon="6.27289">
        <ele>242.1</ele>
        <time>2022-11-30T14:44:14Z</time>
      </trkpt>
      <trkpt lat="43.50847" lon="6.27287">
        <ele>241.2</ele>
        <time>2022-11-30T14:44:25Z</time>
      </trkpt>
      <trkpt lat="43.50842" lon="6.27286">
        <ele>240.1</ele>
        <time>2022-11-30T14:44:33Z</time>
      </trkpt>
      <trkpt lat="43.50837" lon="6.27288">
        <ele>239.6</ele>
        <time>2022-11-30T14:44:40Z</time>
      </trkpt>
      <trkpt lat="43.50833" lon="6.27287">
        <ele>238.5</ele>
        <time>2022-11-30T14:44:47Z</time>
      </trkpt>
      <trkpt lat="43.50829" lon="6.27292">
        <ele>237.8</ele>
        <time>2022-11-30T14:44:55Z</time>
      </trkpt>
      <trkpt lat="43.50826" lon="6.27296">
        <ele>237.2</ele>
        <time>2022-11-30T14:45:00Z</time>
      </trkpt>
      <trkpt lat="43.50821" lon="6.273">
        <ele>236.6</ele>
        <time>2022-11-30T14:45:07Z</time>
      </trkpt>
      <trkpt lat="43.50818" lon="6.27304">
        <ele>235.4</ele>
        <time>2022-11-30T14:45:15Z</time>
      </trkpt>
      <trkpt lat="43.50814" lon="6.27309">
        <ele>235.4</ele>
        <time>2022-11-30T14:45:24Z</time>
      </trkpt>
      <trkpt lat="43.50811" lon="6.27313">
        <ele>234.4</ele>
        <time>2022-11-30T14:45:33Z</time>
      </trkpt>
      <trkpt lat="43.50807" lon="6.27318">
        <ele>234</ele>
        <time>2022-11-30T14:45:49Z</time>
      </trkpt>
      <trkpt lat="43.50805" lon="6.27323">
        <ele>233.2</ele>
        <time>2022-11-30T14:45:56Z</time>
      </trkpt>
      <trkpt lat="43.50802" lon="6.27329">
        <ele>232.1</ele>
        <time>2022-11-30T14:46:08Z</time>
      </trkpt>
      <trkpt lat="43.50799" lon="6.27333">
        <ele>231.4</ele>
        <time>2022-11-30T14:46:19Z</time>
      </trkpt>
      <trkpt lat="43.50797" lon="6.27339">
        <ele>230.8</ele>
        <time>2022-11-30T14:46:27Z</time>
      </trkpt>
      <trkpt lat="43.50794" lon="6.27345">
        <ele>230.2</ele>
        <time>2022-11-30T14:46:35Z</time>
      </trkpt>
      <trkpt lat="43.50791" lon="6.27349">
        <ele>229.7</ele>
        <time>2022-11-30T14:46:44Z</time>
      </trkpt>
      <trkpt lat="43.50789" lon="6.27355">
        <ele>228.8</ele>
        <time>2022-11-30T14:46:53Z</time>
      </trkpt>
      <trkpt lat="43.50785" lon="6.27359">
        <ele>228.4</ele>
        <time>2022-11-30T14:47:00Z</time>
      </trkpt>
      <trkpt lat="43.50782" lon="6.27364">
        <ele>227.7</ele>
        <time>2022-11-30T14:47:13Z</time>
      </trkpt>
      <trkpt lat="43.5078" lon="6.27369">
        <ele>226.5</ele>
        <time>2022-11-30T14:47:32Z</time>
      </trkpt>
      <trkpt lat="43.50776" lon="6.27374">
        <ele>224.6</ele>
        <time>2022-11-30T14:47:52Z</time>
      </trkpt>
      <trkpt lat="43.50773" lon="6.27378">
        <ele>224</ele>
        <time>2022-11-30T14:48:01Z</time>
      </trkpt>
      <trkpt lat="43.50769" lon="6.27381">
        <ele>223.2</ele>
        <time>2022-11-30T14:48:11Z</time>
      </trkpt>
      <trkpt lat="43.50763" lon="6.27383">
        <ele>222.3</ele>
        <time>2022-11-30T14:48:21Z</time>
      </trkpt>
      <trkpt lat="43.50759" lon="6.27386">
        <ele>222.2</ele>
        <time>2022-11-30T14:48:28Z</time>
      </trkpt>
      <trkpt lat="43.50755" lon="6.27392">
        <ele>220.8</ele>
        <time>2022-11-30T14:48:38Z</time>
      </trkpt>
      <trkpt lat="43.50751" lon="6.27394">
        <ele>220.7</ele>
        <time>2022-11-30T14:48:44Z</time>
      </trkpt>
      <trkpt lat="43.50748" lon="6.27399">
        <ele>220.4</ele>
        <time>2022-11-30T14:48:49Z</time>
      </trkpt>
      <trkpt lat="43.50744" lon="6.27404">
        <ele>219.9</ele>
        <time>2022-11-30T14:48:55Z</time>
      </trkpt>
      <trkpt lat="43.5074" lon="6.27409">
        <ele>218.7</ele>
        <time>2022-11-30T14:49:03Z</time>
      </trkpt>
      <trkpt lat="43.50736" lon="6.27412">
        <ele>218.1</ele>
        <time>2022-11-30T14:49:09Z</time>
      </trkpt>
      <trkpt lat="43.50733" lon="6.27417">
        <ele>217.8</ele>
        <time>2022-11-30T14:49:17Z</time>
      </trkpt>
      <trkpt lat="43.50729" lon="6.27421">
        <ele>217.6</ele>
        <time>2022-11-30T14:49:24Z</time>
      </trkpt>
      <trkpt lat="43.50727" lon="6.27426">
        <ele>217.2</ele>
        <time>2022-11-30T14:49:30Z</time>
      </trkpt>
      <trkpt lat="43.50722" lon="6.2743">
        <ele>216.3</ele>
        <time>2022-11-30T14:49:37Z</time>
      </trkpt>
      <trkpt lat="43.5072" lon="6.27436">
        <ele>216.4</ele>
        <time>2022-11-30T14:49:44Z</time>
      </trkpt>
      <trkpt lat="43.50718" lon="6.27442">
        <ele>215.5</ele>
        <time>2022-11-30T14:49:50Z</time>
      </trkpt>
      <trkpt lat="43.50715" lon="6.27448">
        <ele>214.7</ele>
        <time>2022-11-30T14:49:56Z</time>
      </trkpt>
      <trkpt lat="43.50712" lon="6.27452">
        <ele>213.8</ele>
        <time>2022-11-30T14:50:00Z</time>
      </trkpt>
      <trkpt lat="43.5071" lon="6.27458">
        <ele>213.3</ele>
        <time>2022-11-30T14:50:05Z</time>
      </trkpt>
      <trkpt lat="43.50708" lon="6.27464">
        <ele>213</ele>
        <time>2022-11-30T14:50:11Z</time>
      </trkpt>
      <trkpt lat="43.50705" lon="6.2747">
        <ele>212.1</ele>
        <time>2022-11-30T14:50:18Z</time>
      </trkpt>
      <trkpt lat="43.50702" lon="6.27475">
        <ele>211.3</ele>
        <time>2022-11-30T14:50:23Z</time>
      </trkpt>
      <trkpt lat="43.50699" lon="6.2748">
        <ele>210.7</ele>
        <time>2022-11-30T14:50:29Z</time>
      </trkpt>
      <trkpt lat="43.50696" lon="6.27487">
        <ele>210.2</ele>
        <time>2022-11-30T14:50:35Z</time>
      </trkpt>
      <trkpt lat="43.50694" lon="6.27493">
        <ele>209.4</ele>
        <time>2022-11-30T14:50:41Z</time>
      </trkpt>
      <trkpt lat="43.50691" lon="6.27498">
        <ele>209.4</ele>
        <time>2022-11-30T14:50:46Z</time>
      </trkpt>
      <trkpt lat="43.50687" lon="6.27503">
        <ele>208.2</ele>
        <time>2022-11-30T14:50:52Z</time>
      </trkpt>
      <trkpt lat="43.50685" lon="6.27509">
        <ele>208.1</ele>
        <time>2022-11-30T14:50:59Z</time>
      </trkpt>
      <trkpt lat="43.50684" lon="6.27515">
        <ele>206.9</ele>
        <time>2022-11-30T14:51:04Z</time>
      </trkpt>
      <trkpt lat="43.50682" lon="6.27522">
        <ele>206.9</ele>
        <time>2022-11-30T14:51:09Z</time>
      </trkpt>
      <trkpt lat="43.5068" lon="6.27528">
        <ele>205.6</ele>
        <time>2022-11-30T14:51:15Z</time>
      </trkpt>
      <trkpt lat="43.50679" lon="6.27535">
        <ele>204.7</ele>
        <time>2022-11-30T14:51:21Z</time>
      </trkpt>
      <trkpt lat="43.50675" lon="6.27541">
        <ele>204.4</ele>
        <time>2022-11-30T14:51:27Z</time>
      </trkpt>
      <trkpt lat="43.50672" lon="6.27546">
        <ele>203.8</ele>
        <time>2022-11-30T14:51:33Z</time>
      </trkpt>
      <trkpt lat="43.50672" lon="6.27553">
        <ele>203.7</ele>
        <time>2022-11-30T14:51:39Z</time>
      </trkpt>
      <trkpt lat="43.50671" lon="6.2756">
        <ele>202.7</ele>
        <time>2022-11-30T14:51:45Z</time>
      </trkpt>
      <trkpt lat="43.5067" lon="6.27567">
        <ele>202.9</ele>
        <time>2022-11-30T14:51:50Z</time>
      </trkpt>
      <trkpt lat="43.50669" lon="6.27573">
        <ele>202.3</ele>
        <time>2022-11-30T14:51:55Z</time>
      </trkpt>
      <trkpt lat="43.50666" lon="6.2758">
        <ele>201.3</ele>
        <time>2022-11-30T14:52:01Z</time>
      </trkpt>
      <trkpt lat="43.50665" lon="6.27586">
        <ele>201.2</ele>
        <time>2022-11-30T14:52:07Z</time>
      </trkpt>
      <trkpt lat="43.50662" lon="6.27592">
        <ele>200.7</ele>
        <time>2022-11-30T14:52:13Z</time>
      </trkpt>
      <trkpt lat="43.50658" lon="6.27597">
        <ele>200.1</ele>
        <time>2022-11-30T14:52:19Z</time>
      </trkpt>
      <trkpt lat="43.50655" lon="6.27602">
        <ele>199.9</ele>
        <time>2022-11-30T14:52:26Z</time>
      </trkpt>
      <trkpt lat="43.50652" lon="6.27608">
        <ele>200.4</ele>
        <time>2022-11-30T14:52:31Z</time>
      </trkpt>
      <trkpt lat="43.50649" lon="6.27614">
        <ele>200.4</ele>
        <time>2022-11-30T14:52:37Z</time>
      </trkpt>
      <trkpt lat="43.50646" lon="6.2762">
        <ele>199.8</ele>
        <time>2022-11-30T14:52:42Z</time>
      </trkpt>
      <trkpt lat="43.50643" lon="6.27626">
        <ele>200</ele>
        <time>2022-11-30T14:52:47Z</time>
      </trkpt>
      <trkpt lat="43.5064" lon="6.27632">
        <ele>199.3</ele>
        <time>2022-11-30T14:52:51Z</time>
      </trkpt>
      <trkpt lat="43.50636" lon="6.27638">
        <ele>199.7</ele>
        <time>2022-11-30T14:52:55Z</time>
      </trkpt>
      <trkpt lat="43.50632" lon="6.27642">
        <ele>198.8</ele>
        <time>2022-11-30T14:53:00Z</time>
      </trkpt>
      <trkpt lat="43.50629" lon="6.27647">
        <ele>198.3</ele>
        <time>2022-11-30T14:53:05Z</time>
      </trkpt>
      <trkpt lat="43.50625" lon="6.27651">
        <ele>198.7</ele>
        <time>2022-11-30T14:53:10Z</time>
      </trkpt>
      <trkpt lat="43.50622" lon="6.27656">
        <ele>198.6</ele>
        <time>2022-11-30T14:53:14Z</time>
      </trkpt>
      <trkpt lat="43.50619" lon="6.27662">
        <ele>197.7</ele>
        <time>2022-11-30T14:53:19Z</time>
      </trkpt>
      <trkpt lat="43.50616" lon="6.27667">
        <ele>197.5</ele>
        <time>2022-11-30T14:53:24Z</time>
      </trkpt>
      <trkpt lat="43.50615" lon="6.27674">
        <ele>197</ele>
        <time>2022-11-30T14:53:30Z</time>
      </trkpt>
      <trkpt lat="43.50612" lon="6.27681">
        <ele>196.4</ele>
        <time>2022-11-30T14:53:39Z</time>
      </trkpt>
      <trkpt lat="43.50608" lon="6.27686">
        <ele>195.1</ele>
        <time>2022-11-30T14:53:46Z</time>
      </trkpt>
      <trkpt lat="43.50604" lon="6.27691">
        <ele>194.6</ele>
        <time>2022-11-30T14:53:53Z</time>
      </trkpt>
      <trkpt lat="43.50601" lon="6.27695">
        <ele>194</ele>
        <time>2022-11-30T14:53:58Z</time>
      </trkpt>
      <trkpt lat="43.50597" lon="6.27699">
        <ele>194.4</ele>
        <time>2022-11-30T14:54:03Z</time>
      </trkpt>
      <trkpt lat="43.50594" lon="6.27704">
        <ele>193.5</ele>
        <time>2022-11-30T14:54:13Z</time>
      </trkpt>
      <trkpt lat="43.5059" lon="6.27707">
        <ele>194</ele>
        <time>2022-11-30T14:55:06Z</time>
      </trkpt>
      <trkpt lat="43.50588" lon="6.27714">
        <ele>193.3</ele>
        <time>2022-11-30T14:56:20Z</time>
      </trkpt>
      <trkpt lat="43.50584" lon="6.27718">
        <ele>193.2</ele>
        <time>2022-11-30T14:56:25Z</time>
      </trkpt>
      <trkpt lat="43.5058" lon="6.27719">
        <ele>190.9</ele>
        <time>2022-11-30T14:56:37Z</time>
      </trkpt>
      <trkpt lat="43.50575" lon="6.27721">
        <ele>190.3</ele>
        <time>2022-11-30T14:56:43Z</time>
      </trkpt>
      <trkpt lat="43.5057" lon="6.27723">
        <ele>190.1</ele>
        <time>2022-11-30T14:56:47Z</time>
      </trkpt>
      <trkpt lat="43.50566" lon="6.27726">
        <ele>188.7</ele>
        <time>2022-11-30T14:56:52Z</time>
      </trkpt>
      <trkpt lat="43.50561" lon="6.27727">
        <ele>188.3</ele>
        <time>2022-11-30T14:56:56Z</time>
      </trkpt>
      <trkpt lat="43.50557" lon="6.27729">
        <ele>188.3</ele>
        <time>2022-11-30T14:57:01Z</time>
      </trkpt>
      <trkpt lat="43.50552" lon="6.2773">
        <ele>187.3</ele>
        <time>2022-11-30T14:57:08Z</time>
      </trkpt>
      <trkpt lat="43.50547" lon="6.27731">
        <ele>187.3</ele>
        <time>2022-11-30T14:57:12Z</time>
      </trkpt>
      <trkpt lat="43.50542" lon="6.27732">
        <ele>186.1</ele>
        <time>2022-11-30T14:57:17Z</time>
      </trkpt>
      <trkpt lat="43.50536" lon="6.27734">
        <ele>186.2</ele>
        <time>2022-11-30T14:57:20Z</time>
      </trkpt>
      <trkpt lat="43.50532" lon="6.27737">
        <ele>185.6</ele>
        <time>2022-11-30T14:57:24Z</time>
      </trkpt>
      <trkpt lat="43.50528" lon="6.27741">
        <ele>185.6</ele>
        <time>2022-11-30T14:57:28Z</time>
      </trkpt>
      <trkpt lat="43.50524" lon="6.27745">
        <ele>185</ele>
        <time>2022-11-30T14:57:33Z</time>
      </trkpt>
      <trkpt lat="43.50519" lon="6.27748">
        <ele>185</ele>
        <time>2022-11-30T14:57:37Z</time>
      </trkpt>
      <trkpt lat="43.50515" lon="6.27754">
        <ele>184.4</ele>
        <time>2022-11-30T14:57:42Z</time>
      </trkpt>
      <trkpt lat="43.50512" lon="6.27759">
        <ele>183.8</ele>
        <time>2022-11-30T14:57:47Z</time>
      </trkpt>
      <trkpt lat="43.5051" lon="6.27765">
        <ele>183.6</ele>
        <time>2022-11-30T14:57:52Z</time>
      </trkpt>
      <trkpt lat="43.50509" lon="6.27772">
        <ele>183.1</ele>
        <time>2022-11-30T14:57:56Z</time>
      </trkpt>
      <trkpt lat="43.50508" lon="6.27779">
        <ele>182.6</ele>
        <time>2022-11-30T14:58:01Z</time>
      </trkpt>
      <trkpt lat="43.50505" lon="6.27784">
        <ele>182.4</ele>
        <time>2022-11-30T14:58:05Z</time>
      </trkpt>
      <trkpt lat="43.50503" lon="6.27791">
        <ele>181.8</ele>
        <time>2022-11-30T14:58:10Z</time>
      </trkpt>
      <trkpt lat="43.505" lon="6.27797">
        <ele>181.6</ele>
        <time>2022-11-30T14:58:15Z</time>
      </trkpt>
      <trkpt lat="43.50499" lon="6.27804">
        <ele>181.6</ele>
        <time>2022-11-30T14:58:22Z</time>
      </trkpt>
      <trkpt lat="43.505" lon="6.27811">
        <ele>181.1</ele>
        <time>2022-11-30T14:58:28Z</time>
      </trkpt>
      <trkpt lat="43.50502" lon="6.27818">
        <ele>180.3</ele>
        <time>2022-11-30T14:58:46Z</time>
      </trkpt>
      <trkpt lat="43.50504" lon="6.27824">
        <ele>180.2</ele>
        <time>2022-11-30T14:59:12Z</time>
      </trkpt>
      <trkpt lat="43.50507" lon="6.27828">
        <ele>180</ele>
        <time>2022-11-30T14:59:23Z</time>
      </trkpt>
      <trkpt lat="43.50511" lon="6.27832">
        <ele>178.9</ele>
        <time>2022-11-30T14:59:54Z</time>
      </trkpt>
      <trkpt lat="43.50516" lon="6.27833">
        <ele>178.3</ele>
        <time>2022-11-30T14:59:59Z</time>
      </trkpt>
      <trkpt lat="43.50521" lon="6.27834">
        <ele>177.8</ele>
        <time>2022-11-30T15:00:06Z</time>
      </trkpt>
      <trkpt lat="43.50526" lon="6.27835">
        <ele>177.9</ele>
        <time>2022-11-30T15:00:10Z</time>
      </trkpt>
      <trkpt lat="43.5053" lon="6.27837">
        <ele>177.4</ele>
        <time>2022-11-30T15:00:14Z</time>
      </trkpt>
      <trkpt lat="43.50535" lon="6.27839">
        <ele>177</ele>
        <time>2022-11-30T15:00:19Z</time>
      </trkpt>
      <trkpt lat="43.5054" lon="6.27842">
        <ele>176.5</ele>
        <time>2022-11-30T15:00:24Z</time>
      </trkpt>
      <trkpt lat="43.50545" lon="6.27843">
        <ele>176.7</ele>
        <time>2022-11-30T15:00:29Z</time>
      </trkpt>
      <trkpt lat="43.50551" lon="6.27845">
        <ele>176.9</ele>
        <time>2022-11-30T15:00:34Z</time>
      </trkpt>
      <trkpt lat="43.50555" lon="6.27845">
        <ele>176.2</ele>
        <time>2022-11-30T15:00:46Z</time>
      </trkpt>
      <trkpt lat="43.5056" lon="6.27847">
        <ele>176.9</ele>
        <time>2022-11-30T15:00:56Z</time>
      </trkpt>
      <trkpt lat="43.50564" lon="6.2785">
        <ele>176.4</ele>
        <time>2022-11-30T15:01:01Z</time>
      </trkpt>
      <trkpt lat="43.50567" lon="6.27855">
        <ele>175.9</ele>
        <time>2022-11-30T15:01:08Z</time>
      </trkpt>
      <trkpt lat="43.50569" lon="6.27861">
        <ele>174.9</ele>
        <time>2022-11-30T15:01:22Z</time>
      </trkpt>
      <trkpt lat="43.50566" lon="6.27866">
        <ele>174.1</ele>
        <time>2022-11-30T15:01:54Z</time>
      </trkpt>
      <trkpt lat="43.50565" lon="6.27872">
        <ele>173.8</ele>
        <time>2022-11-30T15:02:03Z</time>
      </trkpt>
      <trkpt lat="43.50565" lon="6.27879">
        <ele>173.5</ele>
        <time>2022-11-30T15:02:40Z</time>
      </trkpt>
      <trkpt lat="43.5057" lon="6.2788">
        <ele>172.9</ele>
        <time>2022-11-30T15:02:58Z</time>
      </trkpt>
      <trkpt lat="43.50574" lon="6.2788">
        <ele>172.9</ele>
        <time>2022-11-30T15:03:25Z</time>
      </trkpt>
      <trkpt lat="43.50576" lon="6.27874">
        <ele>173.3</ele>
        <time>2022-11-30T15:04:41Z</time>
      </trkpt>
      <trkpt lat="43.50577" lon="6.27868">
        <ele>174.5</ele>
        <time>2022-11-30T15:04:50Z</time>
      </trkpt>
      <trkpt lat="43.50577" lon="6.27861">
        <ele>175.1</ele>
        <time>2022-11-30T15:04:57Z</time>
      </trkpt>
      <trkpt lat="43.50576" lon="6.27854">
        <ele>176</ele>
        <time>2022-11-30T15:05:04Z</time>
      </trkpt>
      <trkpt lat="43.50573" lon="6.27848">
        <ele>176.5</ele>
        <time>2022-11-30T15:05:09Z</time>
      </trkpt>
      <trkpt lat="43.50569" lon="6.27845">
        <ele>176.5</ele>
        <time>2022-11-30T15:05:13Z</time>
      </trkpt>
      <trkpt lat="43.50564" lon="6.27842">
        <ele>176.7</ele>
        <time>2022-11-30T15:05:17Z</time>
      </trkpt>
      <trkpt lat="43.50559" lon="6.27839">
        <ele>176.7</ele>
        <time>2022-11-30T15:05:22Z</time>
      </trkpt>
      <trkpt lat="43.50555" lon="6.27836">
        <ele>177.6</ele>
        <time>2022-11-30T15:05:27Z</time>
      </trkpt>
      <trkpt lat="43.5055" lon="6.27835">
        <ele>177</ele>
        <time>2022-11-30T15:05:46Z</time>
      </trkpt>
      <trkpt lat="43.50545" lon="6.27833">
        <ele>176.7</ele>
        <time>2022-11-30T15:05:53Z</time>
      </trkpt>
      <trkpt lat="43.5054" lon="6.27831">
        <ele>177.5</ele>
        <time>2022-11-30T15:05:58Z</time>
      </trkpt>
      <trkpt lat="43.50537" lon="6.27827">
        <ele>176.7</ele>
        <time>2022-11-30T15:06:08Z</time>
      </trkpt>
      <trkpt lat="43.50532" lon="6.27825">
        <ele>178</ele>
        <time>2022-11-30T15:06:14Z</time>
      </trkpt>
      <trkpt lat="43.50526" lon="6.27823">
        <ele>177.5</ele>
        <time>2022-11-30T15:06:18Z</time>
      </trkpt>
      <trkpt lat="43.50522" lon="6.27821">
        <ele>178.6</ele>
        <time>2022-11-30T15:06:22Z</time>
      </trkpt>
      <trkpt lat="43.50517" lon="6.27819">
        <ele>179.2</ele>
        <time>2022-11-30T15:06:27Z</time>
      </trkpt>
      <trkpt lat="43.50512" lon="6.27819">
        <ele>179.6</ele>
        <time>2022-11-30T15:06:36Z</time>
      </trkpt>
      <trkpt lat="43.50508" lon="6.27815">
        <ele>180.2</ele>
        <time>2022-11-30T15:06:46Z</time>
      </trkpt>
      <trkpt lat="43.50504" lon="6.27811">
        <ele>179.8</ele>
        <time>2022-11-30T15:06:51Z</time>
      </trkpt>
      <trkpt lat="43.50499" lon="6.27808">
        <ele>180.4</ele>
        <time>2022-11-30T15:06:59Z</time>
      </trkpt>
      <trkpt lat="43.50494" lon="6.27809">
        <ele>180.9</ele>
        <time>2022-11-30T15:07:06Z</time>
      </trkpt>
      <trkpt lat="43.50489" lon="6.27812">
        <ele>180.8</ele>
        <time>2022-11-30T15:07:12Z</time>
      </trkpt>
      <trkpt lat="43.50489" lon="6.27818">
        <ele>179.9</ele>
        <time>2022-11-30T15:07:33Z</time>
      </trkpt>
      <trkpt lat="43.50493" lon="6.2782">
        <ele>180</ele>
        <time>2022-11-30T15:07:56Z</time>
      </trkpt>
      <trkpt lat="43.50499" lon="6.27819">
        <ele>180.7</ele>
        <time>2022-11-30T15:08:02Z</time>
      </trkpt>
      <trkpt lat="43.50502" lon="6.27813">
        <ele>181</ele>
        <time>2022-11-30T15:08:08Z</time>
      </trkpt>
      <trkpt lat="43.50506" lon="6.27808">
        <ele>181.4</ele>
        <time>2022-11-30T15:08:13Z</time>
      </trkpt>
      <trkpt lat="43.50508" lon="6.27802">
        <ele>181.1</ele>
        <time>2022-11-30T15:08:19Z</time>
      </trkpt>
      <trkpt lat="43.5051" lon="6.27797">
        <ele>182.4</ele>
        <time>2022-11-30T15:08:26Z</time>
      </trkpt>
      <trkpt lat="43.50513" lon="6.27791">
        <ele>182.6</ele>
        <time>2022-11-30T15:08:29Z</time>
      </trkpt>
      <trkpt lat="43.50514" lon="6.27785">
        <ele>182.3</ele>
        <time>2022-11-30T15:08:34Z</time>
      </trkpt>
      <trkpt lat="43.50516" lon="6.27778">
        <ele>181.7</ele>
        <time>2022-11-30T15:08:47Z</time>
      </trkpt>
      <trkpt lat="43.50519" lon="6.27771">
        <ele>181.5</ele>
        <time>2022-11-30T15:08:51Z</time>
      </trkpt>
      <trkpt lat="43.50521" lon="6.27765">
        <ele>180.8</ele>
        <time>2022-11-30T15:08:56Z</time>
      </trkpt>
      <trkpt lat="43.50524" lon="6.27759">
        <ele>181.6</ele>
        <time>2022-11-30T15:09:00Z</time>
      </trkpt>
      <trkpt lat="43.50528" lon="6.27754">
        <ele>182.3</ele>
        <time>2022-11-30T15:09:04Z</time>
      </trkpt>
      <trkpt lat="43.50532" lon="6.27749">
        <ele>183.9</ele>
        <time>2022-11-30T15:09:08Z</time>
      </trkpt>
      <trkpt lat="43.50536" lon="6.27746">
        <ele>185.1</ele>
        <time>2022-11-30T15:09:12Z</time>
      </trkpt>
      <trkpt lat="43.5054" lon="6.27746">
        <ele>185.6</ele>
        <time>2022-11-30T15:10:01Z</time>
      </trkpt>
      <trkpt lat="43.50545" lon="6.27746">
        <ele>186.3</ele>
        <time>2022-11-30T15:10:09Z</time>
      </trkpt>
      <trkpt lat="43.5055" lon="6.27747">
        <ele>186.8</ele>
        <time>2022-11-30T15:10:15Z</time>
      </trkpt>
      <trkpt lat="43.50554" lon="6.27743">
        <ele>187.1</ele>
        <time>2022-11-30T15:10:37Z</time>
      </trkpt>
      <trkpt lat="43.50558" lon="6.27742">
        <ele>187.7</ele>
        <time>2022-11-30T15:10:45Z</time>
      </trkpt>
      <trkpt lat="43.50554" lon="6.2774">
        <ele>187.7</ele>
        <time>2022-11-30T15:11:04Z</time>
      </trkpt>
      <trkpt lat="43.50549" lon="6.27739">
        <ele>187.3</ele>
        <time>2022-11-30T15:11:09Z</time>
      </trkpt>
      <trkpt lat="43.50545" lon="6.27742">
        <ele>186.9</ele>
        <time>2022-11-30T15:11:36Z</time>
      </trkpt>
      <trkpt lat="43.5054" lon="6.27741">
        <ele>186.9</ele>
        <time>2022-11-30T15:11:49Z</time>
      </trkpt>
      <trkpt lat="43.50534" lon="6.27742">
        <ele>186.4</ele>
        <time>2022-11-30T15:11:54Z</time>
      </trkpt>
      <trkpt lat="43.50529" lon="6.27745">
        <ele>186.1</ele>
        <time>2022-11-30T15:11:59Z</time>
      </trkpt>
      <trkpt lat="43.50524" lon="6.27749">
        <ele>185.6</ele>
        <time>2022-11-30T15:12:03Z</time>
      </trkpt>
      <trkpt lat="43.50519" lon="6.27753">
        <ele>185.4</ele>
        <time>2022-11-30T15:12:07Z</time>
      </trkpt>
      <trkpt lat="43.50515" lon="6.27757">
        <ele>185.3</ele>
        <time>2022-11-30T15:12:11Z</time>
      </trkpt>
      <trkpt lat="43.50511" lon="6.27762">
        <ele>184.8</ele>
        <time>2022-11-30T15:12:15Z</time>
      </trkpt>
      <trkpt lat="43.50509" lon="6.27769">
        <ele>184.3</ele>
        <time>2022-11-30T15:12:19Z</time>
      </trkpt>
      <trkpt lat="43.50509" lon="6.27775">
        <ele>182.1</ele>
        <time>2022-11-30T15:12:22Z</time>
      </trkpt>
      <trkpt lat="43.50508" lon="6.27782">
        <ele>183.2</ele>
        <time>2022-11-30T15:12:26Z</time>
      </trkpt>
      <trkpt lat="43.50506" lon="6.27789">
        <ele>183.2</ele>
        <time>2022-11-30T15:12:30Z</time>
      </trkpt>
      <trkpt lat="43.50504" lon="6.27796">
        <ele>182.6</ele>
        <time>2022-11-30T15:12:34Z</time>
      </trkpt>
      <trkpt lat="43.50501" lon="6.27802">
        <ele>182.5</ele>
        <time>2022-11-30T15:12:38Z</time>
      </trkpt>
      <trkpt lat="43.50503" lon="6.27809">
        <ele>181.8</ele>
        <time>2022-11-30T15:12:41Z</time>
      </trkpt>
      <trkpt lat="43.50506" lon="6.27814">
        <ele>180.9</ele>
        <time>2022-11-30T15:12:45Z</time>
      </trkpt>
      <trkpt lat="43.50511" lon="6.27819">
        <ele>181</ele>
        <time>2022-11-30T15:12:50Z</time>
      </trkpt>
      <trkpt lat="43.50515" lon="6.27823">
        <ele>180.7</ele>
        <time>2022-11-30T15:12:54Z</time>
      </trkpt>
      <trkpt lat="43.50519" lon="6.27825">
        <ele>180</ele>
        <time>2022-11-30T15:13:01Z</time>
      </trkpt>
      <trkpt lat="43.50523" lon="6.27829">
        <ele>179.7</ele>
        <time>2022-11-30T15:13:06Z</time>
      </trkpt>
      <trkpt lat="43.50528" lon="6.27831">
        <ele>179.2</ele>
        <time>2022-11-30T15:13:09Z</time>
      </trkpt>
      <trkpt lat="43.50533" lon="6.27834">
        <ele>178.2</ele>
        <time>2022-11-30T15:13:13Z</time>
      </trkpt>
      <trkpt lat="43.50538" lon="6.27836">
        <ele>177.5</ele>
        <time>2022-11-30T15:13:18Z</time>
      </trkpt>
      <trkpt lat="43.50543" lon="6.27838">
        <ele>177.8</ele>
        <time>2022-11-30T15:13:23Z</time>
      </trkpt>
      <trkpt lat="43.50548" lon="6.2784">
        <ele>177.3</ele>
        <time>2022-11-30T15:13:27Z</time>
      </trkpt>
      <trkpt lat="43.50553" lon="6.27843">
        <ele>177.5</ele>
        <time>2022-11-30T15:13:31Z</time>
      </trkpt>
      <trkpt lat="43.50557" lon="6.27847">
        <ele>177.5</ele>
        <time>2022-11-30T15:13:35Z</time>
      </trkpt>
      <trkpt lat="43.50561" lon="6.27848">
        <ele>177.9</ele>
        <time>2022-11-30T15:13:40Z</time>
      </trkpt>
      <trkpt lat="43.50568" lon="6.27847">
        <ele>178.4</ele>
        <time>2022-11-30T15:13:46Z</time>
      </trkpt>
      <trkpt lat="43.50572" lon="6.27844">
        <ele>178.2</ele>
        <time>2022-11-30T15:14:21Z</time>
      </trkpt>
      <trkpt lat="43.50578" lon="6.27844">
        <ele>179.3</ele>
        <time>2022-11-30T15:14:27Z</time>
      </trkpt>
      <trkpt lat="43.50582" lon="6.27844">
        <ele>180</ele>
        <time>2022-11-30T15:14:32Z</time>
      </trkpt>
      <trkpt lat="43.50587" lon="6.27844">
        <ele>179.1</ele>
        <time>2022-11-30T15:14:36Z</time>
      </trkpt>
      <trkpt lat="43.50593" lon="6.27845">
        <ele>179.7</ele>
        <time>2022-11-30T15:14:42Z</time>
      </trkpt>
      <trkpt lat="43.50596" lon="6.27841">
        <ele>179.3</ele>
        <time>2022-11-30T15:15:35Z</time>
      </trkpt>
      <trkpt lat="43.506" lon="6.27844">
        <ele>179.6</ele>
        <time>2022-11-30T15:15:52Z</time>
      </trkpt>
      <trkpt lat="43.50604" lon="6.27848">
        <ele>179.1</ele>
        <time>2022-11-30T15:15:58Z</time>
      </trkpt>
      <trkpt lat="43.50606" lon="6.27854">
        <ele>179.4</ele>
        <time>2022-11-30T15:16:03Z</time>
      </trkpt>
      <trkpt lat="43.50609" lon="6.27859">
        <ele>179.5</ele>
        <time>2022-11-30T15:16:07Z</time>
      </trkpt>
      <trkpt lat="43.50611" lon="6.27865">
        <ele>179.2</ele>
        <time>2022-11-30T15:16:10Z</time>
      </trkpt>
      <trkpt lat="43.50615" lon="6.2787">
        <ele>178.7</ele>
        <time>2022-11-30T15:16:15Z</time>
      </trkpt>
      <trkpt lat="43.50619" lon="6.27874">
        <ele>178.6</ele>
        <time>2022-11-30T15:16:20Z</time>
      </trkpt>
      <trkpt lat="43.50624" lon="6.27879">
        <ele>177.9</ele>
        <time>2022-11-30T15:16:25Z</time>
      </trkpt>
      <trkpt lat="43.50628" lon="6.27882">
        <ele>176.6</ele>
        <time>2022-11-30T15:16:30Z</time>
      </trkpt>
      <trkpt lat="43.50631" lon="6.27886">
        <ele>176.5</ele>
        <time>2022-11-30T15:16:35Z</time>
      </trkpt>
      <trkpt lat="43.50634" lon="6.27891">
        <ele>177.4</ele>
        <time>2022-11-30T15:16:39Z</time>
      </trkpt>
      <trkpt lat="43.50639" lon="6.27893">
        <ele>177.8</ele>
        <time>2022-11-30T15:16:43Z</time>
      </trkpt>
      <trkpt lat="43.50642" lon="6.27897">
        <ele>178</ele>
        <time>2022-11-30T15:16:47Z</time>
      </trkpt>
      <trkpt lat="43.50646" lon="6.27901">
        <ele>177.8</ele>
        <time>2022-11-30T15:16:51Z</time>
      </trkpt>
      <trkpt lat="43.5065" lon="6.27906">
        <ele>177.9</ele>
        <time>2022-11-30T15:16:56Z</time>
      </trkpt>
      <trkpt lat="43.50654" lon="6.2791">
        <ele>178.3</ele>
        <time>2022-11-30T15:17:00Z</time>
      </trkpt>
      <trkpt lat="43.50658" lon="6.27914">
        <ele>178.1</ele>
        <time>2022-11-30T15:17:04Z</time>
      </trkpt>
      <trkpt lat="43.50663" lon="6.27918">
        <ele>178.3</ele>
        <time>2022-11-30T15:17:08Z</time>
      </trkpt>
      <trkpt lat="43.50667" lon="6.27921">
        <ele>179.2</ele>
        <time>2022-11-30T15:17:12Z</time>
      </trkpt>
      <trkpt lat="43.50671" lon="6.27925">
        <ele>179.2</ele>
        <time>2022-11-30T15:17:18Z</time>
      </trkpt>
      <trkpt lat="43.50676" lon="6.27926">
        <ele>179.4</ele>
        <time>2022-11-30T15:17:24Z</time>
      </trkpt>
      <trkpt lat="43.5068" lon="6.27922">
        <ele>178.7</ele>
        <time>2022-11-30T15:17:29Z</time>
      </trkpt>
      <trkpt lat="43.5068" lon="6.27915">
        <ele>179.6</ele>
        <time>2022-11-30T15:17:34Z</time>
      </trkpt>
      <trkpt lat="43.50681" lon="6.27909">
        <ele>180.6</ele>
        <time>2022-11-30T15:17:40Z</time>
      </trkpt>
      <trkpt lat="43.50686" lon="6.27908">
        <ele>181.9</ele>
        <time>2022-11-30T15:17:46Z</time>
      </trkpt>
      <trkpt lat="43.50691" lon="6.27908">
        <ele>182.7</ele>
        <time>2022-11-30T15:17:54Z</time>
      </trkpt>
      <trkpt lat="43.50697" lon="6.27907">
        <ele>183.5</ele>
        <time>2022-11-30T15:17:59Z</time>
      </trkpt>
      <trkpt lat="43.50701" lon="6.27906">
        <ele>183.7</ele>
        <time>2022-11-30T15:18:04Z</time>
      </trkpt>
      <trkpt lat="43.50706" lon="6.27905">
        <ele>184</ele>
        <time>2022-11-30T15:18:09Z</time>
      </trkpt>
      <trkpt lat="43.50711" lon="6.27903">
        <ele>184.7</ele>
        <time>2022-11-30T15:18:15Z</time>
      </trkpt>
      <trkpt lat="43.50715" lon="6.27902">
        <ele>185.4</ele>
        <time>2022-11-30T15:18:22Z</time>
      </trkpt>
      <trkpt lat="43.5072" lon="6.27899">
        <ele>185.2</ele>
        <time>2022-11-30T15:18:29Z</time>
      </trkpt>
      <trkpt lat="43.50725" lon="6.27898">
        <ele>186.1</ele>
        <time>2022-11-30T15:18:41Z</time>
      </trkpt>
      <trkpt lat="43.5073" lon="6.27897">
        <ele>187.3</ele>
        <time>2022-11-30T15:18:49Z</time>
      </trkpt>
      <trkpt lat="43.50735" lon="6.27895">
        <ele>188.2</ele>
        <time>2022-11-30T15:18:55Z</time>
      </trkpt>
      <trkpt lat="43.5074" lon="6.27895">
        <ele>188.1</ele>
        <time>2022-11-30T15:19:01Z</time>
      </trkpt>
      <trkpt lat="43.50746" lon="6.27894">
        <ele>188.9</ele>
        <time>2022-11-30T15:19:06Z</time>
      </trkpt>
      <trkpt lat="43.50751" lon="6.27894">
        <ele>189.5</ele>
        <time>2022-11-30T15:19:11Z</time>
      </trkpt>
      <trkpt lat="43.50755" lon="6.27893">
        <ele>189.9</ele>
        <time>2022-11-30T15:19:17Z</time>
      </trkpt>
      <trkpt lat="43.50761" lon="6.27893">
        <ele>189.9</ele>
        <time>2022-11-30T15:19:22Z</time>
      </trkpt>
      <trkpt lat="43.50766" lon="6.27894">
        <ele>191.2</ele>
        <time>2022-11-30T15:19:28Z</time>
      </trkpt>
      <trkpt lat="43.50771" lon="6.27893">
        <ele>191.4</ele>
        <time>2022-11-30T15:19:32Z</time>
      </trkpt>
      <trkpt lat="43.50776" lon="6.27894">
        <ele>192.3</ele>
        <time>2022-11-30T15:19:38Z</time>
      </trkpt>
      <trkpt lat="43.5078" lon="6.27895">
        <ele>192.8</ele>
        <time>2022-11-30T15:19:43Z</time>
      </trkpt>
      <trkpt lat="43.50784" lon="6.27899">
        <ele>193.6</ele>
        <time>2022-11-30T15:19:49Z</time>
      </trkpt>
      <trkpt lat="43.50789" lon="6.279">
        <ele>193.6</ele>
        <time>2022-11-30T15:19:53Z</time>
      </trkpt>
      <trkpt lat="43.50795" lon="6.27901">
        <ele>193.7</ele>
        <time>2022-11-30T15:19:58Z</time>
      </trkpt>
      <trkpt lat="43.508" lon="6.27899">
        <ele>194.4</ele>
        <time>2022-11-30T15:20:07Z</time>
      </trkpt>
      <trkpt lat="43.50803" lon="6.27894">
        <ele>195</ele>
        <time>2022-11-30T15:20:30Z</time>
      </trkpt>
      <trkpt lat="43.50808" lon="6.27895">
        <ele>195.1</ele>
        <time>2022-11-30T15:20:42Z</time>
      </trkpt>
      <trkpt lat="43.50812" lon="6.27897">
        <ele>194.8</ele>
        <time>2022-11-30T15:20:46Z</time>
      </trkpt>
      <trkpt lat="43.50817" lon="6.27899">
        <ele>194.4</ele>
        <time>2022-11-30T15:20:51Z</time>
      </trkpt>
      <trkpt lat="43.50822" lon="6.27901">
        <ele>193.6</ele>
        <time>2022-11-30T15:20:56Z</time>
      </trkpt>
      <trkpt lat="43.50827" lon="6.27902">
        <ele>193.7</ele>
        <time>2022-11-30T15:21:01Z</time>
      </trkpt>
      <trkpt lat="43.50832" lon="6.27903">
        <ele>193.1</ele>
        <time>2022-11-30T15:21:08Z</time>
      </trkpt>
      <trkpt lat="43.50837" lon="6.27904">
        <ele>192.9</ele>
        <time>2022-11-30T15:21:12Z</time>
      </trkpt>
      <trkpt lat="43.50841" lon="6.27906">
        <ele>193.6</ele>
        <time>2022-11-30T15:21:16Z</time>
      </trkpt>
      <trkpt lat="43.50846" lon="6.27907">
        <ele>193.4</ele>
        <time>2022-11-30T15:21:23Z</time>
      </trkpt>
      <trkpt lat="43.5085" lon="6.27909">
        <ele>194.8</ele>
        <time>2022-11-30T15:21:28Z</time>
      </trkpt>
      <trkpt lat="43.50855" lon="6.27912">
        <ele>195.2</ele>
        <time>2022-11-30T15:21:40Z</time>
      </trkpt>
      <trkpt lat="43.5086" lon="6.27914">
        <ele>196.3</ele>
        <time>2022-11-30T15:21:46Z</time>
      </trkpt>
      <trkpt lat="43.50864" lon="6.27919">
        <ele>197.8</ele>
        <time>2022-11-30T15:21:52Z</time>
      </trkpt>
      <trkpt lat="43.50867" lon="6.27923">
        <ele>198.2</ele>
        <time>2022-11-30T15:21:57Z</time>
      </trkpt>
      <trkpt lat="43.50872" lon="6.27927">
        <ele>198.7</ele>
        <time>2022-11-30T15:22:02Z</time>
      </trkpt>
      <trkpt lat="43.50876" lon="6.27932">
        <ele>199.2</ele>
        <time>2022-11-30T15:22:07Z</time>
      </trkpt>
      <trkpt lat="43.5088" lon="6.27937">
        <ele>199.4</ele>
        <time>2022-11-30T15:22:12Z</time>
      </trkpt>
      <trkpt lat="43.50883" lon="6.27941">
        <ele>199.8</ele>
        <time>2022-11-30T15:22:17Z</time>
      </trkpt>
      <trkpt lat="43.50887" lon="6.27944">
        <ele>200.2</ele>
        <time>2022-11-30T15:22:22Z</time>
      </trkpt>
      <trkpt lat="43.50892" lon="6.27948">
        <ele>200.8</ele>
        <time>2022-11-30T15:22:28Z</time>
      </trkpt>
      <trkpt lat="43.50897" lon="6.2795">
        <ele>201</ele>
        <time>2022-11-30T15:22:34Z</time>
      </trkpt>
      <trkpt lat="43.50901" lon="6.27952">
        <ele>201.7</ele>
        <time>2022-11-30T15:22:39Z</time>
      </trkpt>
      <trkpt lat="43.50906" lon="6.27954">
        <ele>202.5</ele>
        <time>2022-11-30T15:22:46Z</time>
      </trkpt>
      <trkpt lat="43.50911" lon="6.27953">
        <ele>203.3</ele>
        <time>2022-11-30T15:22:53Z</time>
      </trkpt>
      <trkpt lat="43.50916" lon="6.27954">
        <ele>203.4</ele>
        <time>2022-11-30T15:22:59Z</time>
      </trkpt>
      <trkpt lat="43.5092" lon="6.27956">
        <ele>204.2</ele>
        <time>2022-11-30T15:23:03Z</time>
      </trkpt>
      <trkpt lat="43.50924" lon="6.2796">
        <ele>204.7</ele>
        <time>2022-11-30T15:23:10Z</time>
      </trkpt>
      <trkpt lat="43.50927" lon="6.27966">
        <ele>204.3</ele>
        <time>2022-11-30T15:23:16Z</time>
      </trkpt>
      <trkpt lat="43.50931" lon="6.27971">
        <ele>204.9</ele>
        <time>2022-11-30T15:23:22Z</time>
      </trkpt>
      <trkpt lat="43.50935" lon="6.27976">
        <ele>205.3</ele>
        <time>2022-11-30T15:23:27Z</time>
      </trkpt>
      <trkpt lat="43.50939" lon="6.27981">
        <ele>205.3</ele>
        <time>2022-11-30T15:23:32Z</time>
      </trkpt>
      <trkpt lat="43.50942" lon="6.27986">
        <ele>205.6</ele>
        <time>2022-11-30T15:23:38Z</time>
      </trkpt>
      <trkpt lat="43.50945" lon="6.27992">
        <ele>205.5</ele>
        <time>2022-11-30T15:23:44Z</time>
      </trkpt>
      <trkpt lat="43.50951" lon="6.27992">
        <ele>205.2</ele>
        <time>2022-11-30T15:23:52Z</time>
      </trkpt>
      <trkpt lat="43.50955" lon="6.27994">
        <ele>206</ele>
        <time>2022-11-30T15:23:55Z</time>
      </trkpt>
      <trkpt lat="43.50959" lon="6.27997">
        <ele>206.4</ele>
        <time>2022-11-30T15:24:00Z</time>
      </trkpt>
      <trkpt lat="43.50963" lon="6.27999">
        <ele>207.3</ele>
        <time>2022-11-30T15:24:05Z</time>
      </trkpt>
      <trkpt lat="43.50968" lon="6.28">
        <ele>207.4</ele>
        <time>2022-11-30T15:24:11Z</time>
      </trkpt>
      <trkpt lat="43.50973" lon="6.28001">
        <ele>207.7</ele>
        <time>2022-11-30T15:24:15Z</time>
      </trkpt>
      <trkpt lat="43.50978" lon="6.28006">
        <ele>207.3</ele>
        <time>2022-11-30T15:24:19Z</time>
      </trkpt>
      <trkpt lat="43.50982" lon="6.28007">
        <ele>207.6</ele>
        <time>2022-11-30T15:24:24Z</time>
      </trkpt>
      <trkpt lat="43.50987" lon="6.28009">
        <ele>207.5</ele>
        <time>2022-11-30T15:24:28Z</time>
      </trkpt>
      <trkpt lat="43.50991" lon="6.28011">
        <ele>208</ele>
        <time>2022-11-30T15:24:35Z</time>
      </trkpt>
      <trkpt lat="43.50997" lon="6.28013">
        <ele>208.2</ele>
        <time>2022-11-30T15:24:39Z</time>
      </trkpt>
      <trkpt lat="43.51001" lon="6.28016">
        <ele>208.8</ele>
        <time>2022-11-30T15:24:43Z</time>
      </trkpt>
      <trkpt lat="43.51005" lon="6.2802">
        <ele>209</ele>
        <time>2022-11-30T15:24:49Z</time>
      </trkpt>
      <trkpt lat="43.5101" lon="6.28021">
        <ele>208.9</ele>
        <time>2022-11-30T15:24:54Z</time>
      </trkpt>
      <trkpt lat="43.51015" lon="6.28018">
        <ele>210.4</ele>
        <time>2022-11-30T15:25:03Z</time>
      </trkpt>
      <trkpt lat="43.51019" lon="6.28022">
        <ele>210.3</ele>
        <time>2022-11-30T15:25:12Z</time>
      </trkpt>
      <trkpt lat="43.51024" lon="6.28025">
        <ele>210.6</ele>
        <time>2022-11-30T15:25:18Z</time>
      </trkpt>
      <trkpt lat="43.51028" lon="6.28028">
        <ele>210.3</ele>
        <time>2022-11-30T15:25:22Z</time>
      </trkpt>
      <trkpt lat="43.51033" lon="6.2803">
        <ele>210.6</ele>
        <time>2022-11-30T15:25:28Z</time>
      </trkpt>
      <trkpt lat="43.51038" lon="6.28034">
        <ele>211.2</ele>
        <time>2022-11-30T15:25:34Z</time>
      </trkpt>
      <trkpt lat="43.51043" lon="6.28034">
        <ele>211.2</ele>
        <time>2022-11-30T15:25:37Z</time>
      </trkpt>
      <trkpt lat="43.51047" lon="6.28039">
        <ele>211.5</ele>
        <time>2022-11-30T15:25:43Z</time>
      </trkpt>
      <trkpt lat="43.51051" lon="6.28042">
        <ele>212.4</ele>
        <time>2022-11-30T15:25:49Z</time>
      </trkpt>
      <trkpt lat="43.51056" lon="6.28043">
        <ele>213.3</ele>
        <time>2022-11-30T15:25:57Z</time>
      </trkpt>
      <trkpt lat="43.5106" lon="6.28046">
        <ele>213.9</ele>
        <time>2022-11-30T15:26:02Z</time>
      </trkpt>
      <trkpt lat="43.51065" lon="6.28048">
        <ele>214</ele>
        <time>2022-11-30T15:26:08Z</time>
      </trkpt>
      <trkpt lat="43.51071" lon="6.28047">
        <ele>213.8</ele>
        <time>2022-11-30T15:26:12Z</time>
      </trkpt>
      <trkpt lat="43.51076" lon="6.28047">
        <ele>213.8</ele>
        <time>2022-11-30T15:26:17Z</time>
      </trkpt>
      <trkpt lat="43.51081" lon="6.28045">
        <ele>213.7</ele>
        <time>2022-11-30T15:26:21Z</time>
      </trkpt>
      <trkpt lat="43.51086" lon="6.28044">
        <ele>213.6</ele>
        <time>2022-11-30T15:26:25Z</time>
      </trkpt>
      <trkpt lat="43.51092" lon="6.28044">
        <ele>213.6</ele>
        <time>2022-11-30T15:26:30Z</time>
      </trkpt>
      <trkpt lat="43.51097" lon="6.28045">
        <ele>213.1</ele>
        <time>2022-11-30T15:26:35Z</time>
      </trkpt>
      <trkpt lat="43.51102" lon="6.28047">
        <ele>213</ele>
        <time>2022-11-30T15:26:40Z</time>
      </trkpt>
      <trkpt lat="43.51108" lon="6.28049">
        <ele>212.7</ele>
        <time>2022-11-30T15:26:45Z</time>
      </trkpt>
      <trkpt lat="43.51113" lon="6.28049">
        <ele>212.5</ele>
        <time>2022-11-30T15:26:48Z</time>
      </trkpt>
      <trkpt lat="43.51118" lon="6.28051">
        <ele>212.4</ele>
        <time>2022-11-30T15:26:52Z</time>
      </trkpt>
      <trkpt lat="43.51124" lon="6.28053">
        <ele>212.4</ele>
        <time>2022-11-30T15:26:57Z</time>
      </trkpt>
      <trkpt lat="43.51129" lon="6.28054">
        <ele>212</ele>
        <time>2022-11-30T15:27:01Z</time>
      </trkpt>
      <trkpt lat="43.51133" lon="6.28056">
        <ele>212.2</ele>
        <time>2022-11-30T15:27:06Z</time>
      </trkpt>
      <trkpt lat="43.51138" lon="6.28056">
        <ele>211.9</ele>
        <time>2022-11-30T15:27:09Z</time>
      </trkpt>
      <trkpt lat="43.51143" lon="6.28059">
        <ele>211.7</ele>
        <time>2022-11-30T15:27:14Z</time>
      </trkpt>
      <trkpt lat="43.51148" lon="6.28058">
        <ele>211.1</ele>
        <time>2022-11-30T15:27:18Z</time>
      </trkpt>
      <trkpt lat="43.51153" lon="6.2806">
        <ele>211.6</ele>
        <time>2022-11-30T15:27:23Z</time>
      </trkpt>
      <trkpt lat="43.51157" lon="6.28064">
        <ele>211.5</ele>
        <time>2022-11-30T15:27:28Z</time>
      </trkpt>
      <trkpt lat="43.51163" lon="6.28066">
        <ele>211.6</ele>
        <time>2022-11-30T15:27:33Z</time>
      </trkpt>
      <trkpt lat="43.51169" lon="6.28067">
        <ele>211.4</ele>
        <time>2022-11-30T15:27:40Z</time>
      </trkpt>
      <trkpt lat="43.51173" lon="6.28072">
        <ele>211.2</ele>
        <time>2022-11-30T15:27:44Z</time>
      </trkpt>
      <trkpt lat="43.51178" lon="6.28071">
        <ele>211.6</ele>
        <time>2022-11-30T15:27:47Z</time>
      </trkpt>
      <trkpt lat="43.51182" lon="6.28073">
        <ele>212</ele>
        <time>2022-11-30T15:27:53Z</time>
      </trkpt>
      <trkpt lat="43.51188" lon="6.28073">
        <ele>212.1</ele>
        <time>2022-11-30T15:27:58Z</time>
      </trkpt>
      <trkpt lat="43.51193" lon="6.28074">
        <ele>212.3</ele>
        <time>2022-11-30T15:28:02Z</time>
      </trkpt>
      <trkpt lat="43.51199" lon="6.28074">
        <ele>212.4</ele>
        <time>2022-11-30T15:28:06Z</time>
      </trkpt>
      <trkpt lat="43.51201" lon="6.2808">
        <ele>212.3</ele>
        <time>2022-11-30T15:28:10Z</time>
      </trkpt>
      <trkpt lat="43.51205" lon="6.28083">
        <ele>212.9</ele>
        <time>2022-11-30T15:28:15Z</time>
      </trkpt>
      <trkpt lat="43.51209" lon="6.28089">
        <ele>212.8</ele>
        <time>2022-11-30T15:28:21Z</time>
      </trkpt>
      <trkpt lat="43.51211" lon="6.28095">
        <ele>213.2</ele>
        <time>2022-11-30T15:28:26Z</time>
      </trkpt>
      <trkpt lat="43.51217" lon="6.28095">
        <ele>213.2</ele>
        <time>2022-11-30T15:28:29Z</time>
      </trkpt>
      <trkpt lat="43.51222" lon="6.28098">
        <ele>213.1</ele>
        <time>2022-11-30T15:28:34Z</time>
      </trkpt>
      <trkpt lat="43.51226" lon="6.281">
        <ele>213.5</ele>
        <time>2022-11-30T15:28:37Z</time>
      </trkpt>
      <trkpt lat="43.5123" lon="6.28104">
        <ele>213.8</ele>
        <time>2022-11-30T15:28:41Z</time>
      </trkpt>
      <trkpt lat="43.51232" lon="6.28109">
        <ele>214.2</ele>
        <time>2022-11-30T15:28:46Z</time>
      </trkpt>
      <trkpt lat="43.51236" lon="6.28112">
        <ele>214.4</ele>
        <time>2022-11-30T15:28:52Z</time>
      </trkpt>
      <trkpt lat="43.51242" lon="6.28112">
        <ele>214.5</ele>
        <time>2022-11-30T15:28:57Z</time>
      </trkpt>
      <trkpt lat="43.51247" lon="6.28115">
        <ele>214.8</ele>
        <time>2022-11-30T15:29:03Z</time>
      </trkpt>
      <trkpt lat="43.51252" lon="6.28115">
        <ele>214.5</ele>
        <time>2022-11-30T15:29:06Z</time>
      </trkpt>
      <trkpt lat="43.51258" lon="6.28116">
        <ele>214.3</ele>
        <time>2022-11-30T15:29:12Z</time>
      </trkpt>
      <trkpt lat="43.51263" lon="6.28115">
        <ele>213.8</ele>
        <time>2022-11-30T15:29:16Z</time>
      </trkpt>
      <trkpt lat="43.51267" lon="6.28117">
        <ele>213.9</ele>
        <time>2022-11-30T15:29:20Z</time>
      </trkpt>
      <trkpt lat="43.51273" lon="6.28117">
        <ele>213.1</ele>
        <time>2022-11-30T15:29:23Z</time>
      </trkpt>
      <trkpt lat="43.51278" lon="6.28116">
        <ele>213</ele>
        <time>2022-11-30T15:29:27Z</time>
      </trkpt>
      <trkpt lat="43.51282" lon="6.28118">
        <ele>212.9</ele>
        <time>2022-11-30T15:29:33Z</time>
      </trkpt>
      <trkpt lat="43.51287" lon="6.28116">
        <ele>212.6</ele>
        <time>2022-11-30T15:29:36Z</time>
      </trkpt>
      <trkpt lat="43.51293" lon="6.28115">
        <ele>212.3</ele>
        <time>2022-11-30T15:29:41Z</time>
      </trkpt>
      <trkpt lat="43.51298" lon="6.28115">
        <ele>212.1</ele>
        <time>2022-11-30T15:29:45Z</time>
      </trkpt>
      <trkpt lat="43.51303" lon="6.28114">
        <ele>211.2</ele>
        <time>2022-11-30T15:29:49Z</time>
      </trkpt>
      <trkpt lat="43.51308" lon="6.28115">
        <ele>210.6</ele>
        <time>2022-11-30T15:29:56Z</time>
      </trkpt>
      <trkpt lat="43.51313" lon="6.28114">
        <ele>210</ele>
        <time>2022-11-30T15:30:02Z</time>
      </trkpt>
      <trkpt lat="43.51319" lon="6.28113">
        <ele>209.4</ele>
        <time>2022-11-30T15:30:08Z</time>
      </trkpt>
      <trkpt lat="43.51326" lon="6.28113">
        <ele>207.8</ele>
        <time>2022-11-30T15:30:13Z</time>
      </trkpt>
      <trkpt lat="43.5133" lon="6.28115">
        <ele>206.6</ele>
        <time>2022-11-30T15:30:20Z</time>
      </trkpt>
      <trkpt lat="43.51335" lon="6.28116">
        <ele>207.5</ele>
        <time>2022-11-30T15:30:27Z</time>
      </trkpt>
      <trkpt lat="43.5134" lon="6.28117">
        <ele>208.4</ele>
        <time>2022-11-30T15:30:32Z</time>
      </trkpt>
      <trkpt lat="43.51345" lon="6.2812">
        <ele>208.3</ele>
        <time>2022-11-30T15:30:37Z</time>
      </trkpt>
      <trkpt lat="43.51349" lon="6.28122">
        <ele>208.6</ele>
        <time>2022-11-30T15:30:41Z</time>
      </trkpt>
      <trkpt lat="43.51354" lon="6.28123">
        <ele>208.8</ele>
        <time>2022-11-30T15:30:45Z</time>
      </trkpt>
      <trkpt lat="43.51359" lon="6.28124">
        <ele>209</ele>
        <time>2022-11-30T15:30:48Z</time>
      </trkpt>
      <trkpt lat="43.51364" lon="6.28124">
        <ele>208.8</ele>
        <time>2022-11-30T15:30:51Z</time>
      </trkpt>
      <trkpt lat="43.51369" lon="6.28127">
        <ele>209.1</ele>
        <time>2022-11-30T15:30:55Z</time>
      </trkpt>
      <trkpt lat="43.51374" lon="6.2813">
        <ele>208.6</ele>
        <time>2022-11-30T15:31:00Z</time>
      </trkpt>
      <trkpt lat="43.51379" lon="6.28131">
        <ele>208.7</ele>
        <time>2022-11-30T15:31:04Z</time>
      </trkpt>
      <trkpt lat="43.51384" lon="6.28134">
        <ele>208.3</ele>
        <time>2022-11-30T15:31:09Z</time>
      </trkpt>
      <trkpt lat="43.51389" lon="6.28134">
        <ele>208.3</ele>
        <time>2022-11-30T15:31:13Z</time>
      </trkpt>
      <trkpt lat="43.51394" lon="6.28136">
        <ele>208.5</ele>
        <time>2022-11-30T15:31:18Z</time>
      </trkpt>
      <trkpt lat="43.51399" lon="6.28139">
        <ele>207.5</ele>
        <time>2022-11-30T15:31:27Z</time>
      </trkpt>
      <trkpt lat="43.51404" lon="6.28139">
        <ele>206.7</ele>
        <time>2022-11-30T15:31:45Z</time>
      </trkpt>
      <trkpt lat="43.51408" lon="6.2814">
        <ele>208.3</ele>
        <time>2022-11-30T15:31:54Z</time>
      </trkpt>
      <trkpt lat="43.51413" lon="6.28141">
        <ele>207.2</ele>
        <time>2022-11-30T15:32:08Z</time>
      </trkpt>
      <trkpt lat="43.51418" lon="6.28143">
        <ele>207.9</ele>
        <time>2022-11-30T15:32:47Z</time>
      </trkpt>
      <trkpt lat="43.51421" lon="6.28147">
        <ele>208.1</ele>
        <time>2022-11-30T15:32:55Z</time>
      </trkpt>
      <trkpt lat="43.51426" lon="6.28148">
        <ele>208.8</ele>
        <time>2022-11-30T15:33:04Z</time>
      </trkpt>
      <trkpt lat="43.51432" lon="6.28148">
        <ele>208.2</ele>
        <time>2022-11-30T15:33:09Z</time>
      </trkpt>
      <trkpt lat="43.51436" lon="6.28149">
        <ele>208.9</ele>
        <time>2022-11-30T15:33:13Z</time>
      </trkpt>
      <trkpt lat="43.51441" lon="6.2815">
        <ele>209.5</ele>
        <time>2022-11-30T15:33:19Z</time>
      </trkpt>
      <trkpt lat="43.51447" lon="6.28149">
        <ele>209.9</ele>
        <time>2022-11-30T15:33:23Z</time>
      </trkpt>
      <trkpt lat="43.51453" lon="6.28149">
        <ele>209.4</ele>
        <time>2022-11-30T15:33:27Z</time>
      </trkpt>
      <trkpt lat="43.51458" lon="6.28149">
        <ele>209.2</ele>
        <time>2022-11-30T15:33:31Z</time>
      </trkpt>
      <trkpt lat="43.51463" lon="6.28148">
        <ele>209.5</ele>
        <time>2022-11-30T15:33:36Z</time>
      </trkpt>
      <trkpt lat="43.51468" lon="6.2815">
        <ele>209.2</ele>
        <time>2022-11-30T15:33:41Z</time>
      </trkpt>
      <trkpt lat="43.51473" lon="6.28151">
        <ele>209.3</ele>
        <time>2022-11-30T15:33:46Z</time>
      </trkpt>
      <trkpt lat="43.51478" lon="6.28152">
        <ele>209.4</ele>
        <time>2022-11-30T15:33:51Z</time>
      </trkpt>
      <trkpt lat="43.51482" lon="6.28155">
        <ele>209.6</ele>
        <time>2022-11-30T15:33:56Z</time>
      </trkpt>
      <trkpt lat="43.51484" lon="6.28162">
        <ele>209.7</ele>
        <time>2022-11-30T15:34:04Z</time>
      </trkpt>
      <trkpt lat="43.51489" lon="6.28162">
        <ele>211.8</ele>
        <time>2022-11-30T15:34:21Z</time>
      </trkpt>
      <trkpt lat="43.51494" lon="6.28163">
        <ele>211.8</ele>
        <time>2022-11-30T15:34:40Z</time>
      </trkpt>
      <trkpt lat="43.51498" lon="6.28164">
        <ele>212.3</ele>
        <time>2022-11-30T15:34:48Z</time>
      </trkpt>
      <trkpt lat="43.51503" lon="6.28161">
        <ele>214.3</ele>
        <time>2022-11-30T15:34:54Z</time>
      </trkpt>
      <trkpt lat="43.51507" lon="6.28162">
        <ele>215.4</ele>
        <time>2022-11-30T15:35:02Z</time>
      </trkpt>
      <trkpt lat="43.5151" lon="6.28168">
        <ele>216.5</ele>
        <time>2022-11-30T15:35:09Z</time>
      </trkpt>
      <trkpt lat="43.51511" lon="6.28174">
        <ele>216.7</ele>
        <time>2022-11-30T15:35:18Z</time>
      </trkpt>
      <trkpt lat="43.51513" lon="6.2818">
        <ele>217.4</ele>
        <time>2022-11-30T15:35:25Z</time>
      </trkpt>
      <trkpt lat="43.51517" lon="6.28183">
        <ele>217.3</ele>
        <time>2022-11-30T15:35:37Z</time>
      </trkpt>
      <trkpt lat="43.51522" lon="6.28187">
        <ele>217.8</ele>
        <time>2022-11-30T15:35:44Z</time>
      </trkpt>
      <trkpt lat="43.51526" lon="6.2819">
        <ele>218</ele>
        <time>2022-11-30T15:35:49Z</time>
      </trkpt>
      <trkpt lat="43.51531" lon="6.28194">
        <ele>218.5</ele>
        <time>2022-11-30T15:35:54Z</time>
      </trkpt>
      <trkpt lat="43.51536" lon="6.28198">
        <ele>218.8</ele>
        <time>2022-11-30T15:35:59Z</time>
      </trkpt>
      <trkpt lat="43.5154" lon="6.28202">
        <ele>218.8</ele>
        <time>2022-11-30T15:36:04Z</time>
      </trkpt>
      <trkpt lat="43.51544" lon="6.28206">
        <ele>220</ele>
        <time>2022-11-30T15:36:09Z</time>
      </trkpt>
      <trkpt lat="43.51548" lon="6.28208">
        <ele>220.8</ele>
        <time>2022-11-30T15:36:14Z</time>
      </trkpt>
      <trkpt lat="43.51553" lon="6.2821">
        <ele>221.8</ele>
        <time>2022-11-30T15:36:20Z</time>
      </trkpt>
      <trkpt lat="43.51558" lon="6.28211">
        <ele>223.9</ele>
        <time>2022-11-30T15:36:27Z</time>
      </trkpt>
      <trkpt lat="43.51563" lon="6.28212">
        <ele>224.2</ele>
        <time>2022-11-30T15:36:33Z</time>
      </trkpt>
      <trkpt lat="43.51568" lon="6.28213">
        <ele>225.4</ele>
        <time>2022-11-30T15:36:38Z</time>
      </trkpt>
      <trkpt lat="43.51573" lon="6.28216">
        <ele>225.9</ele>
        <time>2022-11-30T15:36:44Z</time>
      </trkpt>
      <trkpt lat="43.51577" lon="6.28219">
        <ele>227.4</ele>
        <time>2022-11-30T15:36:51Z</time>
      </trkpt>
      <trkpt lat="43.51581" lon="6.28223">
        <ele>228.1</ele>
        <time>2022-11-30T15:36:57Z</time>
      </trkpt>
      <trkpt lat="43.51586" lon="6.28222">
        <ele>228.3</ele>
        <time>2022-11-30T15:37:10Z</time>
      </trkpt>
      <trkpt lat="43.51589" lon="6.28226">
        <ele>227.9</ele>
        <time>2022-11-30T15:37:35Z</time>
      </trkpt>
      <trkpt lat="43.51594" lon="6.28226">
        <ele>226.7</ele>
        <time>2022-11-30T15:38:24Z</time>
      </trkpt>
      <trkpt lat="43.51596" lon="6.28232">
        <ele>226.7</ele>
        <time>2022-11-30T15:38:31Z</time>
      </trkpt>
      <trkpt lat="43.51598" lon="6.28239">
        <ele>226.6</ele>
        <time>2022-11-30T15:38:38Z</time>
      </trkpt>
      <trkpt lat="43.516" lon="6.28246">
        <ele>226.2</ele>
        <time>2022-11-30T15:38:45Z</time>
      </trkpt>
      <trkpt lat="43.51599" lon="6.28253">
        <ele>225.8</ele>
        <time>2022-11-30T15:38:52Z</time>
      </trkpt>
      <trkpt lat="43.51599" lon="6.28259">
        <ele>225.3</ele>
        <time>2022-11-30T15:38:58Z</time>
      </trkpt>
      <trkpt lat="43.51597" lon="6.28266">
        <ele>225.5</ele>
        <time>2022-11-30T15:39:04Z</time>
      </trkpt>
      <trkpt lat="43.51595" lon="6.28271">
        <ele>225</ele>
        <time>2022-11-30T15:39:09Z</time>
      </trkpt>
      <trkpt lat="43.51593" lon="6.28277">
        <ele>224.5</ele>
        <time>2022-11-30T15:39:14Z</time>
      </trkpt>
      <trkpt lat="43.51591" lon="6.28283">
        <ele>224.2</ele>
        <time>2022-11-30T15:39:20Z</time>
      </trkpt>
      <trkpt lat="43.51588" lon="6.28288">
        <ele>223.1</ele>
        <time>2022-11-30T15:39:25Z</time>
      </trkpt>
      <trkpt lat="43.51586" lon="6.28295">
        <ele>223.1</ele>
        <time>2022-11-30T15:39:30Z</time>
      </trkpt>
      <trkpt lat="43.51587" lon="6.28302">
        <ele>222.2</ele>
        <time>2022-11-30T15:39:34Z</time>
      </trkpt>
      <trkpt lat="43.5159" lon="6.28307">
        <ele>221.7</ele>
        <time>2022-11-30T15:39:37Z</time>
      </trkpt>
      <trkpt lat="43.51595" lon="6.28309">
        <ele>222.3</ele>
        <time>2022-11-30T15:39:42Z</time>
      </trkpt>
      <trkpt lat="43.516" lon="6.28309">
        <ele>220.8</ele>
        <time>2022-11-30T15:39:48Z</time>
      </trkpt>
      <trkpt lat="43.51605" lon="6.28309">
        <ele>220.7</ele>
        <time>2022-11-30T15:39:55Z</time>
      </trkpt>
      <trkpt lat="43.51609" lon="6.28307">
        <ele>219.7</ele>
        <time>2022-11-30T15:40:00Z</time>
      </trkpt>
      <trkpt lat="43.51614" lon="6.28306">
        <ele>219.8</ele>
        <time>2022-11-30T15:40:05Z</time>
      </trkpt>
      <trkpt lat="43.51619" lon="6.28305">
        <ele>219.4</ele>
        <time>2022-11-30T15:40:11Z</time>
      </trkpt>
      <trkpt lat="43.51624" lon="6.28304">
        <ele>219.6</ele>
        <time>2022-11-30T15:40:15Z</time>
      </trkpt>
      <trkpt lat="43.51628" lon="6.28303">
        <ele>218.8</ele>
        <time>2022-11-30T15:40:20Z</time>
      </trkpt>
      <trkpt lat="43.51633" lon="6.283">
        <ele>218.5</ele>
        <time>2022-11-30T15:40:24Z</time>
      </trkpt>
      <trkpt lat="43.51637" lon="6.28299">
        <ele>218.8</ele>
        <time>2022-11-30T15:40:29Z</time>
      </trkpt>
      <trkpt lat="43.51642" lon="6.28298">
        <ele>219.3</ele>
        <time>2022-11-30T15:40:36Z</time>
      </trkpt>
      <trkpt lat="43.51647" lon="6.28295">
        <ele>219.2</ele>
        <time>2022-11-30T15:40:41Z</time>
      </trkpt>
      <trkpt lat="43.51652" lon="6.28293">
        <ele>218.5</ele>
        <time>2022-11-30T15:40:45Z</time>
      </trkpt>
      <trkpt lat="43.51656" lon="6.28291">
        <ele>218.5</ele>
        <time>2022-11-30T15:40:49Z</time>
      </trkpt>
      <trkpt lat="43.5166" lon="6.28288">
        <ele>218.9</ele>
        <time>2022-11-30T15:40:53Z</time>
      </trkpt>
      <trkpt lat="43.51666" lon="6.28289">
        <ele>217.9</ele>
        <time>2022-11-30T15:40:59Z</time>
      </trkpt>
      <trkpt lat="43.51669" lon="6.28293">
        <ele>217.7</ele>
        <time>2022-11-30T15:41:07Z</time>
      </trkpt>
      <trkpt lat="43.51673" lon="6.28298">
        <ele>217.7</ele>
        <time>2022-11-30T15:41:13Z</time>
      </trkpt>
      <trkpt lat="43.51671" lon="6.28304">
        <ele>217.3</ele>
        <time>2022-11-30T15:41:20Z</time>
      </trkpt>
      <trkpt lat="43.51666" lon="6.28307">
        <ele>217.9</ele>
        <time>2022-11-30T15:41:26Z</time>
      </trkpt>
      <trkpt lat="43.51661" lon="6.2831">
        <ele>217.2</ele>
        <time>2022-11-30T15:41:31Z</time>
      </trkpt>
      <trkpt lat="43.51657" lon="6.28314">
        <ele>217.6</ele>
        <time>2022-11-30T15:41:38Z</time>
      </trkpt>
      <trkpt lat="43.51655" lon="6.28319">
        <ele>217.4</ele>
        <time>2022-11-30T15:41:42Z</time>
      </trkpt>
      <trkpt lat="43.51651" lon="6.28324">
        <ele>218</ele>
        <time>2022-11-30T15:41:46Z</time>
      </trkpt>
      <trkpt lat="43.51647" lon="6.28328">
        <ele>218.3</ele>
        <time>2022-11-30T15:41:51Z</time>
      </trkpt>
      <trkpt lat="43.51643" lon="6.28334">
        <ele>218</ele>
        <time>2022-11-30T15:41:56Z</time>
      </trkpt>
      <trkpt lat="43.51641" lon="6.28341">
        <ele>217.9</ele>
        <time>2022-11-30T15:42:01Z</time>
      </trkpt>
      <trkpt lat="43.51639" lon="6.28347">
        <ele>217.8</ele>
        <time>2022-11-30T15:42:06Z</time>
      </trkpt>
      <trkpt lat="43.51636" lon="6.28354">
        <ele>217.4</ele>
        <time>2022-11-30T15:42:11Z</time>
      </trkpt>
      <trkpt lat="43.51634" lon="6.28361">
        <ele>218.4</ele>
        <time>2022-11-30T15:42:16Z</time>
      </trkpt>
      <trkpt lat="43.51631" lon="6.28366">
        <ele>218</ele>
        <time>2022-11-30T15:42:20Z</time>
      </trkpt>
      <trkpt lat="43.51629" lon="6.28372">
        <ele>217</ele>
        <time>2022-11-30T15:42:24Z</time>
      </trkpt>
      <trkpt lat="43.51627" lon="6.28379">
        <ele>217.1</ele>
        <time>2022-11-30T15:42:28Z</time>
      </trkpt>
      <trkpt lat="43.51625" lon="6.28386">
        <ele>217.5</ele>
        <time>2022-11-30T15:42:32Z</time>
      </trkpt>
      <trkpt lat="43.51623" lon="6.28393">
        <ele>217.5</ele>
        <time>2022-11-30T15:42:36Z</time>
      </trkpt>
      <trkpt lat="43.5162" lon="6.28398">
        <ele>217.1</ele>
        <time>2022-11-30T15:42:40Z</time>
      </trkpt>
      <trkpt lat="43.51617" lon="6.28404">
        <ele>217</ele>
        <time>2022-11-30T15:42:45Z</time>
      </trkpt>
      <trkpt lat="43.51614" lon="6.2841">
        <ele>217.2</ele>
        <time>2022-11-30T15:42:50Z</time>
      </trkpt>
      <trkpt lat="43.5161" lon="6.28416">
        <ele>217.1</ele>
        <time>2022-11-30T15:42:55Z</time>
      </trkpt>
      <trkpt lat="43.51607" lon="6.28421">
        <ele>217</ele>
        <time>2022-11-30T15:43:00Z</time>
      </trkpt>
      <trkpt lat="43.51604" lon="6.28426">
        <ele>217.2</ele>
        <time>2022-11-30T15:43:04Z</time>
      </trkpt>
      <trkpt lat="43.51601" lon="6.2843">
        <ele>217.3</ele>
        <time>2022-11-30T15:43:07Z</time>
      </trkpt>
      <trkpt lat="43.51598" lon="6.28435">
        <ele>217.1</ele>
        <time>2022-11-30T15:43:10Z</time>
      </trkpt>
      <trkpt lat="43.51595" lon="6.28441">
        <ele>217</ele>
        <time>2022-11-30T15:43:14Z</time>
      </trkpt>
      <trkpt lat="43.51592" lon="6.28448">
        <ele>217.1</ele>
        <time>2022-11-30T15:43:18Z</time>
      </trkpt>
      <trkpt lat="43.51589" lon="6.28453">
        <ele>216.8</ele>
        <time>2022-11-30T15:43:22Z</time>
      </trkpt>
      <trkpt lat="43.51586" lon="6.2846">
        <ele>217.3</ele>
        <time>2022-11-30T15:43:26Z</time>
      </trkpt>
      <trkpt lat="43.51583" lon="6.28466">
        <ele>217.4</ele>
        <time>2022-11-30T15:43:30Z</time>
      </trkpt>
      <trkpt lat="43.51582" lon="6.28473">
        <ele>217.2</ele>
        <time>2022-11-30T15:43:35Z</time>
      </trkpt>
      <trkpt lat="43.51578" lon="6.28479">
        <ele>217.7</ele>
        <time>2022-11-30T15:43:40Z</time>
      </trkpt>
      <trkpt lat="43.51575" lon="6.28485">
        <ele>218</ele>
        <time>2022-11-30T15:43:45Z</time>
      </trkpt>
      <trkpt lat="43.51572" lon="6.28491">
        <ele>218</ele>
        <time>2022-11-30T15:43:49Z</time>
      </trkpt>
      <trkpt lat="43.5157" lon="6.28496">
        <ele>218.6</ele>
        <time>2022-11-30T15:43:53Z</time>
      </trkpt>
      <trkpt lat="43.51566" lon="6.28501">
        <ele>218.6</ele>
        <time>2022-11-30T15:43:58Z</time>
      </trkpt>
      <trkpt lat="43.51563" lon="6.28506">
        <ele>219.2</ele>
        <time>2022-11-30T15:44:02Z</time>
      </trkpt>
      <trkpt lat="43.51561" lon="6.28512">
        <ele>219.7</ele>
        <time>2022-11-30T15:44:07Z</time>
      </trkpt>
      <trkpt lat="43.51557" lon="6.28518">
        <ele>219.8</ele>
        <time>2022-11-30T15:44:12Z</time>
      </trkpt>
      <trkpt lat="43.51554" lon="6.28523">
        <ele>220.3</ele>
        <time>2022-11-30T15:44:16Z</time>
      </trkpt>
      <trkpt lat="43.51551" lon="6.28528">
        <ele>220.9</ele>
        <time>2022-11-30T15:44:20Z</time>
      </trkpt>
      <trkpt lat="43.51548" lon="6.28534">
        <ele>220.6</ele>
        <time>2022-11-30T15:44:24Z</time>
      </trkpt>
      <trkpt lat="43.51546" lon="6.28541">
        <ele>221.4</ele>
        <time>2022-11-30T15:44:29Z</time>
      </trkpt>
      <trkpt lat="43.51543" lon="6.28547">
        <ele>221.3</ele>
        <time>2022-11-30T15:44:34Z</time>
      </trkpt>
      <trkpt lat="43.51542" lon="6.28555">
        <ele>221.9</ele>
        <time>2022-11-30T15:44:39Z</time>
      </trkpt>
      <trkpt lat="43.5154" lon="6.28561">
        <ele>221.9</ele>
        <time>2022-11-30T15:44:43Z</time>
      </trkpt>
      <trkpt lat="43.51538" lon="6.28567">
        <ele>221.9</ele>
        <time>2022-11-30T15:44:47Z</time>
      </trkpt>
      <trkpt lat="43.51536" lon="6.28573">
        <ele>221.8</ele>
        <time>2022-11-30T15:44:51Z</time>
      </trkpt>
      <trkpt lat="43.51534" lon="6.2858">
        <ele>221.7</ele>
        <time>2022-11-30T15:44:55Z</time>
      </trkpt>
      <trkpt lat="43.51532" lon="6.28586">
        <ele>221.7</ele>
        <time>2022-11-30T15:44:59Z</time>
      </trkpt>
      <trkpt lat="43.5153" lon="6.28592">
        <ele>220.8</ele>
        <time>2022-11-30T15:45:03Z</time>
      </trkpt>
      <trkpt lat="43.51528" lon="6.28599">
        <ele>220.3</ele>
        <time>2022-11-30T15:45:08Z</time>
      </trkpt>
      <trkpt lat="43.51526" lon="6.28605">
        <ele>220.6</ele>
        <time>2022-11-30T15:45:12Z</time>
      </trkpt>
      <trkpt lat="43.51525" lon="6.28612">
        <ele>220.2</ele>
        <time>2022-11-30T15:45:16Z</time>
      </trkpt>
      <trkpt lat="43.51524" lon="6.28618">
        <ele>219.7</ele>
        <time>2022-11-30T15:45:20Z</time>
      </trkpt>
      <trkpt lat="43.51522" lon="6.28624">
        <ele>219.8</ele>
        <time>2022-11-30T15:45:24Z</time>
      </trkpt>
      <trkpt lat="43.5152" lon="6.28631">
        <ele>219.4</ele>
        <time>2022-11-30T15:45:29Z</time>
      </trkpt>
      <trkpt lat="43.51519" lon="6.28637">
        <ele>219.3</ele>
        <time>2022-11-30T15:45:33Z</time>
      </trkpt>
      <trkpt lat="43.51517" lon="6.28643">
        <ele>218.7</ele>
        <time>2022-11-30T15:45:37Z</time>
      </trkpt>
      <trkpt lat="43.51517" lon="6.2865">
        <ele>218.6</ele>
        <time>2022-11-30T15:45:41Z</time>
      </trkpt>
      <trkpt lat="43.51518" lon="6.28658">
        <ele>218.6</ele>
        <time>2022-11-30T15:45:46Z</time>
      </trkpt>
      <trkpt lat="43.51521" lon="6.28662">
        <ele>218.1</ele>
        <time>2022-11-30T15:45:51Z</time>
      </trkpt>
      <trkpt lat="43.51523" lon="6.28668">
        <ele>218.1</ele>
        <time>2022-11-30T15:45:57Z</time>
      </trkpt>
      <trkpt lat="43.51521" lon="6.28674">
        <ele>218.3</ele>
        <time>2022-11-30T15:46:02Z</time>
      </trkpt>
      <trkpt lat="43.51518" lon="6.2868">
        <ele>218.4</ele>
        <time>2022-11-30T15:46:09Z</time>
      </trkpt>
      <trkpt lat="43.51515" lon="6.28685">
        <ele>218.3</ele>
        <time>2022-11-30T15:46:14Z</time>
      </trkpt>
      <trkpt lat="43.51512" lon="6.28691">
        <ele>218.4</ele>
        <time>2022-11-30T15:46:18Z</time>
      </trkpt>
      <trkpt lat="43.51508" lon="6.28697">
        <ele>218.4</ele>
        <time>2022-11-30T15:46:22Z</time>
      </trkpt>
      <trkpt lat="43.51506" lon="6.28704">
        <ele>218.2</ele>
        <time>2022-11-30T15:46:26Z</time>
      </trkpt>
      <trkpt lat="43.51505" lon="6.28711">
        <ele>218.4</ele>
        <time>2022-11-30T15:46:30Z</time>
      </trkpt>
      <trkpt lat="43.51503" lon="6.28717">
        <ele>218.5</ele>
        <time>2022-11-30T15:46:34Z</time>
      </trkpt>
      <trkpt lat="43.515" lon="6.28723">
        <ele>218</ele>
        <time>2022-11-30T15:46:38Z</time>
      </trkpt>
      <trkpt lat="43.51499" lon="6.2873">
        <ele>218</ele>
        <time>2022-11-30T15:46:43Z</time>
      </trkpt>
      <trkpt lat="43.51496" lon="6.28736">
        <ele>217.8</ele>
        <time>2022-11-30T15:46:47Z</time>
      </trkpt>
      <trkpt lat="43.51492" lon="6.28741">
        <ele>218.2</ele>
        <time>2022-11-30T15:46:51Z</time>
      </trkpt>
      <trkpt lat="43.5149" lon="6.28747">
        <ele>218.2</ele>
        <time>2022-11-30T15:46:54Z</time>
      </trkpt>
      <trkpt lat="43.51488" lon="6.28753">
        <ele>218.2</ele>
        <time>2022-11-30T15:46:58Z</time>
      </trkpt>
      <trkpt lat="43.51486" lon="6.28759">
        <ele>218.1</ele>
        <time>2022-11-30T15:47:02Z</time>
      </trkpt>
      <trkpt lat="43.51481" lon="6.28763">
        <ele>218.3</ele>
        <time>2022-11-30T15:47:06Z</time>
      </trkpt>
      <trkpt lat="43.51479" lon="6.28769">
        <ele>217.8</ele>
        <time>2022-11-30T15:47:10Z</time>
      </trkpt>
      <trkpt lat="43.51475" lon="6.28774">
        <ele>217.8</ele>
        <time>2022-11-30T15:47:14Z</time>
      </trkpt>
      <trkpt lat="43.51472" lon="6.28778">
        <ele>217.7</ele>
        <time>2022-11-30T15:47:18Z</time>
      </trkpt>
      <trkpt lat="43.5147" lon="6.28784">
        <ele>217.6</ele>
        <time>2022-11-30T15:47:22Z</time>
      </trkpt>
      <trkpt lat="43.51466" lon="6.2879">
        <ele>217.4</ele>
        <time>2022-11-30T15:47:27Z</time>
      </trkpt>
      <trkpt lat="43.51461" lon="6.28794">
        <ele>217.5</ele>
        <time>2022-11-30T15:47:32Z</time>
      </trkpt>
      <trkpt lat="43.51457" lon="6.28797">
        <ele>217.8</ele>
        <time>2022-11-30T15:47:38Z</time>
      </trkpt>
      <trkpt lat="43.51453" lon="6.28801">
        <ele>217.8</ele>
        <time>2022-11-30T15:47:48Z</time>
      </trkpt>
      <trkpt lat="43.51449" lon="6.28805">
        <ele>217.8</ele>
        <time>2022-11-30T15:47:53Z</time>
      </trkpt>
      <trkpt lat="43.51446" lon="6.2881">
        <ele>217.5</ele>
        <time>2022-11-30T15:47:58Z</time>
      </trkpt>
      <trkpt lat="43.51441" lon="6.28814">
        <ele>217.6</ele>
        <time>2022-11-30T15:48:03Z</time>
      </trkpt>
      <trkpt lat="43.51436" lon="6.28813">
        <ele>217.5</ele>
        <time>2022-11-30T15:48:07Z</time>
      </trkpt>
      <trkpt lat="43.51431" lon="6.28813">
        <ele>217.7</ele>
        <time>2022-11-30T15:48:11Z</time>
      </trkpt>
      <trkpt lat="43.51426" lon="6.28815">
        <ele>217.8</ele>
        <time>2022-11-30T15:48:16Z</time>
      </trkpt>
      <trkpt lat="43.51421" lon="6.28814">
        <ele>217.6</ele>
        <time>2022-11-30T15:48:22Z</time>
      </trkpt>
      <trkpt lat="43.51416" lon="6.28814">
        <ele>217.4</ele>
        <time>2022-11-30T15:48:27Z</time>
      </trkpt>
      <trkpt lat="43.51411" lon="6.28813">
        <ele>217.3</ele>
        <time>2022-11-30T15:48:31Z</time>
      </trkpt>
      <trkpt lat="43.51406" lon="6.28814">
        <ele>217.3</ele>
        <time>2022-11-30T15:48:34Z</time>
      </trkpt>
      <trkpt lat="43.51401" lon="6.28812">
        <ele>217.2</ele>
        <time>2022-11-30T15:48:37Z</time>
      </trkpt>
      <trkpt lat="43.51396" lon="6.28812">
        <ele>216.7</ele>
        <time>2022-11-30T15:48:41Z</time>
      </trkpt>
      <trkpt lat="43.51392" lon="6.28814">
        <ele>216.6</ele>
        <time>2022-11-30T15:48:44Z</time>
      </trkpt>
      <trkpt lat="43.51386" lon="6.28816">
        <ele>216.2</ele>
        <time>2022-11-30T15:48:48Z</time>
      </trkpt>
      <trkpt lat="43.5138" lon="6.28816">
        <ele>216.1</ele>
        <time>2022-11-30T15:48:52Z</time>
      </trkpt>
      <trkpt lat="43.51374" lon="6.28817">
        <ele>215.7</ele>
        <time>2022-11-30T15:48:56Z</time>
      </trkpt>
      <trkpt lat="43.5137" lon="6.28814">
        <ele>216.2</ele>
        <time>2022-11-30T15:49:01Z</time>
      </trkpt>
      <trkpt lat="43.51365" lon="6.28812">
        <ele>215.4</ele>
        <time>2022-11-30T15:49:07Z</time>
      </trkpt>
      <trkpt lat="43.5136" lon="6.2881">
        <ele>215.2</ele>
        <time>2022-11-30T15:49:11Z</time>
      </trkpt>
      <trkpt lat="43.51355" lon="6.28811">
        <ele>215.9</ele>
        <time>2022-11-30T15:49:16Z</time>
      </trkpt>
      <trkpt lat="43.51349" lon="6.28814">
        <ele>215.8</ele>
        <time>2022-11-30T15:49:19Z</time>
      </trkpt>
      <trkpt lat="43.51344" lon="6.28815">
        <ele>215.7</ele>
        <time>2022-11-30T15:49:23Z</time>
      </trkpt>
      <trkpt lat="43.51339" lon="6.28819">
        <ele>215.6</ele>
        <time>2022-11-30T15:49:27Z</time>
      </trkpt>
      <trkpt lat="43.51335" lon="6.28821">
        <ele>215.4</ele>
        <time>2022-11-30T15:49:32Z</time>
      </trkpt>
      <trkpt lat="43.5133" lon="6.28824">
        <ele>214.3</ele>
        <time>2022-11-30T15:49:37Z</time>
      </trkpt>
      <trkpt lat="43.51329" lon="6.2883">
        <ele>213.6</ele>
        <time>2022-11-30T15:49:46Z</time>
      </trkpt>
      <trkpt lat="43.51326" lon="6.28836">
        <ele>213.2</ele>
        <time>2022-11-30T15:49:53Z</time>
      </trkpt>
      <trkpt lat="43.5132" lon="6.28841">
        <ele>212.8</ele>
        <time>2022-11-30T15:49:56Z</time>
      </trkpt>
      <trkpt lat="43.51314" lon="6.28843">
        <ele>212.1</ele>
        <time>2022-11-30T15:49:59Z</time>
      </trkpt>
      <trkpt lat="43.51309" lon="6.28845">
        <ele>211.9</ele>
        <time>2022-11-30T15:50:03Z</time>
      </trkpt>
      <trkpt lat="43.51305" lon="6.28843">
        <ele>211.1</ele>
        <time>2022-11-30T15:50:07Z</time>
      </trkpt>
      <trkpt lat="43.513" lon="6.28842">
        <ele>210.8</ele>
        <time>2022-11-30T15:50:11Z</time>
      </trkpt>
      <trkpt lat="43.51295" lon="6.28842">
        <ele>210.8</ele>
        <time>2022-11-30T15:50:15Z</time>
      </trkpt>
      <trkpt lat="43.5129" lon="6.28843">
        <ele>210.1</ele>
        <time>2022-11-30T15:50:20Z</time>
      </trkpt>
      <trkpt lat="43.51285" lon="6.28843">
        <ele>209.8</ele>
        <time>2022-11-30T15:50:25Z</time>
      </trkpt>
      <trkpt lat="43.51281" lon="6.28841">
        <ele>209.1</ele>
        <time>2022-11-30T15:50:29Z</time>
      </trkpt>
      <trkpt lat="43.51276" lon="6.28839">
        <ele>208.6</ele>
        <time>2022-11-30T15:50:33Z</time>
      </trkpt>
      <trkpt lat="43.51271" lon="6.28839">
        <ele>208.5</ele>
        <time>2022-11-30T15:50:37Z</time>
      </trkpt>
      <trkpt lat="43.51266" lon="6.2884">
        <ele>208.1</ele>
        <time>2022-11-30T15:50:41Z</time>
      </trkpt>
      <trkpt lat="43.51261" lon="6.28841">
        <ele>207.7</ele>
        <time>2022-11-30T15:50:45Z</time>
      </trkpt>
      <trkpt lat="43.51256" lon="6.28843">
        <ele>207.8</ele>
        <time>2022-11-30T15:50:49Z</time>
      </trkpt>
      <trkpt lat="43.51251" lon="6.28843">
        <ele>208.1</ele>
        <time>2022-11-30T15:50:53Z</time>
      </trkpt>
      <trkpt lat="43.51245" lon="6.28845">
        <ele>207.4</ele>
        <time>2022-11-30T15:50:57Z</time>
      </trkpt>
      <trkpt lat="43.51241" lon="6.28846">
        <ele>207.3</ele>
        <time>2022-11-30T15:51:01Z</time>
      </trkpt>
      <trkpt lat="43.51236" lon="6.28847">
        <ele>207.4</ele>
        <time>2022-11-30T15:51:05Z</time>
      </trkpt>
      <trkpt lat="43.51231" lon="6.28848">
        <ele>207.3</ele>
        <time>2022-11-30T15:51:09Z</time>
      </trkpt>
      <trkpt lat="43.51226" lon="6.2885">
        <ele>206.9</ele>
        <time>2022-11-30T15:51:13Z</time>
      </trkpt>
      <trkpt lat="43.51221" lon="6.28852">
        <ele>206.7</ele>
        <time>2022-11-30T15:51:17Z</time>
      </trkpt>
      <trkpt lat="43.51217" lon="6.28853">
        <ele>206.9</ele>
        <time>2022-11-30T15:51:21Z</time>
      </trkpt>
      <trkpt lat="43.51212" lon="6.28855">
        <ele>206.5</ele>
        <time>2022-11-30T15:51:25Z</time>
      </trkpt>
      <trkpt lat="43.51207" lon="6.28856">
        <ele>206.7</ele>
        <time>2022-11-30T15:51:29Z</time>
      </trkpt>
      <trkpt lat="43.51203" lon="6.28857">
        <ele>206.5</ele>
        <time>2022-11-30T15:51:33Z</time>
      </trkpt>
      <trkpt lat="43.51198" lon="6.28859">
        <ele>206.4</ele>
        <time>2022-11-30T15:51:37Z</time>
      </trkpt>
      <trkpt lat="43.51194" lon="6.28861">
        <ele>206.6</ele>
        <time>2022-11-30T15:51:41Z</time>
      </trkpt>
      <trkpt lat="43.51188" lon="6.28861">
        <ele>206.8</ele>
        <time>2022-11-30T15:51:45Z</time>
      </trkpt>
      <trkpt lat="43.51184" lon="6.28863">
        <ele>206.2</ele>
        <time>2022-11-30T15:51:49Z</time>
      </trkpt>
      <trkpt lat="43.51179" lon="6.28864">
        <ele>206.3</ele>
        <time>2022-11-30T15:51:53Z</time>
      </trkpt>
      <trkpt lat="43.51174" lon="6.28866">
        <ele>205.8</ele>
        <time>2022-11-30T15:51:58Z</time>
      </trkpt>
      <trkpt lat="43.51169" lon="6.28867">
        <ele>206</ele>
        <time>2022-11-30T15:52:02Z</time>
      </trkpt>
      <trkpt lat="43.51164" lon="6.2887">
        <ele>205.7</ele>
        <time>2022-11-30T15:52:07Z</time>
      </trkpt>
      <trkpt lat="43.51158" lon="6.28871">
        <ele>205.5</ele>
        <time>2022-11-30T15:52:12Z</time>
      </trkpt>
      <trkpt lat="43.51153" lon="6.28871">
        <ele>205.6</ele>
        <time>2022-11-30T15:52:16Z</time>
      </trkpt>
      <trkpt lat="43.51148" lon="6.28874">
        <ele>205.4</ele>
        <time>2022-11-30T15:52:21Z</time>
      </trkpt>
      <trkpt lat="43.51143" lon="6.28876">
        <ele>205.5</ele>
        <time>2022-11-30T15:52:25Z</time>
      </trkpt>
      <trkpt lat="43.51138" lon="6.28875">
        <ele>205.3</ele>
        <time>2022-11-30T15:52:29Z</time>
      </trkpt>
      <trkpt lat="43.51133" lon="6.28877">
        <ele>204.9</ele>
        <time>2022-11-30T15:52:33Z</time>
      </trkpt>
      <trkpt lat="43.51129" lon="6.2888">
        <ele>204.8</ele>
        <time>2022-11-30T15:52:37Z</time>
      </trkpt>
      <trkpt lat="43.51123" lon="6.2888">
        <ele>204.6</ele>
        <time>2022-11-30T15:52:41Z</time>
      </trkpt>
      <trkpt lat="43.51119" lon="6.28881">
        <ele>204.5</ele>
        <time>2022-11-30T15:52:45Z</time>
      </trkpt>
      <trkpt lat="43.51114" lon="6.28883">
        <ele>204.3</ele>
        <time>2022-11-30T15:52:49Z</time>
      </trkpt>
      <trkpt lat="43.51109" lon="6.28884">
        <ele>204.4</ele>
        <time>2022-11-30T15:52:53Z</time>
      </trkpt>
      <trkpt lat="43.51104" lon="6.28885">
        <ele>204.4</ele>
        <time>2022-11-30T15:52:57Z</time>
      </trkpt>
      <trkpt lat="43.511" lon="6.28886">
        <ele>204.5</ele>
        <time>2022-11-30T15:53:01Z</time>
      </trkpt>
      <trkpt lat="43.51095" lon="6.28888">
        <ele>204.3</ele>
        <time>2022-11-30T15:53:05Z</time>
      </trkpt>
      <trkpt lat="43.5109" lon="6.28889">
        <ele>204.4</ele>
        <time>2022-11-30T15:53:09Z</time>
      </trkpt>
      <trkpt lat="43.51085" lon="6.28889">
        <ele>204.3</ele>
        <time>2022-11-30T15:53:13Z</time>
      </trkpt>
      <trkpt lat="43.5108" lon="6.2889">
        <ele>204.2</ele>
        <time>2022-11-30T15:53:17Z</time>
      </trkpt>
      <trkpt lat="43.51075" lon="6.28889">
        <ele>204.2</ele>
        <time>2022-11-30T15:53:21Z</time>
      </trkpt>
      <trkpt lat="43.5107" lon="6.28888">
        <ele>204.2</ele>
        <time>2022-11-30T15:53:25Z</time>
      </trkpt>
      <trkpt lat="43.51065" lon="6.28887">
        <ele>203.4</ele>
        <time>2022-11-30T15:53:29Z</time>
      </trkpt>
      <trkpt lat="43.5106" lon="6.28887">
        <ele>203.5</ele>
        <time>2022-11-30T15:53:33Z</time>
      </trkpt>
      <trkpt lat="43.51055" lon="6.28884">
        <ele>203.3</ele>
        <time>2022-11-30T15:53:37Z</time>
      </trkpt>
      <trkpt lat="43.5105" lon="6.2888">
        <ele>203.2</ele>
        <time>2022-11-30T15:53:41Z</time>
      </trkpt>
      <trkpt lat="43.51045" lon="6.28878">
        <ele>202.9</ele>
        <time>2022-11-30T15:53:45Z</time>
      </trkpt>
      <trkpt lat="43.51041" lon="6.28878">
        <ele>202.4</ele>
        <time>2022-11-30T15:53:49Z</time>
      </trkpt>
      <trkpt lat="43.51035" lon="6.28877">
        <ele>202.1</ele>
        <time>2022-11-30T15:53:53Z</time>
      </trkpt>
      <trkpt lat="43.5103" lon="6.28876">
        <ele>202</ele>
        <time>2022-11-30T15:53:57Z</time>
      </trkpt>
      <trkpt lat="43.51025" lon="6.28876">
        <ele>201.8</ele>
        <time>2022-11-30T15:54:01Z</time>
      </trkpt>
      <trkpt lat="43.5102" lon="6.28876">
        <ele>201.7</ele>
        <time>2022-11-30T15:54:05Z</time>
      </trkpt>
      <trkpt lat="43.51016" lon="6.28877">
        <ele>201.4</ele>
        <time>2022-11-30T15:54:09Z</time>
      </trkpt>
      <trkpt lat="43.5101" lon="6.28877">
        <ele>200.8</ele>
        <time>2022-11-30T15:54:15Z</time>
      </trkpt>
      <trkpt lat="43.51005" lon="6.28877">
        <ele>201.1</ele>
        <time>2022-11-30T15:54:19Z</time>
      </trkpt>
      <trkpt lat="43.51" lon="6.2888">
        <ele>201.3</ele>
        <time>2022-11-30T15:54:22Z</time>
      </trkpt>
      <trkpt lat="43.50996" lon="6.28883">
        <ele>201.1</ele>
        <time>2022-11-30T15:54:27Z</time>
      </trkpt>
      <trkpt lat="43.50992" lon="6.28885">
        <ele>201.6</ele>
        <time>2022-11-30T15:54:32Z</time>
      </trkpt>
      <trkpt lat="43.50987" lon="6.28887">
        <ele>201.4</ele>
        <time>2022-11-30T15:54:36Z</time>
      </trkpt>
      <trkpt lat="43.50982" lon="6.2889">
        <ele>201.1</ele>
        <time>2022-11-30T15:54:40Z</time>
      </trkpt>
      <trkpt lat="43.50977" lon="6.28893">
        <ele>201.3</ele>
        <time>2022-11-30T15:54:44Z</time>
      </trkpt>
      <trkpt lat="43.50973" lon="6.28895">
        <ele>200.7</ele>
        <time>2022-11-30T15:54:49Z</time>
      </trkpt>
      <trkpt lat="43.50968" lon="6.28896">
        <ele>200.8</ele>
        <time>2022-11-30T15:54:55Z</time>
      </trkpt>
      <trkpt lat="43.50964" lon="6.289">
        <ele>200</ele>
        <time>2022-11-30T15:54:59Z</time>
      </trkpt>
      <trkpt lat="43.50961" lon="6.28905">
        <ele>200.3</ele>
        <time>2022-11-30T15:55:03Z</time>
      </trkpt>
      <trkpt lat="43.50955" lon="6.28907">
        <ele>199.5</ele>
        <time>2022-11-30T15:55:08Z</time>
      </trkpt>
      <trkpt lat="43.5095" lon="6.2891">
        <ele>199.8</ele>
        <time>2022-11-30T15:55:12Z</time>
      </trkpt>
      <trkpt lat="43.50945" lon="6.2891">
        <ele>199.6</ele>
        <time>2022-11-30T15:55:18Z</time>
      </trkpt>
      <trkpt lat="43.5094" lon="6.2891">
        <ele>199.6</ele>
        <time>2022-11-30T15:55:21Z</time>
      </trkpt>
      <trkpt lat="43.50935" lon="6.2891">
        <ele>199.5</ele>
        <time>2022-11-30T15:55:25Z</time>
      </trkpt>
      <trkpt lat="43.5093" lon="6.28908">
        <ele>199.3</ele>
        <time>2022-11-30T15:55:29Z</time>
      </trkpt>
      <trkpt lat="43.50925" lon="6.28906">
        <ele>199.4</ele>
        <time>2022-11-30T15:55:35Z</time>
      </trkpt>
      <trkpt lat="43.5092" lon="6.28904">
        <ele>199.3</ele>
        <time>2022-11-30T15:55:39Z</time>
      </trkpt>
      <trkpt lat="43.50914" lon="6.28903">
        <ele>199</ele>
        <time>2022-11-30T15:55:43Z</time>
      </trkpt>
      <trkpt lat="43.5091" lon="6.28899">
        <ele>199.2</ele>
        <time>2022-11-30T15:55:47Z</time>
      </trkpt>
      <trkpt lat="43.50907" lon="6.28894">
        <ele>198.4</ele>
        <time>2022-11-30T15:55:53Z</time>
      </trkpt>
      <trkpt lat="43.50902" lon="6.28891">
        <ele>198.4</ele>
        <time>2022-11-30T15:56:00Z</time>
      </trkpt>
      <trkpt lat="43.50898" lon="6.2889">
        <ele>199</ele>
        <time>2022-11-30T15:56:04Z</time>
      </trkpt>
      <trkpt lat="43.50893" lon="6.2889">
        <ele>198.4</ele>
        <time>2022-11-30T15:56:07Z</time>
      </trkpt>
      <trkpt lat="43.50888" lon="6.2889">
        <ele>198.2</ele>
        <time>2022-11-30T15:56:11Z</time>
      </trkpt>
      <trkpt lat="43.50882" lon="6.28889">
        <ele>198.2</ele>
        <time>2022-11-30T15:56:15Z</time>
      </trkpt>
      <trkpt lat="43.50877" lon="6.28889">
        <ele>197.9</ele>
        <time>2022-11-30T15:56:19Z</time>
      </trkpt>
      <trkpt lat="43.50873" lon="6.28888">
        <ele>198</ele>
        <time>2022-11-30T15:56:23Z</time>
      </trkpt>
      <trkpt lat="43.50867" lon="6.28887">
        <ele>197.6</ele>
        <time>2022-11-30T15:56:27Z</time>
      </trkpt>
      <trkpt lat="43.50861" lon="6.28888">
        <ele>197.4</ele>
        <time>2022-11-30T15:56:31Z</time>
      </trkpt>
      <trkpt lat="43.50856" lon="6.28886">
        <ele>197.6</ele>
        <time>2022-11-30T15:56:35Z</time>
      </trkpt>
      <trkpt lat="43.50852" lon="6.28885">
        <ele>197.3</ele>
        <time>2022-11-30T15:56:40Z</time>
      </trkpt>
      <trkpt lat="43.50847" lon="6.28883">
        <ele>197.2</ele>
        <time>2022-11-30T15:56:44Z</time>
      </trkpt>
      <trkpt lat="43.50842" lon="6.2888">
        <ele>197.2</ele>
        <time>2022-11-30T15:56:49Z</time>
      </trkpt>
      <trkpt lat="43.50838" lon="6.28879">
        <ele>197.3</ele>
        <time>2022-11-30T15:56:53Z</time>
      </trkpt>
      <trkpt lat="43.50832" lon="6.28879">
        <ele>196.9</ele>
        <time>2022-11-30T15:56:57Z</time>
      </trkpt>
      <trkpt lat="43.50827" lon="6.28877">
        <ele>196.4</ele>
        <time>2022-11-30T15:57:02Z</time>
      </trkpt>
      <trkpt lat="43.50823" lon="6.28876">
        <ele>196.4</ele>
        <time>2022-11-30T15:57:05Z</time>
      </trkpt>
      <trkpt lat="43.50818" lon="6.28877">
        <ele>196.6</ele>
        <time>2022-11-30T15:57:09Z</time>
      </trkpt>
      <trkpt lat="43.50814" lon="6.28873">
        <ele>197</ele>
        <time>2022-11-30T15:57:14Z</time>
      </trkpt>
      <trkpt lat="43.5081" lon="6.28868">
        <ele>196.5</ele>
        <time>2022-11-30T15:57:18Z</time>
      </trkpt>
      <trkpt lat="43.50805" lon="6.28866">
        <ele>196.6</ele>
        <time>2022-11-30T15:57:22Z</time>
      </trkpt>
      <trkpt lat="43.508" lon="6.28863">
        <ele>196.4</ele>
        <time>2022-11-30T15:57:26Z</time>
      </trkpt>
      <trkpt lat="43.50795" lon="6.2886">
        <ele>196.3</ele>
        <time>2022-11-30T15:57:30Z</time>
      </trkpt>
      <trkpt lat="43.5079" lon="6.28858">
        <ele>196.1</ele>
        <time>2022-11-30T15:57:34Z</time>
      </trkpt>
      <trkpt lat="43.50786" lon="6.28856">
        <ele>196</ele>
        <time>2022-11-30T15:57:38Z</time>
      </trkpt>
      <trkpt lat="43.50781" lon="6.28853">
        <ele>195.6</ele>
        <time>2022-11-30T15:57:42Z</time>
      </trkpt>
      <trkpt lat="43.50776" lon="6.2885">
        <ele>195.6</ele>
        <time>2022-11-30T15:57:47Z</time>
      </trkpt>
      <trkpt lat="43.50771" lon="6.28847">
        <ele>195.8</ele>
        <time>2022-11-30T15:57:51Z</time>
      </trkpt>
      <trkpt lat="43.50768" lon="6.28843">
        <ele>195.7</ele>
        <time>2022-11-30T15:57:56Z</time>
      </trkpt>
      <trkpt lat="43.50766" lon="6.28837">
        <ele>195.3</ele>
        <time>2022-11-30T15:58:01Z</time>
      </trkpt>
      <trkpt lat="43.50763" lon="6.28831">
        <ele>195.3</ele>
        <time>2022-11-30T15:58:06Z</time>
      </trkpt>
      <trkpt lat="43.50762" lon="6.28825">
        <ele>195.1</ele>
        <time>2022-11-30T15:58:10Z</time>
      </trkpt>
      <trkpt lat="43.5076" lon="6.28819">
        <ele>195.5</ele>
        <time>2022-11-30T15:58:15Z</time>
      </trkpt>
      <trkpt lat="43.50758" lon="6.28814">
        <ele>195.3</ele>
        <time>2022-11-30T15:58:19Z</time>
      </trkpt>
      <trkpt lat="43.50755" lon="6.28807">
        <ele>194.8</ele>
        <time>2022-11-30T15:58:24Z</time>
      </trkpt>
      <trkpt lat="43.50754" lon="6.28801">
        <ele>194.9</ele>
        <time>2022-11-30T15:58:29Z</time>
      </trkpt>
      <trkpt lat="43.50755" lon="6.28794">
        <ele>194.7</ele>
        <time>2022-11-30T15:58:33Z</time>
      </trkpt>
      <trkpt lat="43.50754" lon="6.28786">
        <ele>194.7</ele>
        <time>2022-11-30T15:58:38Z</time>
      </trkpt>
      <trkpt lat="43.50754" lon="6.2878">
        <ele>194.7</ele>
        <time>2022-11-30T15:58:42Z</time>
      </trkpt>
      <trkpt lat="43.50754" lon="6.28772">
        <ele>194.7</ele>
        <time>2022-11-30T15:58:47Z</time>
      </trkpt>
      <trkpt lat="43.50755" lon="6.28765">
        <ele>194.6</ele>
        <time>2022-11-30T15:58:52Z</time>
      </trkpt>
      <trkpt lat="43.50757" lon="6.28758">
        <ele>194.8</ele>
        <time>2022-11-30T15:58:57Z</time>
      </trkpt>
      <trkpt lat="43.50758" lon="6.28751">
        <ele>194.8</ele>
        <time>2022-11-30T15:59:02Z</time>
      </trkpt>
      <trkpt lat="43.5076" lon="6.28743">
        <ele>195.3</ele>
        <time>2022-11-30T15:59:09Z</time>
      </trkpt>
      <trkpt lat="43.50762" lon="6.28737">
        <ele>195.1</ele>
        <time>2022-11-30T15:59:13Z</time>
      </trkpt>
      <trkpt lat="43.50764" lon="6.28732">
        <ele>195.3</ele>
        <time>2022-11-30T15:59:19Z</time>
      </trkpt>
      <trkpt lat="43.50759" lon="6.28733">
        <ele>195.5</ele>
        <time>2022-11-30T15:59:27Z</time>
      </trkpt>
      <trkpt lat="43.50755" lon="6.28737">
        <ele>195.5</ele>
        <time>2022-11-30T15:59:31Z</time>
      </trkpt>
      <trkpt lat="43.50751" lon="6.28739">
        <ele>195.5</ele>
        <time>2022-11-30T15:59:40Z</time>
      </trkpt>
      <trkpt lat="43.50748" lon="6.28744">
        <ele>195</ele>
        <time>2022-11-30T16:00:45Z</time>
      </trkpt>
      <trkpt lat="43.50752" lon="6.2874">
        <ele>195.2</ele>
        <time>2022-11-30T16:02:38Z</time>
      </trkpt>
      <trkpt lat="43.50755" lon="6.28735">
        <ele>195.2</ele>
        <time>2022-11-30T16:02:43Z</time>
      </trkpt>
      <trkpt lat="43.50759" lon="6.28731">
        <ele>195.4</ele>
        <time>2022-11-30T16:02:48Z</time>
      </trkpt>
      <trkpt lat="43.50763" lon="6.28727">
        <ele>195.4</ele>
        <time>2022-11-30T16:02:56Z</time>
      </trkpt>
      <trkpt lat="43.50763" lon="6.28727">
        <ele>195.5</ele>
        <time>2022-11-30T16:03:02Z</time>
      </trkpt>
    </trkseg>
  </trk>
</gpx>